[[{"header":{"parameterUnit":"m.s-1","parameterCategory":1,"la1":30.6,"la2":29.2853,"lo1":-89.7004,"lo2":-87.6739,"dy":0.0162,"dx":0.0183,"nx":112,"ny":82,"refTime":"2024-05-10T12:00:00:Z","depth":0,"parameterNumber":2,"parameterNumberName":"U-component_of_WINDS"},"data":[0.0,0.0,0.0,0.0,0.0,0.0,0.0,0.0,0.0,0.0,0.0,0.0,0.0,0.0,0.0,0.0,0.0,0.0,0.0,0.0,0.0,0.0,0.0,0.0,0.0,0.0,0.0,0.0,0.0,0.0,0.0,0.0,0.0,0.0,0.0,0.0,0.0,0.0,0.0,0.0,0.0,0.0,0.0,0.0,0.0,0.0,0.0,0.0,0.0,0.0,0.0,0.0,0.0,0.0,0.0,0.0,0.0,0.0,0.0,0.0,0.0,0.0,0.0,0.0,0.0,0.0,0.0,0.0,0.0,0.0,0.0,0.0,0.0,0.0,0.0,0.0,0.0,0.0,0.0,0.0,0.0,0.0,0.0,0.0,0.0,0.0,0.0,0.0,0.0,0.0,-1.2432,-1.2358,-1.2418,-1.2373,-1.2427,-1.2441,-1.2441,-1.2441,0.0,0.0,0.0,0.0,0.0,0.0,0.0,0.0,0.0,0.0,0.0,0.0,0.0,0.0,0.0,0.0,0.0,0.0,0.0,0.0,0.0,0.0,0.0,0.0,0.0,0.0,0.0,0.0,0.0,0.0,0.0,0.0,0.0,0.0,0.0,0.0,0.0,0.0,0.0,0.0,0.0,0.0,0.0,0.0,0.0,0.0,0.0,0.0,0.0,0.0,0.0,0.0,0.0,0.0,0.0,0.0,0.0,0.0,0.0,0.0,0.0,0.0,0.0,0.0,0.0,0.0,0.0,0.0,0.0,0.0,0.0,0.0,0.0,0.0,0.0,0.0,0.0,0.0,0.0,0.0,0.0,0.0,0.0,0.0,0.0,0.0,0.0,0.0,0.0,0.0,0.0,0.0,0.0,0.0,0.0,0.0,0.0,0.0,0.0,0.0,0.0,0.0,0.0,0.0,-1.2385,-1.244,-1.238,-1.2408,-1.2436,-1.2441,-1.2441,-1.2441,0.0,0.0,0.0,0.0,0.0,0.0,0.0,0.0,0.0,0.0,0.0,0.0,0.0,0.0,0.0,0.0,0.0,0.0,0.0,0.0,0.0,0.0,0.0,0.0,0.0,0.0,0.0,0.0,0.0,0.0,0.0,0.0,0.0,0.0,0.0,0.0,0.0,0.0,0.0,0.0,0.0,0.0,0.0,0.0,0.0,0.0,0.0,0.0,0.0,0.0,0.0,0.0,0.0,0.0,0.0,0.0,0.0,0.0,0.0,0.0,0.0,0.0,0.0,0.0,0.0,0.0,0.0,0.0,0.0,0.0,0.0,0.0,0.0,0.0,0.0,0.0,0.0,0.0,0.0,0.0,0.0,0.0,0.0,0.0,0.0,0.0,0.0,0.0,0.0,0.0,0.0,0.0,0.0,0.0,0.0,0.0,0.0,0.0,0.0,0.0,0.0,0.0,0.0,-1.2416,-1.245,-1.2432,-1.2441,-1.2441,-1.2441,-1.255,-1.2616,-1.2616,-1.272,0.0,0.0,0.0,0.0,0.0,0.0,0.0,0.0,0.0,0.0,0.0,0.0,0.0,0.0,0.0,0.0,0.0,0.0,0.0,0.0,0.0,0.0,0.0,0.0,0.0,0.0,0.0,0.0,0.0,0.0,0.0,0.0,0.0,0.0,0.0,0.0,0.0,0.0,0.0,0.0,0.0,0.0,0.0,0.0,0.0,0.0,0.0,0.0,0.0,0.0,0.0,0.0,0.0,0.0,0.0,0.0,0.0,0.0,0.0,0.0,0.0,0.0,0.0,0.0,0.0,0.0,0.0,0.0,0.0,0.0,0.0,0.0,0.0,0.0,0.0,0.0,0.0,0.0,0.0,0.0,0.0,0.0,0.0,0.0,0.0,0.0,0.0,0.0,0.0,0.0,0.0,0.0,0.0,0.0,0.0,0.0,0.0,0.0,0.0,0.0,0.0,0.0,-1.2441,-1.246,-1.2512,-1.2517,-1.2535,-1.2583,-1.2743,-1.2838,-1.2838,-1.298,0.0,0.0,0.0,0.0,0.0,0.0,0.0,0.0,0.0,0.0,0.0,0.0,0.0,0.0,0.0,0.0,0.0,0.0,0.0,0.0,0.0,0.0,0.0,0.0,0.0,0.0,0.0,0.0,0.0,0.0,0.0,0.0,0.0,0.0,0.0,0.0,0.0,0.0,0.0,0.0,0.0,0.0,0.0,0.0,0.0,0.0,0.0,0.0,0.0,0.0,0.0,0.0,0.0,0.0,0.0,0.0,0.0,0.0,0.0,0.0,0.0,0.0,0.0,0.0,0.0,0.0,0.0,0.0,0.0,0.0,0.0,0.0,0.0,0.0,0.0,0.0,0.0,0.0,0.0,0.0,0.0,0.0,0.0,0.0,0.0,0.0,0.0,0.0,0.0,0.0,0.0,0.0,0.0,0.0,0.0,0.0,0.0,0.0,0.0,0.0,0.0,0.0,-1.2441,-1.2517,-1.2724,-1.2743,-1.2819,-1.3008,-1.3036,-1.3046,-1.3046,-1.306,0.0,0.0,0.0,0.0,0.0,0.0,0.0,0.0,0.0,0.0,0.0,0.0,0.0,0.0,0.0,0.0,0.0,0.0,0.0,0.0,0.0,0.0,0.0,0.0,0.0,0.0,0.0,0.0,0.0,0.0,0.0,0.0,0.0,0.0,0.0,0.0,0.0,0.0,0.0,0.0,0.0,0.0,0.0,0.0,0.0,0.0,0.0,0.0,0.0,0.0,0.0,0.0,0.0,0.0,0.0,0.0,0.0,0.0,0.0,0.0,0.0,0.0,0.0,0.0,0.0,0.0,0.0,0.0,0.0,0.0,0.0,0.0,0.0,0.0,0.0,0.0,0.0,0.0,0.0,0.0,0.0,0.0,0.0,0.0,0.0,0.0,0.0,0.0,0.0,0.0,0.0,0.0,0.0,0.0,0.0,0.0,0.0,0.0,0.0,0.0,0.0,0.0,-1.295,-1.2979,0.0,-1.2956,-1.2984,-1.306,-1.3192,-1.3268,-1.3268,0.0,0.0,0.0,0.0,0.0,0.0,0.0,0.0,0.0,0.0,0.0,0.0,0.0,0.0,0.0,0.0,0.0,0.0,0.0,0.0,0.0,0.0,0.0,0.0,0.0,0.0,0.0,0.0,0.0,0.0,0.0,0.0,0.0,0.0,0.0,0.0,0.0,0.0,0.0,0.0,0.0,0.0,0.0,0.0,0.0,0.0,0.0,0.0,0.0,0.0,0.0,0.0,0.0,0.0,0.0,0.0,0.0,0.0,0.0,0.0,0.0,0.0,0.0,0.0,0.0,0.0,0.0,0.0,0.0,0.0,0.0,0.0,0.0,0.0,0.0,0.0,0.0,0.0,0.0,0.0,0.0,0.0,0.0,0.0,0.0,0.0,0.0,0.0,0.0,0.0,0.0,0.0,0.0,0.0,0.0,0.0,0.0,0.0,0.0,0.0,0.0,0.0,-1.3293,-1.3303,-1.3217,0.0,-1.3169,-1.3197,-1.3258,-1.34,-1.3485,-1.3485,0.0,0.0,0.0,0.0,0.0,0.0,0.0,0.0,0.0,0.0,0.0,0.0,0.0,0.0,0.0,0.0,0.0,0.0,0.0,0.0,0.0,0.0,0.0,0.0,0.0,0.0,0.0,0.0,0.0,0.0,0.0,0.0,0.0,0.0,0.0,0.0,0.0,0.0,0.0,0.0,0.0,0.0,0.0,0.0,0.0,0.0,0.0,0.0,0.0,0.0,0.0,0.0,0.0,0.0,0.0,0.0,0.0,0.0,0.0,0.0,0.0,0.0,0.0,0.0,0.0,0.0,0.0,0.0,0.0,0.0,0.0,0.0,0.0,0.0,0.0,0.0,0.0,0.0,0.0,0.0,0.0,0.0,0.0,0.0,0.0,0.0,0.0,0.0,0.0,0.0,0.0,0.0,0.0,0.0,0.0,0.0,0.0,0.0,0.0,0.0,0.0,0.0,-1.3312,-1.3193,-1.3154,-1.3372,-1.3391,-1.3476,-1.367,-1.3688,-1.3688,0.0,0.0,0.0,0.0,0.0,0.0,0.0,0.0,0.0,0.0,0.0,0.0,0.0,0.0,0.0,0.0,0.0,0.0,0.0,0.0,0.0,0.0,0.0,0.0,0.0,0.0,0.0,0.0,0.0,0.0,0.0,0.0,0.0,0.0,0.0,0.0,0.0,0.0,0.0,0.0,0.0,0.0,0.0,0.0,0.0,0.0,0.0,0.0,0.0,0.0,0.0,0.0,0.0,0.0,0.0,0.0,0.0,0.0,0.0,0.0,0.0,0.0,0.0,0.0,0.0,0.0,0.0,0.0,0.0,0.0,0.0,0.0,0.0,0.0,0.0,0.0,0.0,0.0,0.0,0.0,0.0,0.0,0.0,0.0,0.0,0.0,0.0,0.0,0.0,0.0,0.0,0.0,0.0,0.0,0.0,0.0,0.0,0.0,0.0,0.0,0.0,0.0,0.0,-1.3608,-1.3504,-1.3528,-1.3594,-1.3603,-1.3622,-1.3684,-1.3688,-1.3688,-1.3688,0.0,0.0,0.0,0.0,0.0,0.0,0.0,0.0,0.0,0.0,0.0,0.0,0.0,0.0,0.0,0.0,0.0,0.0,0.0,0.0,0.0,0.0,0.0,0.0,0.0,0.0,0.0,0.0,0.0,0.0,0.0,0.0,0.0,0.0,0.0,0.0,0.0,0.0,0.0,0.0,0.0,0.0,0.0,0.0,0.0,0.0,0.0,0.0,0.0,0.0,0.0,0.0,0.0,0.0,0.0,0.0,0.0,0.0,0.0,0.0,0.0,0.0,0.0,0.0,0.0,0.0,0.0,0.0,0.0,0.0,0.0,0.0,0.0,0.0,0.0,0.0,0.0,0.0,0.0,0.0,0.0,0.0,0.0,0.0,0.0,0.0,0.0,0.0,0.0,0.0,0.0,0.0,0.0,0.0,0.0,0.0,0.0,0.0,0.0,0.0,0.0,0.0,-1.3674,-1.3688,-1.3688,-1.3688,-1.3688,-1.3688,-1.3688,-1.3688,-1.3688,-1.3688,0.0,0.0,0.0,0.0,0.0,0.0,0.0,0.0,0.0,0.0,0.0,0.0,0.0,0.0,0.0,0.0,0.0,0.0,0.0,0.0,0.0,0.0,0.0,0.0,0.0,0.0,0.0,0.0,0.0,0.0,0.0,0.0,0.0,0.0,0.0,0.0,0.0,0.0,0.0,0.0,0.0,0.0,0.0,0.0,0.0,0.0,0.0,0.0,0.0,0.0,0.0,0.0,0.0,0.0,0.0,0.0,0.0,0.0,0.0,0.0,0.0,0.0,0.0,0.0,0.0,0.0,0.0,0.0,0.0,0.0,0.0,0.0,0.0,0.0,0.0,0.0,0.0,0.0,0.0,0.0,0.0,0.0,0.0,0.0,0.0,0.0,0.0,0.0,0.0,0.0,0.0,0.0,0.0,0.0,0.0,0.0,0.0,0.0,0.0,0.0,0.0,0.0,-1.3688,-1.3688,-1.3688,-1.3688,-1.3688,-1.3688,-1.3688,-1.3688,-1.3688,-1.3688,0.0,0.0,0.0,0.0,0.0,0.0,0.0,0.0,0.0,0.0,0.0,0.0,0.0,0.0,0.0,0.0,0.0,0.0,0.0,0.0,0.0,0.0,0.0,0.0,0.0,0.0,0.0,0.0,0.0,0.0,0.0,0.0,0.0,0.0,0.0,0.0,0.0,0.0,0.0,0.0,0.0,0.0,0.0,0.0,0.0,0.0,0.0,0.0,0.0,0.0,0.0,0.0,0.0,0.0,0.0,0.0,0.0,0.0,0.0,0.0,-1.0019,0.0,0.0,0.0,0.0,0.0,0.0,0.0,0.0,0.0,0.0,0.0,0.0,0.0,0.0,0.0,0.0,0.0,0.0,0.0,0.0,0.0,0.0,0.0,0.0,0.0,0.0,0.0,0.0,0.0,0.0,0.0,0.0,0.0,0.0,0.0,0.0,0.0,0.0,0.0,0.0,0.0,-1.3688,-1.3688,-1.3688,-1.3688,-1.3688,-1.3688,-1.3688,-1.3688,-1.3688,-1.3688,-1.3688,0.0,0.0,0.0,0.0,0.0,0.0,0.0,0.0,0.0,0.0,0.0,0.0,0.0,0.0,0.0,0.0,0.0,0.0,0.0,0.0,0.0,0.0,0.0,0.0,0.0,0.0,0.0,0.0,0.0,0.0,0.0,0.0,0.0,0.0,0.0,0.0,0.0,0.0,0.0,0.0,0.0,0.0,0.0,0.0,0.0,0.0,0.0,0.0,0.0,0.0,0.0,0.0,0.0,0.0,0.0,0.0,0.0,0.0,0.0,0.0,-1.0258,0.0,0.0,0.0,0.0,0.0,0.0,0.0,0.0,0.0,0.0,0.0,0.0,0.0,0.0,0.0,0.0,0.0,0.0,0.0,0.0,0.0,0.0,0.0,0.0,0.0,0.0,0.0,0.0,0.0,0.0,0.0,0.0,0.0,0.0,0.0,0.0,0.0,0.0,0.0,0.0,-1.3688,-1.3688,-1.3688,-1.3688,-1.3688,-1.3688,-1.3688,-1.3688,-1.3688,-1.3688,-1.3688,0.0,0.0,0.0,0.0,0.0,0.0,0.0,0.0,0.0,0.0,0.0,0.0,0.0,0.0,0.0,0.0,0.0,0.0,0.0,0.0,0.0,0.0,0.0,0.0,0.0,0.0,0.0,0.0,0.0,0.0,0.0,0.0,0.0,0.0,0.0,0.0,0.0,0.0,0.0,0.0,0.0,0.0,0.0,0.0,0.0,0.0,0.0,0.0,0.0,0.0,0.0,0.0,0.0,-0.997,-1.0162,-1.0539,-1.0755,-1.0946,-1.1088,-1.0964,-1.0893,-1.0773,0.0,0.0,0.0,0.0,0.0,0.0,0.0,0.0,0.0,0.0,0.0,0.0,0.0,0.0,0.0,0.0,0.0,0.0,0.0,0.0,0.0,0.0,0.0,0.0,0.0,-1.331,-1.3391,0.0,0.0,0.0,0.0,0.0,0.0,0.0,0.0,0.0,0.0,0.0,0.0,-1.3688,-1.3688,-1.3688,-1.3688,-1.3688,-1.3703,-1.374,-1.3745,-1.3745,-1.3745,-1.3745,-1.3731,0.0,0.0,0.0,0.0,0.0,0.0,0.0,0.0,0.0,0.0,0.0,0.0,0.0,0.0,0.0,0.0,0.0,0.0,0.0,0.0,0.0,0.0,0.0,0.0,0.0,0.0,0.0,0.0,0.0,0.0,0.0,0.0,-0.8942,-0.887,0.0,0.0,0.0,0.0,0.0,0.0,0.0,0.0,0.0,0.0,0.0,0.0,0.0,0.0,-0.9628,-0.9628,-0.9801,-1.0251,-1.0251,-1.0654,-1.1259,-1.1259,-1.1484,-1.1723,-1.1882,0.0,-1.0953,-1.1498,0.0,0.0,0.0,0.0,0.0,0.0,0.0,0.0,0.0,0.0,0.0,0.0,0.0,0.0,0.0,0.0,0.0,0.0,0.0,0.0,0.0,0.0,-1.3391,-1.3566,-1.3627,-1.3641,0.0,-1.3627,-1.3651,-1.3651,-1.367,0.0,0.0,0.0,0.0,0.0,0.0,0.0,-1.3688,-1.3688,-1.3688,-1.3688,-1.3688,-1.3764,-1.3953,-1.3967,-1.3967,-1.3967,-1.3967,-1.3887,-1.3698,-1.3688,0.0,0.0,0.0,0.0,0.0,0.0,0.0,0.0,0.0,0.0,0.0,0.0,0.0,0.0,0.0,0.0,0.0,0.0,0.0,0.0,0.0,0.0,0.0,0.0,0.0,0.0,0.0,0.0,0.0,-0.7726,-0.7234,-0.6643,-0.6747,-0.6777,0.0,0.0,0.0,0.0,0.0,0.0,0.0,0.0,0.0,-0.9628,-0.9628,-0.9772,-0.9971,-0.9875,-1.0062,-1.0651,-1.0651,-1.0962,-1.1576,-1.1682,-1.1957,-1.2172,-1.2266,-1.2037,-1.1847,-1.206,-1.2117,-1.2093,0.0,0.0,0.0,0.0,-1.2517,-1.2625,-1.2625,-1.2696,0.0,0.0,0.0,0.0,0.0,0.0,0.0,0.0,0.0,0.0,0.0,0.0,0.0,-1.367,-1.3688,-1.3688,-1.3688,-1.3688,-1.3688,0.0,-1.3688,-1.3688,-1.3688,0.0,0.0,0.0,0.0,-1.3736,-1.3854,-1.3868,-1.391,-1.4029,-1.4038,-1.4076,-1.417,-1.418,-1.418,-1.418,-1.418,-1.4137,-1.4043,-1.4038,-1.3986,0.0,0.0,0.0,0.0,0.0,0.0,0.0,0.0,0.0,0.0,0.0,0.0,0.0,0.0,0.0,0.0,0.0,0.0,0.0,0.0,0.0,0.0,0.0,0.0,0.0,0.0,0.0,0.0,-0.7003,-0.6195,-0.521,-0.6005,-0.6432,0.0,0.0,0.0,0.0,0.0,0.0,-0.9529,-0.9327,-0.9347,-0.9693,-0.9793,-0.9979,-1.0259,-1.0259,-1.0458,-1.1067,-1.1172,-1.1411,-1.1976,-1.2192,-1.2408,-1.2602,-1.2602,-1.2569,-1.2521,-1.246,-1.2441,-1.2446,-1.2502,-1.2521,-1.2531,-1.2578,-1.2706,-1.2847,-1.2847,-1.2942,-1.3079,-1.3131,0.0,-1.3254,-1.3419,0.0,0.0,0.0,0.0,-1.3688,-1.3688,-1.3688,-1.3688,-1.3688,-1.3688,-1.3688,-1.3688,-1.3688,-1.3688,0.0,-1.3688,-1.3688,-1.3688,0.0,0.0,0.0,0.0,-1.3906,-1.4066,-1.409,-1.4147,-1.4293,-1.4312,-1.4331,-1.4388,-1.4392,-1.4392,-1.4392,-1.4392,-1.4369,-1.4312,-1.4312,-1.4241,-1.409,0.0,0.0,0.0,0.0,0.0,0.0,0.0,0.0,0.0,0.0,0.0,0.0,0.0,0.0,0.0,0.0,0.0,0.0,0.0,0.0,0.0,0.0,0.0,0.0,0.0,0.0,0.0,0.0,0.0,-0.6412,-0.7214,0.0,0.0,0.0,0.0,-0.9327,-0.7723,-0.7422,-0.9525,-0.8623,-0.8589,-0.9868,-1.0175,-1.0263,-1.0252,-1.0664,-1.1076,-1.1274,-1.1593,-1.2013,-1.2739,-1.2739,-1.2843,-1.3032,-1.3032,-1.2928,-1.2734,-1.2526,-1.2441,-1.246,-1.2668,-1.2748,-1.2776,-1.2965,-1.3041,-1.3051,-1.3051,-1.306,-1.3102,-1.3306,-1.3499,-1.366,-1.367,-1.3679,0.0,0.0,-1.3688,-1.3688,-1.3688,-1.3688,-1.3688,-1.3688,-1.3688,-1.3688,-1.3688,-1.3688,-1.3688,0.0,-1.3688,-1.3688,-1.3688,0.0,-1.3996,-1.3996,-1.4156,-1.4284,-1.4293,-1.4293,-1.4303,-1.4312,-1.4312,-1.4397,-1.46,-1.4615,-1.4615,-1.4615,-1.4615,-1.4525,-1.4317,-1.4312,-1.4307,-1.4298,-1.4293,0.0,0.0,0.0,0.0,0.0,0.0,0.0,0.0,0.0,0.0,0.0,0.0,0.0,0.0,0.0,0.0,0.0,0.0,0.0,0.0,0.0,0.0,0.0,0.0,0.0,0.0,0.0,0.0,-0.6523,-0.7322,0.0,-0.7021,-0.7223,-0.7723,-0.8524,-0.8614,-0.8974,-0.9795,-0.9595,-0.9583,-1.0063,-1.0372,-1.0724,-1.1147,-1.1254,-1.1742,-1.2511,-1.2288,-1.2478,-1.2961,-1.2961,-1.2999,-1.3065,-1.3065,-1.3027,-1.2956,-1.2876,-1.2767,-1.2673,-1.288,-1.2961,-1.297,-1.3041,-1.3154,-1.3277,-1.3277,-1.3362,-1.348,-1.3556,-1.3632,-1.3688,-1.3688,-1.3688,-1.3688,-1.3688,-1.3688,-1.3688,-1.3688,-1.3688,-1.3688,-1.3688,-1.3688,-1.3726,-1.3868,-1.3896,-1.3934,-1.4066,-1.3986,-1.3939,-1.4066,-1.4156,-1.4203,-1.4203,-1.4265,-1.4359,-1.4501,-1.452,-1.4567,-1.4695,-1.4714,-1.4742,-1.4822,-1.4827,-1.4827,-1.4827,-1.4827,-1.4789,-1.4714,-1.4714,-1.4652,-1.452,-1.452,-1.5438,0.0,0.0,0.0,0.0,0.0,0.0,0.0,0.0,0.0,0.0,0.0,0.0,0.0,0.0,0.0,0.0,0.0,0.0,0.0,0.0,0.0,0.0,0.0,0.0,0.0,0.0,-0.7621,-0.6523,-0.7621,-0.8124,-0.7021,-0.7965,-0.86,-0.86,-0.9466,-0.9977,-0.9977,-1.0156,-1.0387,-1.0551,-1.0826,-1.1333,-1.1762,-1.1988,-1.2342,-1.295,-1.2836,-1.2873,-1.3178,-1.3178,-1.3211,-1.3277,-1.3277,-1.324,-1.3183,-1.3249,-1.3159,-1.2994,-1.3121,-1.3178,-1.3183,-1.3249,-1.3367,-1.349,-1.349,-1.3575,-1.3688,-1.3688,-1.3688,-1.3688,-1.3688,-1.3688,-1.3688,-1.3688,-1.3688,-1.3707,-1.3778,-1.3797,-1.3816,-1.3882,-1.3896,-1.3939,-1.4081,-1.4109,-1.4175,-1.4378,-1.4255,-1.4151,-1.4288,-1.4369,-1.4421,-1.4421,-1.4477,-1.4572,-1.4714,-1.4733,-1.4785,-1.4917,-1.4931,-1.4931,-1.4931,-1.4931,-1.4931,-1.4931,-1.4931,-1.4931,-1.4931,-1.4931,-1.5125,-1.5366,-1.6381,-1.7553,-1.9119,0.0,0.0,0.0,0.0,0.0,0.0,0.0,0.0,0.0,0.0,0.0,0.0,0.0,0.0,0.0,0.0,0.0,0.0,0.0,0.0,0.0,0.0,0.0,-0.8223,-0.8021,-0.7621,-0.6623,-0.8326,-0.9232,-0.8131,-0.9179,-0.9892,-0.9892,-1.0071,-1.018,-1.018,-1.0355,-1.0646,-1.1253,-1.1663,-1.1968,-1.2267,-1.2845,-1.2964,-1.2621,-1.2969,-1.3197,-1.34,-1.34,-1.3504,-1.3688,-1.3688,-1.358,-1.3414,-1.3608,-1.3575,-1.34,-1.34,-1.34,-1.3424,-1.3618,-1.3688,-1.3688,-1.3688,-1.3688,-1.3688,-1.3688,-1.3688,-1.3693,-1.3698,-1.3698,-1.3703,-1.3707,-1.3707,-1.3755,-1.3967,-1.4019,-1.4071,-1.4265,-1.4312,-1.4312,-1.4317,-1.4322,-1.4383,-1.46,-1.4473,-1.4331,-1.4331,-1.4506,-1.4643,-1.4643,-1.4808,0.0,-1.4931,-1.4931,-1.4931,-1.4931,-1.4931,-1.4931,-1.4931,-1.4931,-1.4931,-1.4931,-1.4931,-1.4931,-1.4931,-1.4931,-1.5574,-1.6974,-1.9668,-2.1076,-2.1076,0.0,0.0,0.0,0.0,0.0,0.0,0.0,0.0,0.0,0.0,0.0,0.0,0.0,0.0,0.0,0.0,0.0,0.0,0.0,0.0,0.0,-0.9628,-0.9525,-0.9225,-0.9126,-0.9027,-0.8726,-0.9334,-0.971,-0.9404,-0.9871,-1.0087,-1.0087,-1.0588,-1.087,-1.0546,-1.1283,-1.1707,-1.1532,-1.2152,-1.251,-1.2709,-1.3068,-1.3372,-1.34,-1.3518,-1.3551,-1.3608,-1.3608,-1.3636,-1.3688,-1.3688,-1.3655,-1.3613,-1.3665,-1.3655,-1.3608,-1.3608,-1.3608,-1.3613,-1.367,-1.3688,-1.3688,-1.3688,-1.3688,-1.3688,-1.3688,-1.3688,-1.3717,-1.3873,-1.3925,-1.3953,-1.4099,-1.4137,-1.4156,-1.4213,-1.4227,-1.4241,-1.4298,-1.4312,-1.4355,-1.4511,-1.4544,-1.4605,-1.4813,-1.4804,-1.4761,-1.4761,-1.4813,-1.4851,-1.4851,-1.4898,0.0,-1.4931,-1.4931,-1.4931,-1.4931,-1.4931,-1.4931,-1.4931,-1.4931,-1.4931,-1.4931,-1.4931,-1.4931,-1.4931,-1.5824,-1.7109,-1.839,-2.0182,-2.1076,0.0,0.0,0.0,0.0,0.0,0.0,0.0,0.0,0.0,0.0,0.0,0.0,0.0,0.0,0.0,0.0,0.0,0.0,0.0,0.0,0.0,0.0,-0.9628,-0.9628,-0.9628,-0.9628,-0.9657,-0.9726,-0.9924,-1.0014,-0.9994,-1.0377,-1.0623,-1.0379,-1.1084,-1.1394,-1.1135,-1.1875,-1.2271,-1.2155,-1.2579,-1.2912,-1.3277,-1.3395,-1.3575,-1.3688,-1.3688,-1.3688,-1.3688,-1.3688,-1.3688,0.0,-1.3788,-1.3825,-1.383,-1.3915,-1.3948,0.0,0.0,0.0,0.0,0.0,-1.3825,-1.3835,-1.392,-1.3948,-1.3948,-1.3948,-1.3948,-1.3972,-1.4099,-1.4137,-1.4161,-1.4279,-1.4312,-1.4331,-1.4421,-1.4444,-1.4468,-1.4553,-1.4572,-1.4605,-1.4733,-1.4756,-1.4794,-1.4912,-1.4931,0.0,-1.4931,-1.4931,-1.4931,-1.4931,-1.4931,-1.4931,-1.4931,-1.4931,-1.4931,-1.4931,-1.4931,-1.4931,-1.4931,-1.4931,0.0,0.0,0.0,-1.5187,-1.5699,-1.7619,0.0,0.0,0.0,-2.1964,-2.1964,0.0,0.0,0.0,-2.2652,-2.2498,0.0,0.0,0.0,0.0,0.0,0.0,0.0,0.0,0.0,0.0,0.0,0.0,0.0,0.0,0.0,0.0,-0.9644,-0.9657,-0.9657,-0.9673,-0.9738,-0.9969,-1.0226,-1.0318,-1.0281,-1.0907,-1.1207,-1.0822,-1.1587,-1.2003,-1.1825,0.0,0.0,0.0,0.0,-1.3444,-1.3688,-1.3688,-1.3688,-1.3688,-1.3688,-1.3703,-1.3726,-1.3726,-1.374,-1.3769,-1.3962,-1.4048,-1.4057,-1.4237,-1.4312,-1.4274,-1.3901,-1.3759,-1.3783,-1.3977,-1.4048,-1.4071,-1.4251,0.0,0.0,-1.4312,-1.4312,-1.4317,-1.434,-1.435,-1.4355,-1.4374,-1.4378,-1.4426,-1.4615,-1.4666,-1.4714,-1.4889,-1.4931,-1.4931,-1.4931,-1.4931,-1.4931,-1.4931,-1.4931,-1.4931,-1.4931,-1.4931,-1.4931,-1.4931,-1.4931,-1.4931,-1.4931,-1.4931,-1.4931,-1.4931,0.0,0.0,-1.4931,-1.4931,-1.4931,-1.5187,-1.5318,-1.5954,-1.7361,-1.9795,-2.1202,-2.1328,-2.2473,-2.3106,-2.3106,-2.3106,-2.3106,-2.3106,-2.3106,-2.2952,0.0,0.0,0.0,0.0,0.0,0.0,0.0,0.0,0.0,0.0,0.0,0.0,0.0,0.0,0.0,-0.9628,-0.9742,-0.9936,-1.0134,-1.0268,-1.0322,-1.0201,-1.0564,-1.0873,-1.1124,-1.1551,-1.177,-1.1694,-1.2364,-1.2584,-1.2385,-1.3045,0.0,-1.315,-1.3426,-1.3688,-1.3688,-1.3688,-1.3688,-1.3688,0.0,0.0,-1.3948,-1.3948,-1.4038,-1.4194,-1.4232,-1.4255,-1.4255,-1.4293,-1.4312,-1.4303,-1.4222,-1.4189,-1.4194,-1.4237,-1.4255,-1.426,-1.4298,-1.4312,-1.4312,-1.4312,-1.4312,-1.4345,-1.452,-1.4572,0.0,-1.4766,-1.4813,-1.4822,-1.4865,-1.4874,-1.4884,-1.4922,-1.4931,-1.4931,-1.4931,-1.4931,-1.4931,-1.4931,-1.4931,-1.4931,-1.4931,-1.4931,-1.4931,-1.4931,-1.4931,-1.4931,-1.4931,-1.4931,-1.4931,-1.4931,-1.4931,-1.4931,-1.4931,-1.4931,-1.5313,-1.6467,-1.7625,-1.878,-2.0309,-2.0823,-2.1587,-2.2724,-2.2981,-2.3106,-2.3106,-2.3106,-2.3106,-2.3106,-2.3106,-2.3076,0.0,0.0,0.0,0.0,0.0,0.0,0.0,0.0,0.0,0.0,0.0,-0.9628,-0.9628,0.0,-0.9657,-0.9742,-0.9928,-1.0222,-1.0416,-1.0702,-1.0893,-1.0793,-1.1063,-1.1327,-1.1419,-1.2027,-1.2244,-1.1999,-1.2744,-1.3076,-1.2821,-1.3393,-1.3569,-1.3449,-1.3569,-1.3688,-1.3688,-1.3688,-1.3745,-1.3849,-1.3849,-1.3958,-1.4161,-1.4161,-1.4218,-1.4317,-1.4426,-1.4473,-1.4477,-1.4581,-1.4624,-1.4624,-1.4624,-1.4496,-1.4322,-1.443,-1.4473,-1.4487,-1.4586,-1.4624,-1.4624,-1.4624,-1.4624,-1.4643,-1.4752,-1.4785,-1.4804,-1.4907,-1.4931,-1.4931,-1.4931,-1.4931,-1.4931,-1.4931,-1.4931,-1.4931,-1.4931,-1.4931,-1.4931,-1.4931,-1.4931,-1.4931,-1.4931,-1.4931,-1.4931,-1.4931,-1.4931,-1.4931,-1.4931,-1.4931,-1.4969,-1.5073,-1.5082,-1.513,-1.5238,-1.5904,-1.6949,-1.8387,-1.9696,-2.0657,-2.1296,-2.1795,-2.2473,-2.3106,-2.3106,-2.3106,-2.3106,-2.3106,-2.3106,-2.3106,-2.3106,-2.323,0.0,0.0,0.0,0.0,0.0,0.0,0.0,0.0,-0.9628,-0.9628,-0.9628,-0.964,-0.9669,-0.9677,-0.9734,-1.001,-1.0272,-1.0557,-1.0819,-1.1221,-1.1451,-1.1558,-1.1666,-1.1742,-1.1827,-1.2474,-1.2683,-1.2418,-1.3091,-1.34,-1.3315,-1.3569,-1.3688,-1.3688,-1.3688,-1.3707,-1.375,-1.375,-1.3859,-1.4071,-1.4071,-1.4175,-1.4374,-1.4374,-1.4397,-1.444,-1.4615,-1.469,-1.4704,-1.4865,-1.4931,-1.4931,-1.4931,-1.4728,-1.4454,-1.4629,-1.469,-1.4714,-1.4879,-1.4931,-1.4931,-1.4931,-1.4931,-1.4931,-1.4931,-1.4931,-1.4931,-1.4931,-1.4931,-1.4931,-1.4931,-1.4931,-1.4931,-1.4931,-1.4931,-1.4931,-1.4931,-1.4931,-1.4931,-1.4931,-1.4931,-1.4931,-1.4931,-1.4931,-1.4931,-1.4931,-1.4931,-1.4945,-1.4983,-1.4993,-1.5068,-1.5276,-1.5295,-1.5371,-1.5545,-1.7167,-1.8764,-1.9833,-2.1346,-2.2127,-2.2127,-2.2921,-2.3296,-2.3296,-2.3296,-2.3296,-2.3296,-2.3296,-2.3267,-2.3333,-2.3392,-2.3481,-0.943,-0.9529,-0.9529,-0.9628,-0.9628,-0.9628,0.0,0.0,-0.9628,-0.9628,-0.9628,-0.9673,-0.9827,-0.9855,-1.0018,-1.041,-1.0687,-1.1018,-1.1464,-1.1742,-1.1969,-1.2299,-1.2077,-1.216,-1.2599,-1.2913,-1.3121,-1.3217,-1.3542,-1.3665,-1.3688,-1.3688,-1.3688,-1.3688,-1.3688,-1.3783,-1.3972,-1.3977,-1.4076,-1.4279,-1.4279,-1.4388,-1.4596,-1.4596,-1.4695,-1.4865,-1.4889,-1.4903,-1.4903,-1.4922,-1.4931,-1.4931,-1.4931,-1.4907,-1.4865,-1.4889,-1.4903,-1.4903,-1.4926,-1.4931,-1.4931,-1.4931,-1.4931,-1.4931,-1.4931,-1.4931,-1.4931,-1.4931,-1.4931,-1.4931,-1.4931,-1.4931,-1.4931,-1.4931,-1.4931,-1.4931,-1.4931,-1.4931,-1.4931,-1.4931,-1.4931,-1.4931,-1.4931,-1.4931,-1.4931,-1.4931,-1.4931,-1.4997,-1.5177,-1.52,-1.5281,-1.5498,-1.5522,-1.5531,-1.556,-1.8094,-1.9687,-1.982,-2.2318,-2.376,-2.376,-2.3991,-2.3976,-2.3976,-2.3976,-2.3976,-2.3976,-2.3976,-2.3951,-2.406,-2.4351,-2.4172,-0.9529,-0.9628,-0.9628,-0.9628,-0.9628,-0.9628,-0.9628,-0.9628,-0.9628,-0.9628,-0.9705,-0.9799,-0.9872,-1.0076,-1.0414,0.0,-1.1133,-1.1434,-1.1868,-1.2059,-1.2379,-1.2616,-1.2519,-1.2557,-1.2758,-1.3065,-1.3291,-1.3381,-1.3575,-1.3688,-1.3688,-1.3688,-1.3745,-1.3873,-1.3877,-1.3977,-1.4185,-1.4185,-1.4288,-1.4501,-1.4501,-1.4605,-1.4808,-1.4808,-1.4851,-1.4931,-1.4931,-1.4931,-1.4931,-1.4931,-1.4931,-1.4931,-1.4931,-1.4931,-1.4931,-1.4931,-1.4931,-1.4931,-1.4931,-1.4931,-1.4931,-1.4931,-1.4931,-1.4931,-1.4931,-1.4931,-1.4931,-1.4931,-1.4931,-1.4931,-1.4931,-1.4931,-1.4931,-1.4931,-1.4931,-1.4931,-1.4931,-1.4931,-1.4931,-1.4931,-1.4931,-1.4931,-1.4931,-1.503,-1.5106,-1.5106,-1.5106,-1.5182,-1.5394,-1.5422,-1.5503,-1.5711,-1.5848,-1.6604,-1.8369,-1.9603,-2.0971,-2.2734,-2.379,-2.4364,-2.4364,-2.4181,-2.4086,-2.4086,-2.4086,-2.4086,-2.4086,-2.4086,-2.4142,-2.4139,-2.4409,-2.4585,-0.9529,-0.9628,-0.9628,-0.9628,-0.9628,-0.9628,-0.9628,-0.9665,-0.9697,-0.9697,-0.9839,-0.9977,-1.0129,-1.046,-1.0826,-1.1121,-1.1581,-1.1864,-1.2174,-1.2421,-1.2611,-1.2824,-1.2904,-1.2942,-1.2942,-1.3211,-1.341,-1.3466,-1.3608,-1.3688,-1.3688,-1.3745,-1.3849,-1.4005,-1.4066,-1.4194,-1.4397,-1.4402,-1.4506,-1.4714,-1.4714,-1.4794,-1.4931,-1.4931,-1.4931,-1.4931,-1.4931,-1.4931,-1.4931,-1.4931,-1.4931,-1.4931,-1.4931,-1.4931,-1.4931,-1.4931,-1.4931,-1.4931,-1.4931,-1.4931,-1.4931,-1.4931,-1.4931,-1.4931,-1.4931,-1.4931,-1.4931,-1.4931,-1.4931,-1.4931,-1.4931,-1.4931,-1.4931,-1.4931,-1.4931,-1.4931,-1.4931,-1.4931,-1.4931,-1.4931,-1.4978,-1.5016,-1.5016,-1.5186,-1.5342,-1.5399,-1.5404,-1.5465,-1.5621,-1.5697,-1.5924,-1.648,-1.6782,-1.7845,-2.0322,-2.1032,-2.2147,-2.436,-2.4691,-2.4701,-2.4701,-2.4474,-2.4349,-2.4349,-2.4349,-2.4481,-2.4481,-2.4481,-2.4568,-2.4602,-2.496,-2.5344,-0.9628,-0.9628,-0.9628,-0.9628,-0.9628,-0.9628,-0.9628,-0.9758,-0.9876,-0.9876,-1.0026,-1.0314,-1.0814,-1.0852,-1.113,-1.1855,-1.1996,-1.2179,-1.2724,-1.2758,-1.2833,-1.3036,-1.3244,-1.3372,0.0,-1.3381,-1.3471,-1.3665,-1.3688,-1.3688,-1.3688,-1.3887,-1.4005,-1.401,-1.4199,-1.4407,-1.4619,-1.4624,-1.4728,-1.4922,-1.4922,-1.4926,-1.4931,-1.4931,-1.4931,-1.4931,-1.4931,-1.4931,-1.4931,-1.4931,-1.4931,-1.4931,-1.4931,-1.4931,-1.4931,-1.4931,-1.4931,-1.4931,-1.4931,-1.4931,-1.4931,-1.4931,-1.4931,-1.4931,-1.4931,-1.4931,-1.4931,-1.4931,-1.4931,-1.4931,-1.4931,-1.4931,-1.4931,-1.4931,-1.4931,-1.4931,-1.4931,-1.4931,-1.4931,-1.4931,-1.5092,-1.5224,-1.5224,-1.5404,-1.5616,-1.581,-1.5838,-1.5843,-1.5848,-1.6032,-1.6725,-1.8121,-1.8266,-1.8955,-2.0467,-2.1846,-2.2819,-2.2819,-2.421,-2.5037,-2.5037,-2.503,-2.503,-2.503,-2.503,-2.53,-2.5569,-2.5569,-2.5657,-2.599,-2.6472,-2.6581,-0.9628,-0.9628,-0.9628,-0.9628,-0.9628,-0.9657,-0.977,-0.9843,-0.992,-1.0042,-1.0217,-1.0363,-1.0531,-1.0961,-1.1494,-1.1669,-1.2234,-1.2571,-1.2758,-1.288,-1.3046,-1.3254,-1.3343,0.0,0.0,0.0,0.0,-1.3684,-1.3688,-1.375,-1.3896,-1.3972,-1.4137,-1.4416,-1.4487,-1.4624,-1.4832,-1.4832,-1.4865,-1.4931,-1.4931,-1.4931,-1.4931,-1.4931,-1.4931,-1.4931,-1.4931,-1.4931,-1.4931,-1.4931,-1.4931,-1.4931,-1.4931,-1.4931,-1.4931,-1.4931,-1.4931,-1.4931,-1.4931,-1.4931,-1.4931,-1.4931,-1.4931,-1.4931,-1.4931,-1.4931,-1.4931,-1.4931,-1.4931,-1.4931,-1.4931,-1.4931,-1.4931,-1.4931,-1.4931,-1.4931,-1.4931,-1.4931,-1.4974,-1.5106,-1.5186,-1.5276,-1.5422,-1.5621,-1.6239,-1.7426,-1.6767,-1.6075,-1.6075,-1.6972,-1.7856,-1.8412,-1.9228,-2.0467,-2.1984,-2.2539,-2.3236,-2.4217,-2.4774,-2.5059,-2.5059,-2.5322,-2.5464,-2.5464,-2.5599,-2.5869,-2.5869,-2.5869,-2.5943,-2.6096,-2.6478,-2.673,-0.9628,-0.9628,-0.9628,-0.9628,-0.9673,-0.9746,-0.986,-0.9985,-1.0115,-1.0233,-1.0404,-1.0526,-1.0741,-1.1272,-1.1704,-1.1995,-1.2455,-1.2819,-1.297,-1.3102,-1.3258,-1.3471,-1.3495,-1.3547,0.0,0.0,0.0,-1.3688,-1.3759,-1.3863,-1.4005,-1.4151,-1.4359,-1.4624,-1.4704,-1.4804,-1.4931,-1.4931,-1.4931,-1.4931,-1.4931,-1.4931,-1.4931,-1.4931,-1.4931,-1.4931,-1.4931,-1.4931,-1.4931,-1.4931,-1.4931,-1.4931,-1.4931,-1.4931,-1.4931,-1.4931,-1.4931,-1.4931,-1.4931,-1.4931,-1.4931,-1.4931,-1.4931,-1.4931,-1.4931,-1.4931,-1.4931,-1.4931,-1.4931,-1.4931,-1.4931,-1.4931,-1.4931,-1.4931,-1.4931,-1.4931,-1.4931,-1.4993,-1.5078,-1.5205,-1.5352,-1.5503,-1.5645,-1.5838,-1.6438,-1.7414,-1.7298,-1.7152,-1.7705,-1.8535,-1.9373,-1.9924,-2.0888,-2.199,-2.3515,-2.3652,-2.4074,-2.5052,-2.5059,-2.5059,-2.5059,-2.5329,-2.5464,-2.5599,-2.5869,-2.6003,-2.6264,-2.6264,-2.6406,-2.654,-2.68,-2.6934,-0.9628,-0.9632,-0.964,-0.964,-0.977,-0.99,-0.9908,-1.0184,-1.0436,-1.0444,-1.0578,-1.0916,0.0,0.0,-1.1867,-1.2637,-1.2791,-1.2937,-1.3334,-1.34,-1.3476,0.0,0.0,0.0,0.0,0.0,0.0,-1.3703,0.0,-1.4019,-1.4043,-1.4421,-1.4638,-1.4648,-1.4832,-1.4931,-1.4931,-1.4931,-1.4931,-1.4931,-1.4931,-1.4931,-1.4931,-1.4931,-1.4931,-1.4931,-1.4931,-1.4931,-1.4931,-1.4931,-1.4931,-1.4931,-1.4931,-1.4931,-1.4931,-1.4931,-1.4931,-1.4931,-1.4931,-1.4931,-1.4931,-1.4931,-1.4931,-1.4931,-1.4931,-1.4931,-1.4931,-1.4931,-1.4931,-1.4931,-1.4931,-1.4931,-1.4931,-1.4931,-1.4931,-1.4936,-1.4945,-1.5096,-1.5238,-1.5262,-1.5593,-1.6015,-1.5876,-1.6187,-1.6461,-1.632,-1.7575,-1.9094,-2.0328,-2.0599,-2.1289,-2.2682,-2.2819,-2.3515,-2.4916,-2.5059,-2.5059,-2.5059,-2.5059,-2.5059,-2.5059,-2.5059,-2.5329,-2.5599,-2.5599,-2.5996,-2.6658,-2.6658,-2.6934,-2.72,-2.72,-2.72,-0.9628,-0.9721,-0.9819,-0.9819,-0.9957,-1.0128,-1.0266,-1.0367,-1.0473,-1.0599,-1.0769,-1.1063,0.0,0.0,0.0,-1.2611,-1.3011,0.0,-1.3377,-1.3518,0.0,-1.3684,0.0,-1.3688,-1.3688,-1.3688,0.0,0.0,-1.3981,-1.4147,-1.4459,-1.4577,-1.47,-1.4851,-1.4907,-1.4931,-1.4931,-1.4931,-1.4931,-1.4931,-1.4931,-1.4931,-1.4931,-1.4931,-1.4931,-1.4931,-1.4931,-1.4931,-1.4931,-1.4931,-1.4931,-1.4931,-1.4931,-1.4931,-1.4931,-1.4931,-1.4931,-1.4931,-1.4931,-1.4931,-1.4931,-1.4931,-1.4931,-1.4931,-1.4931,-1.4931,-1.4931,-1.4931,-1.4931,-1.4931,-1.4931,-1.4931,-1.4931,-1.4931,-1.4931,-1.4974,-1.512,-1.5196,-1.5323,-1.564,-1.6877,-1.7347,-1.638,-1.7938,-1.9089,-1.7991,-2.0063,-2.1026,-1.9234,-2.0888,-2.2402,-2.2819,-2.3795,-2.4638,-2.5059,-2.5059,-2.5059,-2.5059,-2.5059,-2.5059,-2.5059,-2.5329,-2.5464,-2.5599,-2.613,-2.6532,-2.6658,-2.6934,-2.7067,-2.72,-2.72,-2.72,-0.9917,-0.9911,-0.9904,-1.019,-1.0352,-1.0522,-1.0625,-1.0708,-1.0791,-1.1,-1.1198,-1.1398,-1.1733,-1.2158,-1.2507,0.0,0.0,0.0,-1.3509,-1.3618,-1.3688,0.0,-1.3688,0.0,-1.3821,-1.383,-1.3958,0.0,-1.4194,-1.4284,-1.4615,-1.4714,-1.4818,-1.4931,-1.4931,-1.4931,-1.4931,-1.4931,-1.4931,-1.4931,-1.4931,-1.4931,-1.4931,-1.4931,-1.4931,-1.4931,0.0,-1.4931,-1.4931,-1.4931,-1.4931,-1.4931,-1.4931,-1.4931,-1.4931,-1.4931,-1.4931,-1.4931,-1.4931,-1.4931,-1.4931,-1.4931,-1.4931,-1.4931,-1.4931,-1.4931,-1.4931,-1.4931,-1.4931,-1.4931,-1.4931,-1.4931,-1.4955,-1.5044,-1.5063,-1.512,-1.5333,-1.5976,-1.6812,-1.7707,-1.8716,-1.9089,-1.8261,-1.9495,-2.0328,-1.9507,-2.1302,-2.2265,-2.0479,-2.2415,-2.3795,-2.3795,-2.4631,-2.5059,-2.5059,-2.5059,-2.5059,-2.5059,-2.5059,-2.5194,-2.5322,-2.5329,-2.5592,-2.613,-2.6264,-2.6532,-2.6934,-2.7067,-2.72,-2.72,-2.72,-2.72,-1.0239,-1.0103,-1.0067,-1.0568,-1.0864,-1.0902,-1.101,-1.1129,-1.1244,-1.1603,-1.1633,-1.1656,-1.2271,-1.2529,-1.2827,-1.3395,0.0,-1.349,-1.3665,-1.3688,-1.3688,-1.3688,-1.3688,-1.3773,-1.3991,-1.401,-1.4185,-1.46,-1.4459,-1.4449,-1.4662,-1.4837,-1.4931,-1.4931,-1.4931,-1.4931,-1.4931,-1.4931,-1.4931,-1.4931,-1.4931,-1.4931,-1.4931,-1.4931,-1.4931,-1.4931,0.0,0.0,-1.4931,-1.4931,-1.4931,-1.4931,-1.4931,-1.4931,-1.4931,-1.4931,-1.4931,-1.4931,-1.4931,-1.4931,-1.4931,-1.4931,-1.4931,-1.4931,-1.4931,-1.4931,-1.4931,-1.4931,-1.4931,-1.4931,-1.4931,-1.4955,-1.5016,-1.5191,-1.5386,-1.5601,-1.5822,-1.7249,-1.8826,-2.0281,-2.0737,-2.0876,-2.0599,-2.0882,-2.1158,-2.0876,-2.2127,-2.3099,-2.3099,-2.4217,-2.5059,-2.5059,-2.5059,-2.5059,-2.5059,-2.5059,-2.5059,-2.5059,-2.5059,-2.5194,-2.5464,-2.5329,-2.5592,-2.6525,-2.6264,-2.654,-2.7067,-2.72,-2.72,-2.72,-2.72,-2.72,-1.0339,-1.0403,-1.0573,-1.108,-1.1164,-1.1193,-1.1411,-1.1546,0.0,-1.1784,-1.1957,-1.2303,-1.2753,-1.3077,-1.34,-1.3603,-1.3636,-1.3651,-1.3684,-1.3688,-1.3688,0.0,-1.3688,-1.3773,-1.3991,-1.401,0.0,0.0,0.0,-1.4666,-1.487,-1.4912,-1.4931,-1.4931,-1.4931,-1.4931,-1.4931,-1.4931,-1.4931,-1.4931,-1.4931,-1.4931,-1.4931,-1.4931,-1.4931,-1.4931,-1.4931,0.0,-1.4931,-1.4931,-1.4931,-1.4931,-1.4931,-1.4931,-1.4931,-1.4931,-1.4931,-1.4931,-1.4931,-1.4931,-1.4931,-1.4931,-1.4931,-1.4931,-1.4931,-1.4931,-1.4931,-1.4931,-1.4931,-1.4931,-1.4931,-1.5054,-1.5191,-1.5224,-1.6295,-1.7432,-1.7665,-1.8986,-2.0269,-2.0593,-2.1571,-2.1984,-2.0876,-2.2689,-2.3938,-2.2539,-2.3659,-2.4638,-2.4638,-2.4916,-2.5059,-2.5059,-2.5059,-2.5059,-2.5059,-2.5059,-2.5059,-2.5059,-2.5059,-2.5194,-2.5194,-2.5464,-2.5599,-2.5727,-2.6264,-2.6658,-2.68,-2.7067,-2.72,-2.72,-2.72,-2.72,-1.0897,-1.0889,-1.1089,-1.1603,-1.1611,-1.1568,-1.1787,-1.1867,0.0,-1.2297,-1.2484,-1.2689,-1.3114,-1.3353,-1.3575,-1.3674,-1.3688,-1.3688,-1.3688,-1.3688,-1.3688,-1.3688,-1.3688,-1.3816,0.0,-1.4166,0.0,0.0,0.0,-1.4832,-1.4926,-1.4931,-1.4931,-1.4931,-1.4931,-1.4931,-1.4931,-1.4931,-1.4931,-1.4931,-1.4931,-1.4931,-1.4931,-1.4931,-1.4931,-1.4931,-1.4931,0.0,-1.4931,-1.4931,-1.4931,-1.4931,-1.4931,-1.4931,-1.4931,-1.4931,-1.4931,-1.4931,-1.4931,-1.4931,-1.4931,-1.4931,-1.4931,-1.4931,-1.4931,-1.4931,-1.4931,-1.4931,-1.4931,-1.4959,-1.5063,-1.5158,-1.5419,-1.6441,-1.8015,-1.9449,-2.0394,-2.1202,-2.1984,-2.2826,-2.3515,-2.3795,-2.3099,-2.4081,-2.4916,-2.4074,-2.4631,-2.5059,-2.5059,-2.5059,-2.5059,-2.5059,-2.5059,-2.5059,-2.5059,-2.5059,-2.5059,-2.5059,-2.5059,-2.5194,-2.5329,-2.5329,-2.5592,-2.613,-2.6264,-2.6532,-2.6934,-2.7067,-2.72,-2.72,-2.72,-2.72,-1.1408,-1.1379,-1.155,-1.1955,-1.2005,-1.2019,-1.2169,-1.2307,-1.2455,-1.288,-1.2929,-1.3048,-1.3447,-1.358,-1.3688,-1.3688,-1.3688,-1.3688,-1.3688,-1.3688,-1.3688,0.0,-1.3731,0.0,-1.4274,-1.4355,0.0,0.0,0.0,0.0,-1.4931,-1.4931,-1.4931,-1.4931,-1.4931,-1.4931,-1.4931,-1.4931,-1.4931,-1.4931,-1.4931,-1.4931,-1.4931,-1.4931,-1.4931,-1.4931,-1.4931,0.0,0.0,-1.4931,-1.4931,-1.4931,-1.4931,-1.4931,-1.4931,-1.4931,-1.4931,-1.4931,-1.4931,-1.4931,-1.4931,-1.4931,-1.4931,-1.4931,-1.4931,-1.4931,-1.4931,-1.4931,-1.4964,-1.503,-1.5191,-1.53,-1.5861,-1.815,-1.9904,-2.1433,-2.2956,-2.3236,-2.3659,-2.4909,-2.5059,-2.5059,-2.5059,-2.5059,-2.5059,-2.5059,-2.5059,-2.5059,-2.5059,-2.5059,-2.5059,-2.5059,-2.5059,-2.5059,-2.5059,-2.5059,-2.5059,-2.5059,-2.5194,-2.5329,-2.5599,-2.5457,-2.5861,-2.6658,-2.6406,-2.6674,-2.72,-2.72,-2.72,-2.7208,-2.7459,-2.7592,-1.1581,-1.17,-1.1763,-1.2281,-1.2219,-1.2165,-1.258,-1.2753,-1.2876,-1.3254,-1.3362,-1.3443,-1.3627,-1.3674,-1.3688,-1.3688,-1.3688,-1.3688,-1.3688,-1.3688,-1.3688,-1.3688,0.0,0.0,-1.4288,-1.4492,0.0,0.0,0.0,0.0,-1.4931,-1.4931,-1.4931,-1.4931,-1.4931,-1.4931,-1.4931,-1.4931,-1.4931,-1.4931,-1.4931,-1.4931,-1.4931,-1.4931,-1.4931,-1.4931,-1.4931,0.0,0.0,-1.4931,-1.4931,-1.4931,-1.4931,-1.4931,-1.4931,-1.4931,-1.4931,-1.4931,-1.4931,-1.4931,-1.4931,-1.4931,-1.4931,-1.4931,-1.4931,-1.4931,-1.4931,-1.4931,-1.5063,-1.521,-1.5229,-1.5517,-1.654,-1.9669,-2.1552,-2.2963,-2.4495,-2.4909,-2.4916,-2.5059,-2.5059,-2.5059,-2.5059,-2.5059,-2.5059,-2.5059,-2.5059,-2.5059,-2.5059,-2.5059,-2.5059,-2.5059,-2.5059,-2.5059,-2.5059,-2.5059,-2.5059,-2.5059,-2.5329,-2.5599,-2.5599,-2.6264,-2.6658,-2.6658,-2.6934,-2.7067,-2.72,-2.72,-2.72,-2.72,-2.8493,-2.9142,-1.1847,-1.2014,-1.2121,-1.2309,-1.2332,-1.2388,-1.272,-1.2862,-1.3032,-1.3329,-1.3485,-1.3594,-1.3674,-1.3688,-1.3688,-1.3688,-1.3688,-1.3688,-1.3688,-1.3802,-1.3835,-1.3703,-1.3986,0.0,0.0,0.0,0.0,0.0,0.0,0.0,-1.4931,-1.4931,-1.4931,-1.4931,-1.4931,-1.4931,-1.4931,-1.4931,-1.4931,-1.4931,-1.4931,-1.4931,-1.4931,-1.4931,-1.4931,-1.4931,-1.4931,0.0,0.0,-1.4931,-1.4931,-1.4931,-1.4931,-1.4931,-1.4931,-1.4931,-1.4931,-1.4931,-1.4931,-1.4931,-1.4931,-1.4931,-1.4931,-1.4931,-1.4931,-1.4931,-1.4959,-1.5082,-1.5172,-1.529,-1.5545,-1.7184,-1.9231,-2.1408,-2.3099,-2.4353,-2.4916,-2.5059,-2.5059,-2.5059,-2.5059,-2.5059,-2.5059,-2.5059,-2.5059,-2.5059,-2.5059,-2.5059,-2.5059,-2.5059,-2.5059,-2.5059,-2.5059,-2.5059,-2.5059,-2.5329,-2.5464,-2.5464,-2.5734,-2.5869,-2.5869,-2.6138,-2.6398,-2.6658,-2.68,-2.7067,-2.72,-2.72,-2.72,-2.72,-2.8625,-2.9273,-1.2172,-1.2332,-1.2441,-1.2441,-1.2488,-1.2592,-1.2805,-1.3013,-1.3225,-1.3433,-1.3589,-1.3688,-1.3688,-1.3688,-1.3688,-1.3688,-1.3688,-1.3688,-1.3688,-1.3873,-1.3953,-1.3802,0.0,0.0,0.0,0.0,0.0,0.0,0.0,0.0,0.0,-1.4931,-1.4931,-1.4931,-1.4931,-1.4931,-1.4931,-1.4931,-1.4931,-1.4931,-1.4931,-1.4931,-1.4931,-1.4931,-1.4931,-1.4931,0.0,0.0,0.0,-1.4931,-1.4931,-1.4931,-1.4931,-1.4931,-1.4931,-1.4931,-1.4931,-1.4931,-1.4931,-1.4931,-1.4931,-1.4931,-1.4931,-1.4931,-1.4931,-1.4931,-1.4974,-1.5177,-1.5586,-1.6165,-1.6545,-1.8955,-2.1571,-2.2539,-2.3938,-2.5059,-2.5059,-2.5059,-2.5059,-2.5059,-2.5059,-2.5059,-2.5059,-2.5059,-2.5059,-2.5059,-2.5059,-2.5059,-2.5059,-2.5059,-2.5187,-2.5194,-2.5194,-2.5187,-2.5194,-2.5464,-2.5599,-2.5734,-2.6138,-2.6272,-2.6272,-2.6406,-2.654,-2.6792,-2.68,-2.6934,-2.72,-2.72,-2.7467,-2.7849,-2.9265,-3.0298,-1.238,-1.2436,-1.2441,-1.2441,-1.2602,-1.2819,-1.3017,-1.323,-1.3443,-1.3646,-1.3688,-1.3688,-1.3688,-1.3688,-1.3688,-1.3688,-1.3688,-1.3688,-1.3688,-1.3873,-1.401,0.0,0.0,0.0,0.0,0.0,0.0,0.0,0.0,0.0,0.0,-1.4931,-1.4931,-1.4931,-1.4931,-1.4931,-1.4931,-1.4931,-1.4931,-1.4931,-1.4931,-1.4931,-1.4931,-1.4931,-1.4931,0.0,0.0,0.0,0.0,-1.4931,-1.4931,-1.4931,-1.4931,-1.4931,-1.4931,-1.4931,-1.4931,-1.4931,-1.4931,-1.4931,-1.4931,-1.4931,-1.4931,-1.4931,-1.4931,-1.4931,-1.4974,-1.5177,-1.6601,-1.8089,-1.8342,-2.0611,-2.2819,-2.2819,-2.3938,-2.5059,-2.5059,-2.5059,-2.5059,-2.5059,-2.5059,-2.5059,-2.5059,-2.5059,-2.5059,-2.5059,-2.5059,-2.5059,-2.5059,-2.5059,-2.5194,-2.5599,-2.5329,-2.5194,-2.5599,-2.5599,-2.5734,-2.6003,-2.6532,-2.6658,-2.6658,-2.7067,-2.72,-2.72,-2.72,-2.72,-2.72,-2.72,-2.7981,-2.9265,-3.0669,-3.2727,-1.2384,-1.2441,-1.2441,-1.2441,-1.2606,-1.2819,-1.3022,-1.3235,-1.3447,-1.3646,-1.3688,-1.3688,-1.3688,-1.3688,-1.3688,-1.3688,-1.3688,-1.3688,-1.3688,0.0,0.0,-1.3807,-1.4161,0.0,0.0,0.0,0.0,0.0,0.0,0.0,0.0,-1.4931,-1.4931,-1.4931,-1.4931,-1.4931,-1.4931,-1.4931,-1.4931,-1.4931,-1.4931,-1.4931,-1.4931,-1.4931,0.0,0.0,0.0,0.0,0.0,-1.4931,-1.4931,-1.4931,-1.4931,-1.4931,-1.4931,-1.4931,-1.4931,-1.4931,-1.4931,-1.4931,-1.4931,-1.4931,-1.4931,-1.5086,-1.6267,-1.5923,-1.5343,-1.6766,-1.8446,-2.0083,-2.1139,-2.2127,-2.3099,-2.4074,-2.4774,-2.5059,-2.5059,-2.5059,-2.5059,-2.5059,-2.5059,-2.5059,-2.5059,-2.5059,-2.5059,-2.5059,-2.5059,-2.5059,-2.5059,-2.5329,-2.5464,-2.5599,-2.5734,-2.5869,-2.5869,-2.6003,-2.6138,-2.6532,-2.68,-2.7067,-2.7067,-2.72,-2.72,-2.72,-2.72,-2.72,-2.72,-2.72,-2.8362,-3.0678,-3.2091,-3.3631,-1.2403,-1.2441,-1.2441,-1.2441,-1.2663,-1.2913,-1.3041,-1.3291,-1.3537,-1.3665,-1.3688,-1.3688,-1.3688,-1.3688,-1.3688,-1.3688,-1.3688,-1.3688,0.0,0.0,0.0,-1.4043,0.0,0.0,0.0,0.0,0.0,0.0,0.0,0.0,0.0,-1.4931,-1.4931,-1.4931,-1.4931,-1.4931,-1.4931,-1.4931,-1.4931,-1.4931,-1.4931,-1.4931,-1.4931,-1.4931,0.0,0.0,0.0,0.0,0.0,-1.4931,-1.4931,-1.4931,-1.4931,-1.4931,-1.4931,-1.4931,-1.4931,-1.4931,-1.5574,-1.5313,-1.4931,-1.5574,-1.5758,-1.6272,-1.8034,-1.7866,-1.7389,-1.8636,-2.0132,-2.1709,-2.2545,-2.3236,-2.3931,-2.4916,-2.5059,-2.5059,-2.5059,-2.5059,-2.5059,-2.5059,-2.5059,-2.5059,-2.5059,-2.5059,-2.5059,-2.5059,-2.5194,-2.5329,-2.5329,-2.5599,-2.5869,-2.5996,-2.6138,-2.6272,-2.654,-2.6406,-2.6532,-2.68,-2.7067,-2.72,-2.72,-2.72,-2.72,-2.72,-2.72,-2.72,-2.72,-2.823,-2.99,-3.2091,-3.3505,-3.4652,0.0,-1.2441,-1.2441,-1.2441,-1.2758,-1.3065,-1.3065,-1.3391,0.0,-1.3688,-1.3688,-1.3688,-1.3688,-1.3688,-1.3688,-1.3688,-1.3688,-1.3688,0.0,-1.3863,0.0,0.0,0.0,0.0,0.0,0.0,0.0,0.0,0.0,0.0,0.0,-1.4931,-1.4931,-1.4931,-1.4931,-1.4931,-1.4931,-1.4931,-1.4931,-1.4931,-1.4931,-1.4931,-1.4931,-1.4931,0.0,0.0,0.0,0.0,0.0,-1.4931,-1.4931,-1.4931,-1.4931,-1.4931,-1.4931,-1.4931,-1.4931,-1.5187,-1.6597,-1.6213,-1.5448,-1.6742,-1.7424,-1.81,-1.9927,-2.049,-2.0496,-2.0515,-2.1654,-2.2956,-2.2956,-2.4074,-2.5059,-2.5059,-2.5059,-2.5059,-2.5059,-2.5059,-2.5059,-2.5059,-2.5059,-2.5059,-2.5059,-2.5059,-2.5059,-2.5059,-2.5329,-2.5599,-2.5599,-2.5869,-2.6272,-2.6658,-2.6406,-2.6406,-2.72,-2.6934,-2.6792,-2.72,-2.72,-2.72,-2.72,-2.72,-2.72,-2.72,-2.7334,-2.7467,-2.7459,-3.016,-3.2091,-3.3379,-3.4787,-3.5418,-1.2441,0.0,-1.2441,-1.2441,-1.2758,-1.3065,0.0,-1.3391,-1.3688,-1.3688,-1.3688,-1.3688,-1.3688,-1.3688,-1.3688,-1.3688,-1.3688,-1.3688,-1.3688,0.0,0.0,0.0,0.0,0.0,0.0,0.0,0.0,0.0,0.0,0.0,0.0,-1.4931,-1.4931,-1.4931,-1.4931,-1.4931,-1.4931,-1.4931,-1.4931,-1.4931,-1.4931,-1.4931,-1.4931,-1.4931,0.0,0.0,0.0,0.0,-1.4931,-1.4931,-1.4931,-1.4931,-1.4931,-1.4931,-1.4931,-1.4931,-1.5574,-1.6597,-1.685,-1.7496,-1.8173,-1.8753,-1.9775,-2.1121,-2.1743,-2.1988,-2.2034,-2.2108,-2.3324,-2.4495,-2.4495,-2.4774,-2.5059,-2.5059,-2.5059,-2.5059,-2.5059,-2.5059,-2.5059,-2.5059,-2.5059,-2.5059,-2.5059,-2.5059,-2.5059,-2.5059,-2.5329,-2.5599,-2.5599,-2.613,-2.6666,-2.6666,-2.68,-2.7075,-2.7208,-2.6934,-2.6792,-2.72,-2.72,-2.72,-2.72,-2.72,-2.72,-2.72,-2.8238,-2.9265,-3.0281,-3.2091,-3.3117,-3.3379,-3.4787,-3.5418,-1.2441,-1.2441,-1.2441,-1.2441,-1.2758,-1.3065,-1.3065,-1.3391,-1.3688,-1.3688,-1.3688,-1.3688,-1.3688,-1.3688,-1.3688,-1.3688,-1.3688,0.0,0.0,0.0,0.0,0.0,0.0,0.0,0.0,0.0,0.0,0.0,0.0,0.0,0.0,-1.4931,-1.4931,-1.4931,-1.4931,-1.4931,-1.4931,-1.4931,-1.4931,-1.4931,-1.4931,-1.4931,-1.4931,-1.4931,-1.4931,0.0,0.0,0.0,-1.4931,-1.4931,-1.4931,-1.4931,-1.4931,-1.5318,-1.5829,-1.5829,-1.6726,-1.8005,-1.8646,-1.9493,-2.0297,-2.0577,-2.1384,-2.2344,-2.3461,-2.3693,-2.3728,-2.3753,-2.4495,-2.5059,-2.5059,-2.5059,-2.5059,-2.5059,-2.5059,-2.5059,-2.5059,-2.5059,-2.5059,-2.5059,-2.5059,-2.5059,-2.5059,-2.5059,-2.5059,-2.5059,-2.5464,-2.5869,-2.5869,-2.6532,-2.6934,-2.6934,-2.7067,-2.72,-2.72,-2.7067,-2.7067,-2.72,-2.72,-2.72,-2.72,-2.72,-2.7459,-2.8106,-2.9526,-3.0936,-3.2218,-3.299,-3.3766,-3.4403,-3.5036,-3.5418,-1.2441,-1.2441,-1.2441,-1.2441,-1.2734,-1.3032,-1.306,-1.3367,-1.3651,-1.3679,-1.3688,-1.3688,-1.3688,-1.3688,0.0,-1.3688,0.0,0.0,0.0,0.0,0.0,0.0,0.0,0.0,0.0,0.0,0.0,0.0,0.0,0.0,0.0,-1.4931,-1.4931,-1.4931,-1.4931,-1.4931,-1.4931,-1.4931,-1.4931,-1.4931,-1.4931,-1.4931,-1.4931,-1.4931,-1.4931,0.0,0.0,0.0,-1.4931,-1.5187,-1.5187,-1.5187,-1.5448,-1.6213,-1.7367,-1.7367,-1.8133,-1.9546,-2.0949,-2.1658,-2.1957,-2.2257,-2.2556,-2.313,-2.468,-2.5059,-2.5059,-2.5059,-2.5059,-2.5059,-2.5059,-2.5059,-2.5059,-2.5059,-2.5059,-2.5059,-2.5059,-2.5059,-2.5059,-2.5059,-2.5059,-2.5059,-2.5059,-2.5059,-2.5059,-2.5059,-2.5734,-2.6138,-2.6138,-2.6808,-2.72,-2.72,-2.72,-2.72,-2.72,-2.72,-2.7334,-2.7459,-2.7334,-2.7334,-2.7459,-2.7459,-2.8238,-2.9909,-3.1065,-3.2346,-3.3757,-3.3757,-3.4268,-3.5418,-3.5418,-3.5418,-1.2441,-1.2441,-1.2441,-1.2441,-1.263,-1.2857,-1.3027,-1.3258,-1.3485,-1.3655,-1.3688,-1.3688,-1.3688,-1.3688,-1.3688,0.0,0.0,0.0,0.0,0.0,0.0,0.0,0.0,0.0,0.0,0.0,0.0,0.0,0.0,0.0,0.0,-1.4931,-1.4931,-1.4931,-1.4931,-1.4931,-1.4931,-1.4931,-1.4931,-1.4931,-1.4931,-1.4931,-1.4931,-1.4931,-1.4931,0.0,0.0,-1.4931,-1.4931,-1.6213,-1.6721,-1.685,-1.7882,-1.8524,-1.8652,-1.8652,-1.9546,-2.0949,-2.2348,-2.3066,-2.3391,-2.371,-2.4036,-2.4354,-2.4957,-2.5059,-2.5059,-2.5059,-2.5059,-2.5059,-2.5059,-2.5059,-2.5059,-2.5059,-2.5059,-2.5059,-2.5059,-2.5059,-2.5059,-2.5059,-2.5059,-2.5059,-2.5059,-2.5059,-2.5059,-2.5059,-2.5734,-2.6138,-2.6138,-2.6808,-2.72,-2.72,-2.72,-2.72,-2.72,-2.72,-2.7716,-2.888,-2.7849,-2.7716,-2.888,-2.9011,-3.0169,-3.2737,-3.299,-3.3757,-3.5036,-3.5036,-3.517,-3.5418,-3.5418,-3.5418,-1.2441,-1.2441,-1.2441,-1.2441,-1.2606,-1.2791,-1.2885,-1.3154,-1.3414,-1.3509,-1.3613,-1.3688,0.0,0.0,-1.3688,-1.3688,0.0,0.0,0.0,0.0,0.0,0.0,0.0,0.0,0.0,0.0,0.0,0.0,0.0,0.0,0.0,0.0,-1.4931,-1.4931,-1.4931,-1.4931,-1.4931,-1.4931,-1.4931,-1.4931,-1.4931,-1.4931,-1.4931,-1.4931,-1.5318,-1.6084,0.0,-1.6473,-1.7114,-1.7748,-1.8139,-1.8139,-1.878,-1.9419,-2.0182,-2.0943,-2.158,-2.2223,-2.2856,-2.3435,-2.3881,-2.4035,-2.4423,-2.4862,-2.5008,-2.5059,-2.5059,-2.5059,-2.5059,-2.5059,-2.5059,-2.5059,-2.5059,-2.5059,-2.5059,-2.5059,-2.5059,-2.5059,-2.5059,-2.5059,-2.5059,-2.5059,-2.5059,-2.5059,-2.5059,-2.5059,-2.5734,-2.6138,-2.6138,-2.6808,-2.72,-2.72,-2.72,-2.72,-2.72,-2.7849,-2.8625,-2.9273,-2.9395,-2.9648,-3.029,-3.1065,-3.2091,-3.3379,-3.4143,-3.4787,-3.5418,-3.5418,-3.5418,-3.5418,-3.5418,-3.5418,-1.2441,-1.2441,-1.2441,-1.2441,-1.2564,-1.2706,-1.2758,-1.3013,-1.3273,-1.3372,-1.3514,0.0,0.0,-1.3688,0.0,-1.3688,0.0,0.0,0.0,0.0,0.0,0.0,0.0,0.0,0.0,0.0,0.0,0.0,0.0,0.0,0.0,0.0,-1.4884,-1.4931,-1.4931,-1.4931,-1.4931,-1.5187,-1.5187,-1.4931,-1.4931,-1.4931,-1.4931,-1.5187,-1.5954,-1.6974,-1.7361,-1.8005,-1.9036,-1.9419,-1.9546,-1.9546,-1.9801,-2.0563,-2.1713,-2.2724,-2.3106,-2.3106,-2.3106,-2.3537,-2.4086,-2.4086,-2.4525,-2.5059,-2.5059,-2.5059,-2.5059,-2.5059,-2.5059,-2.5059,-2.5059,-2.5059,-2.5059,-2.5059,-2.5059,-2.5059,-2.5059,-2.5059,-2.5059,-2.5059,-2.5059,-2.5059,-2.5059,-2.5059,-2.5194,-2.5194,-2.5734,-2.6138,-2.6272,-2.68,-2.72,-2.72,-2.72,-2.7334,-2.7724,-2.9273,-3.0298,-3.0298,-3.0936,-3.1442,-3.1826,-3.2863,-3.3505,-3.3892,-3.4911,-3.5418,-3.5418,-3.5418,-3.5418,-3.5418,-3.5418,-3.5418,-1.2441,-1.2441,-1.2441,-1.2441,-1.245,-1.2517,-1.272,-1.2791,-1.2923,-1.331,-1.34,0.0,0.0,-1.3688,0.0,0.0,0.0,0.0,0.0,0.0,0.0,0.0,0.0,0.0,0.0,0.0,0.0,0.0,0.0,0.0,0.0,0.0,0.0,-1.4926,-1.4931,-1.4931,-1.4931,-1.6213,-1.6213,-1.4931,-1.4931,-1.4931,-1.4931,-1.6213,-1.685,-1.7109,-1.8267,-1.8908,-1.9036,-2.0436,-2.0949,-2.1076,-2.2348,-2.2856,-2.2981,-2.3106,-2.3106,-2.3106,-2.3106,-2.3537,-2.4086,-2.4086,-2.4525,-2.5059,-2.5059,-2.5059,-2.5059,-2.5059,-2.5059,-2.5059,-2.5059,-2.5059,-2.5059,-2.5059,-2.5059,-2.5059,-2.5059,-2.5059,-2.5059,-2.5059,-2.5059,-2.5059,-2.5059,-2.5059,-2.5194,-2.5464,-2.5869,-2.6272,-2.6666,-2.6934,-2.72,-2.72,-2.72,-2.7716,-2.9011,-3.1579,-3.3117,-3.3117,-3.1963,-3.1826,-3.3243,-3.3379,-3.4017,-3.5294,-3.5294,-3.5418,-3.5418,-3.5418,-3.5418,-3.5418,-3.5418,-3.5418,-1.2441,-1.2441,-1.2441,-1.2441,-1.2441,-1.246,-1.2545,-1.2668,-1.2847,-1.3131,-1.3296,0.0,0.0,0.0,0.0,0.0,0.0,0.0,0.0,0.0,0.0,0.0,0.0,0.0,0.0,0.0,0.0,0.0,0.0,0.0,0.0,0.0,0.0,-1.4742,-1.5505,-1.6075,-1.6208,-1.6721,-1.7109,-1.7496,-1.6597,-1.6208,-1.6213,-1.6721,-1.7871,-1.954,-2.0055,-2.0816,-2.158,-2.209,-2.2341,-2.2348,-2.2856,-2.3106,-2.3106,-2.3106,-2.3106,-2.3106,-2.3106,-2.3537,-2.4086,-2.4086,-2.4525,-2.5059,-2.5059,-2.5059,-2.5059,-2.5059,-2.5059,-2.5059,-2.5059,-2.5059,-2.5059,-2.5059,-2.5059,-2.5059,-2.5059,-2.5059,-2.5059,-2.5059,-2.5059,-2.5059,-2.5059,-2.5059,-2.5187,-2.5599,-2.5869,-2.6272,-2.6666,-2.6934,-2.72,-2.72,-2.7981,-2.9395,-3.1707,-3.2863,-3.3757,-3.4652,-3.4143,-3.4143,-3.4652,-3.4652,-3.4911,-3.5428,-3.5418,-3.5418,-3.5418,-3.5418,-3.5418,-3.5418,-3.5418,-3.5418,-1.2441,-1.2441,-1.2441,-1.2441,-1.2441,-1.2441,-1.2441,-1.2554,-1.272,-1.2928,-1.3197,-1.3452,-1.3651,0.0,0.0,0.0,0.0,0.0,0.0,0.0,0.0,0.0,0.0,0.0,0.0,0.0,0.0,0.0,0.0,0.0,0.0,0.0,0.0,0.0,-1.565,-1.626,-1.6861,-1.7246,-1.7797,-1.8396,-1.8262,-1.8005,-1.7625,-1.8133,-1.9279,-2.1076,-2.158,-2.2223,-2.3106,-2.3106,-2.3106,-2.3106,-2.3106,-2.3106,-2.3106,-2.3106,-2.3106,-2.3106,-2.3106,-2.3537,-2.4086,-2.4086,-2.4525,-2.5059,-2.5059,-2.5059,-2.5059,-2.5059,-2.5059,-2.5059,-2.5059,-2.5059,-2.5059,-2.5059,-2.5059,-2.5059,-2.5059,-2.5059,-2.5059,-2.5059,-2.5059,-2.5059,-2.5059,-2.5059,-2.5194,-2.5734,-2.6003,-2.6398,-2.7443,-2.7716,-2.7973,-2.8493,-2.9778,-3.1322,-3.3253,-3.3766,-3.4403,-3.5294,-3.5418,-3.5418,-3.5418,-3.5418,-3.5418,-3.5418,-3.5418,-3.5418,-3.5418,-3.5418,-3.5418,-3.5418,-3.5418,-3.5418,-1.2441,-1.2441,-1.2441,-1.2441,-1.2441,-1.2441,-1.2441,-1.2441,-1.2502,-1.2724,-1.3102,-1.3452,-1.3651,-1.3688,0.0,0.0,0.0,0.0,0.0,0.0,0.0,0.0,0.0,0.0,0.0,0.0,0.0,0.0,0.0,0.0,0.0,0.0,0.0,0.0,-1.5047,-1.5026,-1.6487,-1.7999,-1.8127,-1.7103,-1.9789,-2.0309,-1.9036,-2.0436,-2.1076,-2.1202,-2.2473,-2.3106,-2.3106,-2.3106,-2.3106,-2.3106,-2.3106,-2.3106,-2.3106,-2.3106,-2.3106,-2.3106,-2.3106,-2.3537,-2.4086,-2.4086,-2.4525,-2.5059,-2.5059,-2.5059,-2.5059,-2.5059,-2.5059,-2.5059,-2.5059,-2.5059,-2.5059,-2.5059,-2.5059,-2.5059,-2.5059,-2.5059,-2.5059,-2.5059,-2.5059,-2.5059,-2.5059,-2.5059,-2.5329,-2.6003,-2.6138,-2.6926,-2.9011,-2.9273,-2.9778,-3.1185,-3.261,-3.3379,-3.3379,-3.4652,-3.5418,-3.5418,-3.5418,-3.5418,-3.5418,-3.5418,-3.5418,-3.5418,-3.5418,-3.5418,-3.5418,-3.5418,-3.5418,-3.5418,-3.5418,-3.5418,-1.2441,-1.2441,0.0,-1.2441,0.0,0.0,0.0,-1.2441,-1.254,0.0,-1.3197,-1.3452,-1.3651,0.0,0.0,0.0,0.0,0.0,0.0,0.0,0.0,0.0,0.0,0.0,0.0,0.0,0.0,0.0,0.0,0.0,0.0,0.0,0.0,0.0,-1.7358,-1.7961,-1.7725,-1.8963,-2.0093,-2.1004,-2.0762,-2.0625,-2.0436,-2.0949,-2.1587,-2.2473,-2.2981,-2.3106,-2.3106,-2.3106,-2.3106,-2.3106,-2.3106,-2.3106,-2.3106,-2.3106,-2.3106,-2.3106,-2.3106,-2.3537,-2.4086,-2.4086,-2.4525,-2.5059,-2.5059,-2.5059,-2.5059,-2.5059,-2.5059,-2.5059,-2.5059,-2.5059,-2.5059,-2.5059,-2.5059,-2.5059,-2.5059,-2.5059,-2.5059,-2.5059,-2.5059,-2.5059,-2.5059,-2.5329,-2.5599,-2.6003,-2.7169,-2.8592,-3.0419,-3.0678,-3.1185,-3.261,-3.3117,-3.3757,-3.4787,-3.517,-3.5418,-3.5418,-3.5418,-3.5418,-3.5418,-3.5418,-3.5418,-3.5418,-3.5418,-3.5418,-3.5418,-3.5418,-3.5418,-3.5418,-3.5418,-3.5418,-1.2441,-1.2441,0.0,-1.2441,-1.2441,-1.2441,-1.2441,0.0,0.0,0.0,-1.324,-1.3452,-1.3651,0.0,0.0,0.0,0.0,0.0,0.0,0.0,0.0,0.0,0.0,0.0,0.0,0.0,0.0,0.0,0.0,0.0,0.0,0.0,0.0,0.0,-1.804,-1.8771,-1.8797,-1.9533,-2.0536,-2.1568,-2.1331,-2.1368,-2.1659,-2.1783,-2.2348,-2.3106,-2.3106,-2.3106,-2.3106,-2.3106,-2.3106,-2.3106,-2.3106,-2.3106,-2.3106,-2.3106,-2.3106,-2.3106,-2.3106,-2.3537,-2.4086,-2.4086,-2.4525,-2.5059,-2.5059,-2.5059,-2.5059,-2.5059,-2.5059,-2.5059,-2.5059,-2.5059,-2.5059,-2.5059,-2.5059,-2.5059,-2.5059,-2.5059,-2.5059,-2.5059,-2.5194,-2.5329,-2.5329,-2.5599,-2.5869,-2.6272,-2.8337,-3.0272,-3.1954,-3.26,-3.3243,-3.4143,-3.4143,-3.4528,-3.5294,-3.5418,-3.5418,-3.5418,-3.5418,-3.5418,-3.5418,-3.5418,-3.5418,-3.5418,-3.5418,-3.5418,-3.5418,-3.5418,-3.5418,-3.5418,-3.5418,-3.5418,-1.2441,-1.2441,-1.2441,-1.2441,-1.2441,0.0,-1.2465,-1.2639,-1.2847,-1.3032,0.0,-1.3452,0.0,0.0,0.0,0.0,0.0,0.0,0.0,0.0,0.0,0.0,0.0,0.0,0.0,0.0,0.0,0.0,0.0,0.0,0.0,0.0,0.0,0.0,-1.7677,-1.838,-1.9588,-1.9838,-1.9992,0.0,-2.1519,-2.2293,-2.2593,-2.2915,-2.3084,-2.3106,-2.3106,-2.3106,-2.3106,-2.3106,-2.3106,-2.3106,-2.3106,-2.3106,-2.3106,-2.3106,-2.3106,-2.3106,-2.3106,-2.3515,-2.4042,-2.4071,-2.4503,-2.5015,-2.5052,-2.5059,-2.5059,-2.5059,-2.5059,-2.5059,-2.5059,-2.5059,-2.5059,-2.5059,-2.5059,-2.5059,-2.5059,-2.5059,-2.5059,-2.5059,-2.5329,-2.5599,-2.5599,-2.5869,-2.6398,-2.7051,-2.9639,-3.1954,-3.3369,-3.4652,-3.5418,-3.5418,-3.5418,-3.5418,-3.5418,-3.5418,-3.5418,-3.5418,-3.5418,-3.5418,-3.5418,-3.5418,-3.5418,-3.5418,-3.5418,-3.5418,-3.5418,-3.5418,-3.5418,-3.5418,-3.5418,-3.5418,-1.2441,-1.2441,0.0,-1.2441,-1.2441,-1.2484,-1.2658,-1.2852,-1.3013,-1.3055,-1.324,0.0,0.0,0.0,0.0,0.0,0.0,0.0,0.0,0.0,0.0,0.0,0.0,0.0,0.0,0.0,0.0,0.0,0.0,0.0,0.0,0.0,0.0,-1.8855,-1.991,-2.006,-1.9412,-2.0361,-2.1002,0.0,-2.1678,-2.1972,-2.2286,-2.2593,-2.2864,-2.3106,-2.3106,-2.3106,-2.3106,-2.3106,-2.3106,-2.3106,-2.3106,-2.3106,-2.3106,-2.3106,-2.3106,-2.3106,-2.3106,-2.3369,-2.3742,-2.3998,-2.4349,-2.4723,-2.4979,-2.5059,-2.5059,-2.5059,-2.5059,-2.5059,-2.5059,-2.5059,-2.5059,-2.5059,-2.5059,-2.5059,-2.5059,-2.5059,-2.5059,-2.5059,-2.5329,-2.5599,-2.5599,-2.613,-2.7435,-2.9891,-3.1826,-3.3505,-3.4787,-3.517,-3.5418,-3.5418,-3.5418,-3.5418,-3.5418,-3.5418,-3.5418,-3.5418,-3.5418,-3.5418,-3.5418,-3.5418,-3.5418,-3.5418,-3.5418,-3.5418,-3.5418,-3.5418,-3.5418,-3.5418,-3.5418,-3.5418,-1.2441,-1.2441,0.0,-1.2569,0.0,-1.2649,-1.2862,-1.3069,-1.3221,-1.3221,0.0,0.0,0.0,0.0,0.0,0.0,0.0,0.0,0.0,0.0,0.0,0.0,0.0,0.0,0.0,0.0,0.0,0.0,0.0,0.0,0.0,-1.9557,-1.991,-1.9325,-2.05,-2.0859,-2.0263,-2.0852,-2.1298,-2.1467,-2.1467,-2.1635,-2.1964,-2.2418,-2.2718,-2.2886,-2.304,-2.3106,-2.3106,-2.3106,-2.3106,-2.3106,-2.3106,-2.3106,-2.3106,-2.3106,-2.3106,-2.3106,-2.3106,-2.3325,-2.3625,-2.3793,-2.4174,-2.4598,-2.4774,-2.4927,-2.5059,-2.5059,-2.5059,-2.5059,-2.5059,-2.5059,-2.5059,-2.5059,-2.5059,-2.5059,-2.5059,-2.5059,-2.5194,-2.5329,-2.5599,-2.6122,-2.6894,-2.8073,-2.9639,-3.1954,-3.299,-3.3882,-3.5294,-3.5418,-3.5418,-3.5418,-3.5418,-3.5418,-3.5418,-3.5418,-3.5418,-3.5418,-3.5418,-3.5418,-3.5418,-3.5418,-3.5418,-3.5418,-3.5418,-3.5418,-3.5418,-3.5418,-3.5418,-3.5418,-3.5418,-3.5418,-1.2441,-1.2465,-1.254,-1.272,-1.2791,0.0,-1.3079,-1.3258,-1.34,-1.3433,0.0,0.0,0.0,0.0,0.0,0.0,0.0,0.0,0.0,0.0,0.0,0.0,0.0,0.0,0.0,0.0,0.0,0.0,0.0,0.0,-1.815,-2.0033,-2.0737,-1.9679,-2.0622,-2.1211,-2.1211,-2.1211,-2.1211,-2.1211,-2.1211,-2.135,-2.1635,-2.2206,-2.2491,-2.2564,-2.2886,-2.3025,-2.3025,-2.3084,-2.3106,-2.3106,-2.3106,-2.3106,-2.3106,-2.3106,-2.3106,-2.3106,-2.3106,-2.3288,-2.3523,-2.3574,-2.3962,-2.4423,-2.454,-2.4759,-2.4986,-2.5037,-2.5059,-2.5059,-2.5059,-2.5059,-2.5059,-2.5059,-2.5059,-2.5059,-2.5059,-2.5194,-2.5329,-2.5599,-2.613,-2.7035,-2.8846,-3.0531,-3.2091,-3.3243,-3.3631,-3.4143,-3.5294,-3.5418,-3.5418,-3.5418,-3.5418,-3.5418,-3.5418,-3.5418,-3.5418,-3.5418,-3.5418,-3.5418,-3.5418,-3.5418,-3.5418,-3.5418,-3.5418,-3.5418,-3.5418,-3.5418,-3.5418,-3.5418,-3.5418,-3.5418,-1.2441,0.0,-1.2729,0.0,-1.2899,-1.3084,0.0,0.0,-1.3438,0.0,0.0,0.0,0.0,0.0,0.0,0.0,0.0,0.0,0.0,0.0,0.0,0.0,0.0,0.0,0.0,0.0,0.0,0.0,0.0,0.0,-2.0737,-2.0974,-2.1089,-2.0974,-2.1096,-2.1211,-2.1211,-2.1211,-2.1211,-2.1211,-2.1211,-2.1233,-2.1284,-2.1657,-2.1979,-2.2257,-2.2557,-2.2689,-2.271,-2.2988,-2.3106,-2.3106,-2.3106,-2.3106,-2.3106,-2.3106,-2.3106,-2.3106,-2.3106,-2.3135,-2.3223,-2.3501,-2.3654,-2.383,-2.4401,-2.4598,-2.4693,-2.4979,-2.5059,-2.5059,-2.5059,-2.5059,-2.5059,-2.5059,-2.5059,-2.5059,-2.5059,-2.5329,-2.5599,-2.5599,-2.7028,-2.8846,-3.0669,-3.2218,-3.3117,-3.3379,-3.4403,-3.517,-3.5418,-3.5418,-3.5418,-3.5418,-3.5418,-3.5418,-3.5418,-3.5418,-3.5418,-3.5418,-3.5418,-3.5418,-3.5418,-3.5418,-3.5418,-3.5418,-3.5418,-3.5418,-3.5418,-3.5418,-3.5418,-3.5418,-3.5418,-3.5418,-1.2592,-1.2696,-1.2824,0.0,-1.3183,-1.3301,-1.3509,0.0,0.0,0.0,0.0,0.0,0.0,0.0,0.0,0.0,0.0,0.0,0.0,0.0,0.0,0.0,0.0,0.0,0.0,0.0,0.0,0.0,0.0,-2.1211,-2.1211,-2.1211,-2.1211,-2.1211,-2.1211,-2.1211,-2.1211,-2.1211,-2.1211,-2.1211,-2.1211,-2.1211,-2.1211,-2.1357,-2.1606,-2.1928,-2.2242,-2.2469,-2.2637,-2.2776,-2.2945,-2.3106,-2.3106,-2.3106,-2.3106,-2.3106,-2.3106,-2.3106,-2.3106,-2.3106,-2.3135,-2.3274,-2.3449,-2.3647,-2.394,-2.4276,-2.4598,-2.4744,-2.4913,-2.5059,-2.5059,-2.5059,-2.5059,-2.5059,-2.5059,-2.5059,-2.5059,-2.5322,-2.5988,-2.7161,-2.9492,-3.1561,-3.2346,-3.3631,-3.4528,-3.4528,-3.5036,-3.5418,-3.5418,-3.5418,-3.5418,-3.5418,-3.5418,-3.5418,-3.5418,-3.5418,-3.5418,-3.5418,-3.5418,-3.5418,-3.5418,-3.5418,-3.5418,-3.5418,-3.5418,-3.5418,-3.5418,-3.5418,-3.5418,-3.5418,-3.5418,-3.5418,-1.2639,0.0,-1.2918,-1.323,-1.3386,-1.3504,0.0,0.0,0.0,0.0,0.0,0.0,0.0,0.0,0.0,0.0,0.0,0.0,0.0,0.0,0.0,0.0,0.0,0.0,0.0,0.0,0.0,0.0,0.0,-2.1211,-2.1211,-2.1211,-2.1211,-2.1211,-2.1211,-2.1211,-2.1211,-2.1211,-2.1211,-2.1211,-2.1211,-2.1211,-2.1211,-2.1211,-2.1342,-2.1591,-2.192,-2.2228,-2.2513,-2.2593,-2.2813,-2.3106,-2.3106,-2.3106,-2.3106,-2.3106,-2.3106,-2.3106,-2.3106,-2.3106,-2.3106,-2.3106,-2.3274,-2.3486,-2.3574,-2.394,-2.4335,-2.4423,-2.4679,-2.4935,-2.4935,-2.4993,-2.5059,-2.5059,-2.5059,-2.5187,-2.5712,-2.6115,-2.7035,-2.9361,-3.1817,-3.3505,-3.3882,-3.4777,-3.5418,-3.5418,-3.5418,-3.5418,-3.5418,-3.5418,-3.5418,-3.5418,-3.5418,-3.5418,-3.5418,-3.5418,-3.5418,-3.5418,-3.5418,-3.5418,-3.5418,-3.5418,-3.5418,-3.5418,-3.5418,-3.5418,-3.5418,-3.5418,-3.5418,-3.5418,-3.5418,-3.5418,-1.2455,-1.2748,0.0,-1.3079,-1.3381,0.0,0.0,0.0,0.0,0.0,0.0,0.0,0.0,0.0,0.0,0.0,0.0,0.0,0.0,0.0,0.0,0.0,0.0,0.0,0.0,0.0,0.0,0.0,0.0,-2.1211,-2.1211,-2.1211,-2.1211,-2.1211,-2.1211,-2.1211,-2.1211,-2.1211,-2.1211,-2.1211,-2.1211,-2.1211,-2.1211,-2.1211,-2.1218,-2.1254,-2.1576,-2.1906,-2.2228,-2.2506,-2.2813,-2.3106,-2.3106,-2.3106,-2.3106,-2.3106,-2.3106,-2.3106,-2.3106,-2.3106,-2.3106,-2.3106,-2.312,-2.3193,-2.3501,-2.3618,-2.3713,-2.402,-2.4342,-2.4598,-2.4598,-2.4825,-2.5059,-2.5059,-2.5059,-2.5584,-2.7551,-2.8081,-2.9108,-3.2473,-3.3253,-3.3757,-3.5046,-3.5294,-3.5418,-3.5418,-3.5418,-3.5418,-3.5418,-3.5418,-3.5418,-3.5418,-3.5418,-3.5418,-3.5418,-3.5418,-3.5418,-3.5418,-3.5418,-3.5418,-3.5418,-3.5418,-3.5418,-3.5418,-3.5418,-3.5418,-3.5418,-3.5418,-3.5418,-3.5418,-3.5418,-3.5418,-1.2767,-1.2951,0.0,-1.34,-1.358,-1.3688,0.0,0.0,0.0,0.0,0.0,0.0,0.0,0.0,0.0,0.0,0.0,0.0,0.0,0.0,0.0,0.0,0.0,0.0,0.0,0.0,0.0,0.0,0.0,0.0,-2.1211,-2.1211,-2.1211,-2.1211,-2.1211,-2.1211,-2.1211,-2.1211,-2.1211,-2.1211,-2.1211,-2.1211,-2.1211,-2.1211,-2.1211,-2.1218,-2.1335,-2.1569,-2.1898,-2.2213,-2.252,-2.282,-2.3025,-2.3106,-2.3106,-2.3106,-2.3106,-2.3106,-2.3106,-2.3106,-2.3106,-2.3106,-2.3106,-2.3128,-2.3245,-2.3427,-2.3618,-2.3735,-2.4005,-2.4254,-2.4254,-2.4342,-2.4686,-2.5459,-2.572,-2.6485,-2.9156,-2.9409,-2.978,-3.2036,-3.3172,-3.4054,-3.4427,-3.4797,-3.4993,-3.4993,-3.5242,-3.5418,-3.5418,-3.5418,-3.5418,-3.5418,-3.5418,-3.5418,-3.5418,-3.5418,-3.5418,-3.5418,-3.5418,-3.5418,-3.5418,-3.5418,-3.5418,-3.5418,-3.5418,-3.5418,-3.5418,-3.5418,-3.5418,-3.5418,-3.5418,-3.5418,-1.289,-1.3069,-1.324,0.0,0.0,-1.3688,-1.3688,0.0,0.0,0.0,0.0,0.0,0.0,0.0,0.0,0.0,0.0,0.0,0.0,0.0,0.0,0.0,0.0,0.0,0.0,0.0,0.0,0.0,0.0,0.0,-2.1211,-2.1211,-2.1211,-2.1211,-2.1211,-2.1211,-2.1211,-2.1211,-2.1211,-2.1211,-2.1211,-2.1211,-2.1211,-2.1211,-2.1211,-2.1211,-2.1211,-2.1393,-2.1715,-2.1935,-2.2257,-2.2645,-2.2864,-2.301,-2.3106,-2.3106,-2.3106,-2.3106,-2.3106,-2.3106,-2.3106,-2.3106,-2.3106,-2.3106,-2.3106,-2.3259,-2.3435,-2.3435,-2.3669,-2.3918,-2.3918,-2.4379,-2.4971,-2.5976,-2.6391,-2.7428,-3.0033,-3.038,-3.0596,-3.2211,-3.3325,-3.4072,-3.4072,-3.432,-3.4527,-3.4527,-3.4776,-3.4962,-3.4962,-3.5107,-3.52,-3.52,-3.5335,-3.5418,-3.5418,-3.5418,-3.5418,-3.5418,-3.5418,-3.5418,-3.5418,-3.5418,-3.5418,-3.5418,-3.5418,-3.5418,-3.5418,-3.5418,-3.5418,-3.5418,-3.5418,-3.5418,0.0,0.0,0.0,-1.3395,0.0,0.0,-1.3688,0.0,0.0,0.0,0.0,0.0,0.0,0.0,0.0,0.0,0.0,0.0,0.0,0.0,0.0,0.0,0.0,0.0,0.0,0.0,0.0,0.0,0.0,-2.1211,-2.1211,-2.1211,-2.1211,-2.1211,-2.1211,-2.1211,-2.1211,-2.1211,-2.1211,-2.1211,-2.1211,-2.1211,-2.1211,-2.1211,-2.1211,-2.1211,-2.1211,-2.1386,-2.1686,-2.1693,-2.2052,-2.2601,-2.2615,-2.282,-2.3098,-2.3106,-2.3106,-2.3106,-2.3106,-2.3106,-2.3106,-2.3106,-2.3106,-2.3106,-2.3106,-2.3106,-2.3106,-2.3106,-2.3332,-2.3581,-2.3581,-2.4825,-2.608,-2.6439,-2.7294,-2.8507,-3.0452,-3.0886,-3.1546,-3.3295,-3.3793,-3.4031,-3.4031,-3.4041,-3.4051,-3.4051,-3.4062,-3.4072,-3.4072,-3.4455,-3.4745,-3.4745,-3.5128,-3.5387,-3.5407,-3.5407,-3.5407,-3.5418,-3.5418,-3.5418,-3.5418,-3.5418,-3.5418,-3.5418,-3.5418,-3.5418,-3.5418,-3.5418,-3.5418,-3.5418,-3.5418,-3.5418,-1.3136,0.0,0.0,0.0,0.0,0.0,-1.3688,-1.3688,0.0,0.0,0.0,0.0,0.0,0.0,0.0,0.0,0.0,0.0,0.0,0.0,0.0,0.0,0.0,0.0,0.0,0.0,0.0,0.0,-2.1211,-2.1211,-2.1211,-2.1211,-2.1211,-2.1211,-2.1211,-2.1211,-2.1211,-2.1211,-2.1211,-2.1211,-2.1211,-2.1211,-2.1211,-2.1211,-2.1211,-2.1211,-2.1211,-2.1262,-2.1364,-2.1598,-2.1796,-2.2001,-2.2447,-2.2681,-2.2784,-2.3025,-2.3106,-2.3106,-2.3106,-2.3106,-2.3106,-2.3106,-2.3106,-2.3106,-2.3106,-2.3106,-2.3106,-2.3106,-2.3171,-2.3245,-2.3245,-2.4299,-2.5606,-2.6586,-2.7946,-2.9424,-3.0889,-3.1572,-3.2129,-3.2857,-3.2984,-3.3099,-3.3099,-3.3358,-3.3565,-3.3565,-3.3855,-3.4072,-3.4072,-3.4176,-3.4258,-3.4258,-3.4372,-3.4579,-3.491,-3.4941,-3.5076,-3.5407,-3.5418,-3.5418,-3.5418,-3.5418,-3.5418,-3.5418,-3.5418,-3.5418,-3.5418,-3.5418,-3.5418,-3.5418,-3.5418,-3.5418,-1.3325,-1.3452,-1.3542,-1.366,0.0,0.0,-1.3688,-1.3688,-1.3688,0.0,0.0,0.0,0.0,0.0,0.0,0.0,0.0,0.0,0.0,0.0,0.0,0.0,0.0,0.0,0.0,0.0,0.0,-2.1211,-2.1211,-2.1211,-2.1211,-2.1211,-2.1211,-2.1211,-2.1211,-2.1211,-2.1211,-2.1211,-2.1211,-2.1211,-2.1211,-2.1211,-2.1211,-2.1211,-2.1211,-2.1211,-2.1211,-2.1211,-2.1225,-2.1415,-2.1576,-2.173,-2.2096,-2.2396,-2.2645,-2.2835,-2.2988,-2.3106,-2.3106,-2.3106,-2.3106,-2.3106,-2.3106,-2.3106,-2.3106,-2.3106,-2.3106,-2.3106,-2.3106,-2.323,-2.3845,-2.4941,-2.6269,-2.7718,-2.9266,-3.0587,-3.1546,-3.2143,-3.2487,-3.2487,-3.2612,-3.2727,-3.2727,-3.2944,-3.311,-3.311,-3.3337,-3.3513,-3.3513,-3.3668,-3.3782,-3.3782,-3.3958,-3.4176,-3.4445,-3.4476,-3.4662,-3.5117,-3.5148,-3.5231,-3.5418,-3.5418,-3.5418,-3.5418,-3.5418,-3.5418,-3.5418,-3.5418,-3.5418,-3.5418,-3.5418,-3.5418,-1.3419,-1.3556,-1.3688,-1.3688,-1.3688,0.0,-1.3688,-1.3688,-1.3688,0.0,0.0,0.0,0.0,0.0,0.0,0.0,0.0,0.0,0.0,0.0,0.0,0.0,0.0,0.0,0.0,-2.1211,-2.1211,-2.1211,-2.1211,-2.1211,-2.1211,-2.1211,-2.1211,-2.1211,-2.1211,-2.1211,-2.1211,-2.1211,-2.1211,-2.1211,-2.1211,-2.1211,-2.1211,-2.1211,-2.1211,-2.1211,-2.1211,-2.1211,-2.1211,-2.1211,-2.1379,-2.165,-2.1686,-2.2037,-2.2528,-2.2601,-2.2806,-2.3062,-2.3098,-2.3106,-2.3106,-2.3106,-2.3106,-2.3106,-2.3106,-2.3106,-2.3106,-2.3106,-2.3106,-2.3355,-2.4702,-2.6026,-2.746,-2.902,-3.0704,-3.1903,-3.2248,-3.2487,-3.2612,-3.2373,-3.2498,-3.2727,-3.2727,-3.2727,-3.2727,-3.2727,-3.2727,-3.2727,-3.2727,-3.3068,-3.3306,-3.3306,-3.3679,-3.3938,-3.3989,-3.3989,-3.4186,-3.4652,-3.4724,-3.4931,-3.5335,-3.5397,-3.5418,-3.5418,-3.5418,-3.5418,-3.5418,-3.5418,-3.5418,-3.5418,-3.5418,-3.5418,-1.3584,-1.366,-1.3688,-1.3688,0.0,0.0,-1.3688,-1.3688,-1.3688,0.0,0.0,0.0,0.0,0.0,0.0,0.0,0.0,0.0,0.0,0.0,0.0,0.0,0.0,0.0,0.0,-2.1211,-2.1211,-2.1211,-2.1211,-2.1211,-2.1211,-2.1211,-2.1211,-2.1211,-2.1211,-2.1211,-2.1211,-2.1211,-2.1211,-2.1211,-2.1211,-2.1211,-2.1211,-2.1211,-2.1211,-2.1211,-2.1211,-2.1211,-2.1211,-2.1211,-2.1247,-2.1328,-2.1591,-2.1767,-2.1935,-2.244,-2.2659,-2.2754,-2.3018,-2.3106,-2.3106,-2.3106,-2.3106,-2.3106,-2.3106,-2.3106,-2.3106,-2.3106,-2.3106,-2.3355,-2.4702,-2.6277,-2.7709,-2.902,-3.082,-3.2248,-3.2258,-3.2487,-3.2727,-3.2612,-3.2612,-3.2727,-3.2727,-3.2727,-3.2727,-3.2727,-3.2727,-3.2727,-3.2727,-3.2799,-3.2861,-3.2861,-3.2934,-3.313,-3.3482,-3.3513,-3.371,-3.4176,-3.4548,-3.4797,-3.4879,-3.5231,-3.5418,-3.5418,-3.5418,-3.5418,-3.5418,-3.5418,-3.5418,-3.5418,-3.5418,-3.5418,0.0,0.0,0.0,-1.3688,0.0,0.0,0.0,-1.3688,-1.3688,0.0,0.0,0.0,0.0,0.0,0.0,0.0,0.0,0.0,0.0,0.0,0.0,0.0,0.0,0.0,0.0,-2.1211,-2.1211,-2.1211,-2.1211,-2.1211,-2.1211,-2.1211,-2.1211,-2.1211,-2.1211,-2.1211,-2.1211,-2.1211,-2.1211,-2.1211,-2.1211,-2.1211,-2.1211,-2.1211,-2.1211,-2.1211,-2.1211,-2.1211,-2.1211,-2.1211,-2.1211,-2.1225,-2.1386,-2.1554,-2.173,-2.2045,-2.2359,-2.2645,-2.2806,-2.2974,-2.3106,-2.3106,-2.3106,-2.3106,-2.3106,-2.3604,-2.4092,-2.4092,-2.4579,-2.5309,-2.6633,-2.7718,-2.8792,-2.9992,-3.1305,-3.2248,-3.2248,-3.2487,-3.2727,-3.2727,-3.2727,-3.2727,-3.2727,-3.2727,-3.2727,-3.2727,-3.2727,-3.2727,-3.2727,-3.2727,-3.2727,-3.2727,-3.2727,-3.282,-3.3037,-3.3058,-3.3244,-3.3699,-3.4155,-3.4517,-3.4745,-3.519,-3.5418,-3.5418,-3.5418,-3.5418,-3.5418,-3.5418,-3.5418,-3.5418,-3.5418,-3.5418,0.0,0.0,0.0,0.0,0.0,-1.3688,0.0,0.0,0.0,0.0,0.0,0.0,0.0,0.0,0.0,0.0,0.0,0.0,0.0,0.0,0.0,0.0,0.0,0.0,0.0,-2.1211,-2.1211,-2.1211,-2.1211,-2.1211,-2.1211,-2.1211,-2.1211,-2.1211,-2.1211,-2.1211,-2.1211,-2.1211,-2.1211,-2.1211,-2.1211,-2.1211,-2.1211,-2.1211,-2.1211,-2.1211,-2.1211,-2.1211,-2.1211,-2.1211,-2.1211,-2.1211,-2.1211,-2.1372,-2.1613,-2.1672,-2.2015,-2.2454,-2.2513,-2.2747,-2.3018,-2.3018,-2.3054,-2.3106,-2.3355,-2.4216,-2.5194,-2.5439,-2.6172,-2.7254,-2.8564,-2.9148,-2.9865,-3.1082,-3.1903,-3.2373,-3.2373,-3.2498,-3.2727,-3.2727,-3.2727,-3.2727,-3.2727,-3.2727,-3.2727,-3.2727,-3.2727,-3.2727,-3.2727,-3.2727,-3.2727,-3.2727,-3.2727,-3.2727,-3.2727,-3.2727,-3.2882,-3.3234,-3.3762,-3.4238,-3.461,-3.5138,-3.5418,-3.5418,-3.5418,-3.5418,-3.5418,-3.5418,-3.5418,-3.5418,-3.5418,-3.5418,0.0,0.0,0.0,0.0,-1.3688,0.0,0.0,0.0,-1.3688,-1.3688,0.0,0.0,0.0,0.0,0.0,0.0,0.0,0.0,0.0,0.0,0.0,0.0,0.0,0.0,0.0,0.0,-2.1211,-2.1211,-2.1211,-2.1211,-2.1211,-2.1211,-2.1211,-2.1211,-2.1211,-2.1211,-2.1211,-2.1211,-2.1211,-2.1211,-2.1211,-2.1211,-2.1211,-2.1211,-2.1211,-2.1211,-2.1211,-2.1211,-2.1211,-2.1211,-2.1211,-2.1211,-2.1211,-2.1233,-2.1298,-2.1591,-2.1737,-2.184,-2.2132,-2.2425,-2.2681,-2.2681,-2.2871,-2.3355,-2.4456,-2.4949,-2.5317,-2.6529,-2.6892,-2.7254,-2.8564,-2.9394,-3.0119,-3.1431,-3.2258,-3.2612,-3.2612,-3.2727,-3.2727,-3.2727,-3.2727,-3.2727,-3.2727,-3.2727,-3.2727,-3.2727,-3.2727,-3.2727,-3.2727,-3.2727,-3.2727,-3.2727,-3.2727,-3.2727,-3.2727,-3.2727,-3.2747,-3.2799,-3.3596,-3.4093,-3.4145,-3.4973,-3.5418,-3.5418,-3.5418,-3.5418,-3.5418,-3.5418,-3.5418,-3.5418,-3.5418,-3.5418,0.0,0.0,0.0,0.0,0.0,0.0,-1.3928,0.0,-1.3688,0.0,0.0,0.0,0.0,0.0,0.0,0.0,-2.0033,0.0,0.0,0.0,0.0,0.0,0.0,0.0,0.0,0.0,0.0,0.0,0.0,-2.1211,-2.1211,-2.1211,-2.1211,-2.1211,-2.1211,-2.1211,-2.1211,-2.1211,-2.1211,-2.1211,-2.1211,-2.1211,-2.1211,-2.1211,-2.1211,-2.1211,-2.1211,-2.1211,-2.1211,-2.1211,-2.1211,-2.1211,-2.1211,-2.1211,-2.1225,-2.1364,-2.1533,-2.1715,-2.1854,-2.2103,-2.2396,-2.2564,-2.2718,-2.3103,-2.464,-2.5562,-2.6529,-2.7727,-2.8701,-2.9431,-2.9912,-3.049,-3.1189,-3.1672,-3.2258,-3.2727,-3.2727,-3.2727,-3.2727,-3.2727,-3.2727,-3.2727,-3.2727,-3.2727,-3.2727,-3.2727,-3.2727,-3.2727,-3.2727,-3.2727,-3.2727,-3.2727,-3.2727,-3.2727,-3.2727,-3.2727,-3.2727,-3.2727,-3.3575,-3.4186,-3.4455,-3.5076,-3.5418,-3.5418,-3.5418,-3.5418,-3.5418,-3.5418,-3.5418,-3.5418,-3.5418,-3.5418,-1.4657,0.0,0.0,0.0,0.0,0.0,0.0,0.0,0.0,0.0,0.0,0.0,0.0,0.0,-1.9325,-1.9325,0.0,-2.1211,0.0,0.0,0.0,0.0,0.0,0.0,0.0,0.0,0.0,-2.1211,-2.1211,-2.1211,-2.1211,-2.1211,-2.1211,-2.1211,-2.1211,-2.1211,-2.1211,-2.1211,-2.1211,-2.1211,-2.1211,-2.1211,-2.1211,-2.1211,-2.1211,-2.1211,-2.1211,-2.1211,-2.1211,-2.1211,-2.1211,-2.1211,-2.1211,-2.1211,-2.1211,-2.1211,-2.1357,-2.1562,-2.1562,-2.2002,-2.2557,-2.2871,-2.3263,-2.3975,-2.544,-2.6686,-2.7735,-2.9057,-3.0147,-3.0889,-3.0995,-3.145,-3.1787,-3.1903,-3.2373,-3.2727,-3.2727,-3.2727,-3.2727,-3.2727,-3.2727,-3.2727,-3.2727,-3.2727,-3.2727,-3.2727,-3.2727,-3.2727,-3.2727,-3.2727,-3.2727,-3.2727,-3.2727,-3.2727,-3.2727,-3.2727,-3.2778,-3.2903,-3.3637,-3.4279,-3.4745,-3.519,-3.5418,-3.5418,-3.5418,-3.5418,-3.5418,-3.5418,-3.5541,-3.589,-3.5541,-3.5418,0.0,0.0,0.0,-1.5806,0.0,0.0,0.0,0.0,-1.3688,0.0,0.0,0.0,0.0,-1.7683,-1.9325,-1.9325,-2.0385,0.0,0.0,0.0,0.0,0.0,0.0,0.0,0.0,0.0,0.0,-2.1211,-2.1211,-2.1211,-2.1211,-2.1211,-2.1211,-2.1211,-2.1211,-2.1211,-2.1211,-2.1211,-2.1211,-2.1211,-2.1211,-2.1211,-2.1211,-2.1211,-2.1211,-2.1211,-2.1211,-2.1211,-2.1211,-2.1211,-2.1211,-2.1211,-2.1211,-2.1211,-2.1211,-2.1211,-2.1218,-2.1225,-2.1225,-2.2222,-2.3462,-2.3802,-2.4964,-2.6549,-2.775,-2.85,-2.9166,-3.0518,-3.0889,-3.1005,-3.1218,-3.1556,-3.1903,-3.2258,-3.2487,-3.2727,-3.2727,-3.2727,-3.2727,-3.2727,-3.2727,-3.2727,-3.2727,-3.2727,-3.2727,-3.2727,-3.2727,-3.2727,-3.2727,-3.2727,-3.2727,-3.2727,-3.2727,-3.2727,-3.2727,-3.2727,-3.2913,-3.3327,-3.3803,-3.4279,-3.4745,-3.519,-3.5418,-3.5418,-3.5418,-3.5418,-3.5418,-3.5418,-3.6002,-3.7188,-3.6013,-3.5418,0.0,0.0,-1.8033,-1.7049,0.0,0.0,0.0,0.0,0.0,0.0,0.0,0.0,0.0,-1.9441,-2.05,-2.05,-2.0974,-2.1211,0.0,0.0,0.0,0.0,0.0,0.0,0.0,0.0,0.0,-2.1211,-2.1211,-2.1211,0.0,-2.1211,-2.1211,-2.1211,-2.1211,-2.1211,-2.1211,-2.1211,-2.1211,-2.1211,-2.1211,-2.1211,-2.1211,-2.1211,-2.1211,-2.1211,-2.1211,-2.1211,-2.1211,-2.1211,-2.1211,-2.1211,-2.1211,-2.1211,-2.1211,-2.1211,-2.1211,-2.1318,-2.2093,-2.3279,-2.4319,-2.4686,-2.5116,-2.5835,-2.738,-2.7906,-2.8418,-2.9997,-3.043,-3.0498,-3.0917,-3.145,-3.1787,-3.1903,-3.2373,-3.2727,-3.2727,-3.2727,-3.2727,-3.2727,-3.2727,-3.2727,-3.2727,-3.2727,-3.2727,-3.2727,-3.2727,-3.2727,-3.2727,-3.2727,-3.2727,-3.2727,-3.2727,-3.2727,-3.2727,-3.2727,-3.2799,-3.2944,-3.3658,-3.4134,-3.4289,-3.5024,-3.5418,-3.5418,-3.5418,-3.5418,-3.5418,-3.5418,-3.6002,-3.7298,-3.6835,-3.6714,-1.7961,-1.8724,0.0,-1.8186,-1.8545,0.0,-1.6744,0.0,0.0,0.0,0.0,0.0,0.0,-2.0385,-2.1211,-2.1211,-2.1211,-2.1211,0.0,-2.1211,0.0,0.0,0.0,0.0,0.0,0.0,-2.1211,-2.1211,-2.1211,-2.1211,0.0,0.0,-2.1211,-2.1211,-2.1211,-2.1211,-2.1211,-2.1211,-2.1211,-2.1211,-2.1211,-2.1211,-2.1211,-2.1211,-2.1211,-2.1211,-2.1211,-2.1211,-2.1211,-2.1211,-2.1211,-2.1211,-2.1211,-2.1211,-2.1211,-2.1211,-2.1425,-2.1987,-2.2757,-2.4078,-2.5331,-2.5576,-2.6087,-2.6695,-2.7763,-2.8183,-2.8644,-3.0044,-3.0329,-3.0344,-3.107,-3.1446,-3.1785,-3.1899,-3.226,-3.2727,-3.2727,-3.2727,-3.2727,-3.2727,-3.2727,-3.2727,-3.2727,-3.2727,-3.2727,-3.2727,-3.2727,-3.2727,-3.2727,-3.2727,-3.2727,-3.2727,-3.2727,-3.2727,-3.2727,-3.2727,-3.2727,-3.2727,-3.3575,-3.4072,-3.4072,-3.4941,-3.5418,-3.5418,-3.5418,-3.5418,-3.5418,-3.5418,-3.6002,-3.7298,-3.7298,-3.7539]},{"header":{"parameterUnit":"m.s-1","parameterCategory":1,"la1":30.6,"la2":29.2853,"lo1":-89.7004,"lo2":-87.6739,"dy":0.0162,"dx":0.0183,"nx":112,"ny":82,"refTime":"2024-05-10T12:00:00:Z","depth":0,"parameterNumber":3,"parameterNumberName":"V-component_of_WINDS"},"data":[0.0,0.0,0.0,0.0,0.0,0.0,0.0,0.0,0.0,0.0,0.0,0.0,0.0,0.0,0.0,0.0,0.0,0.0,0.0,0.0,0.0,0.0,0.0,0.0,0.0,0.0,0.0,0.0,0.0,0.0,0.0,0.0,0.0,0.0,0.0,0.0,0.0,0.0,0.0,0.0,0.0,0.0,0.0,0.0,0.0,0.0,0.0,0.0,0.0,0.0,0.0,0.0,0.0,0.0,0.0,0.0,0.0,0.0,0.0,0.0,0.0,0.0,0.0,0.0,0.0,0.0,0.0,0.0,0.0,0.0,0.0,0.0,0.0,0.0,0.0,0.0,0.0,0.0,0.0,0.0,0.0,0.0,0.0,0.0,0.0,0.0,0.0,0.0,0.0,0.0,-4.7643,-4.7783,-4.8453,-4.917,-4.9841,-4.9898,-4.9898,-4.9898,0.0,0.0,0.0,0.0,0.0,0.0,0.0,0.0,0.0,0.0,0.0,0.0,0.0,0.0,0.0,0.0,0.0,0.0,0.0,0.0,0.0,0.0,0.0,0.0,0.0,0.0,0.0,0.0,0.0,0.0,0.0,0.0,0.0,0.0,0.0,0.0,0.0,0.0,0.0,0.0,0.0,0.0,0.0,0.0,0.0,0.0,0.0,0.0,0.0,0.0,0.0,0.0,0.0,0.0,0.0,0.0,0.0,0.0,0.0,0.0,0.0,0.0,0.0,0.0,0.0,0.0,0.0,0.0,0.0,0.0,0.0,0.0,0.0,0.0,0.0,0.0,0.0,0.0,0.0,0.0,0.0,0.0,0.0,0.0,0.0,0.0,0.0,0.0,0.0,0.0,0.0,0.0,0.0,0.0,0.0,0.0,0.0,0.0,0.0,0.0,0.0,0.0,0.0,0.0,-4.8764,-4.9435,-4.9652,-4.9765,-4.9879,-4.9898,-4.9898,-4.9898,0.0,0.0,0.0,0.0,0.0,0.0,0.0,0.0,0.0,0.0,0.0,0.0,0.0,0.0,0.0,0.0,0.0,0.0,0.0,0.0,0.0,0.0,0.0,0.0,0.0,0.0,0.0,0.0,0.0,0.0,0.0,0.0,0.0,0.0,0.0,0.0,0.0,0.0,0.0,0.0,0.0,0.0,0.0,0.0,0.0,0.0,0.0,0.0,0.0,0.0,0.0,0.0,0.0,0.0,0.0,0.0,0.0,0.0,0.0,0.0,0.0,0.0,0.0,0.0,0.0,0.0,0.0,0.0,0.0,0.0,0.0,0.0,0.0,0.0,0.0,0.0,0.0,0.0,0.0,0.0,0.0,0.0,0.0,0.0,0.0,0.0,0.0,0.0,0.0,0.0,0.0,0.0,0.0,0.0,0.0,0.0,0.0,0.0,0.0,0.0,0.0,0.0,0.0,-4.934,-4.9473,-4.986,-4.9898,-4.9898,-4.9898,-5.0334,-5.0599,-5.0599,-5.1016,0.0,0.0,0.0,0.0,0.0,0.0,0.0,0.0,0.0,0.0,0.0,0.0,0.0,0.0,0.0,0.0,0.0,0.0,0.0,0.0,0.0,0.0,0.0,0.0,0.0,0.0,0.0,0.0,0.0,0.0,0.0,0.0,0.0,0.0,0.0,0.0,0.0,0.0,0.0,0.0,0.0,0.0,0.0,0.0,0.0,0.0,0.0,0.0,0.0,0.0,0.0,0.0,0.0,0.0,0.0,0.0,0.0,0.0,0.0,0.0,0.0,0.0,0.0,0.0,0.0,0.0,0.0,0.0,0.0,0.0,0.0,0.0,0.0,0.0,0.0,0.0,0.0,0.0,0.0,0.0,0.0,0.0,0.0,0.0,0.0,0.0,0.0,0.0,0.0,0.0,0.0,0.0,0.0,0.0,0.0,0.0,0.0,0.0,0.0,0.0,0.0,0.0,-4.9898,-4.9974,-5.0182,-5.0201,-5.0277,-5.0467,-5.1111,-5.149,-5.149,-5.2059,0.0,0.0,0.0,0.0,0.0,0.0,0.0,0.0,0.0,0.0,0.0,0.0,0.0,0.0,0.0,0.0,0.0,0.0,0.0,0.0,0.0,0.0,0.0,0.0,0.0,0.0,0.0,0.0,0.0,0.0,0.0,0.0,0.0,0.0,0.0,0.0,0.0,0.0,0.0,0.0,0.0,0.0,0.0,0.0,0.0,0.0,0.0,0.0,0.0,0.0,0.0,0.0,0.0,0.0,0.0,0.0,0.0,0.0,0.0,0.0,0.0,0.0,0.0,0.0,0.0,0.0,0.0,0.0,0.0,0.0,0.0,0.0,0.0,0.0,0.0,0.0,0.0,0.0,0.0,0.0,0.0,0.0,0.0,0.0,0.0,0.0,0.0,0.0,0.0,0.0,0.0,0.0,0.0,0.0,0.0,0.0,0.0,0.0,0.0,0.0,0.0,0.0,-4.9898,-5.0201,-5.1035,-5.1111,-5.1414,-5.2172,-5.2286,-5.2324,-5.2324,-5.2381,0.0,0.0,0.0,0.0,0.0,0.0,0.0,0.0,0.0,0.0,0.0,0.0,0.0,0.0,0.0,0.0,0.0,0.0,0.0,0.0,0.0,0.0,0.0,0.0,0.0,0.0,0.0,0.0,0.0,0.0,0.0,0.0,0.0,0.0,0.0,0.0,0.0,0.0,0.0,0.0,0.0,0.0,0.0,0.0,0.0,0.0,0.0,0.0,0.0,0.0,0.0,0.0,0.0,0.0,0.0,0.0,0.0,0.0,0.0,0.0,0.0,0.0,0.0,0.0,0.0,0.0,0.0,0.0,0.0,0.0,0.0,0.0,0.0,0.0,0.0,0.0,0.0,0.0,0.0,0.0,0.0,0.0,0.0,0.0,0.0,0.0,0.0,0.0,0.0,0.0,0.0,0.0,0.0,0.0,0.0,0.0,0.0,0.0,0.0,0.0,0.0,0.0,-5.1462,-5.1575,0.0,-5.1964,-5.2077,-5.2381,-5.2911,-5.3215,-5.3215,0.0,0.0,0.0,0.0,0.0,0.0,0.0,0.0,0.0,0.0,0.0,0.0,0.0,0.0,0.0,0.0,0.0,0.0,0.0,0.0,0.0,0.0,0.0,0.0,0.0,0.0,0.0,0.0,0.0,0.0,0.0,0.0,0.0,0.0,0.0,0.0,0.0,0.0,0.0,0.0,0.0,0.0,0.0,0.0,0.0,0.0,0.0,0.0,0.0,0.0,0.0,0.0,0.0,0.0,0.0,0.0,0.0,0.0,0.0,0.0,0.0,0.0,0.0,0.0,0.0,0.0,0.0,0.0,0.0,0.0,0.0,0.0,0.0,0.0,0.0,0.0,0.0,0.0,0.0,0.0,0.0,0.0,0.0,0.0,0.0,0.0,0.0,0.0,0.0,0.0,0.0,0.0,0.0,0.0,0.0,0.0,0.0,0.0,0.0,0.0,0.0,0.0,-5.2342,-5.238,-5.2523,0.0,-5.2817,-5.293,-5.3177,-5.3745,-5.4086,-5.4086,0.0,0.0,0.0,0.0,0.0,0.0,0.0,0.0,0.0,0.0,0.0,0.0,0.0,0.0,0.0,0.0,0.0,0.0,0.0,0.0,0.0,0.0,0.0,0.0,0.0,0.0,0.0,0.0,0.0,0.0,0.0,0.0,0.0,0.0,0.0,0.0,0.0,0.0,0.0,0.0,0.0,0.0,0.0,0.0,0.0,0.0,0.0,0.0,0.0,0.0,0.0,0.0,0.0,0.0,0.0,0.0,0.0,0.0,0.0,0.0,0.0,0.0,0.0,0.0,0.0,0.0,0.0,0.0,0.0,0.0,0.0,0.0,0.0,0.0,0.0,0.0,0.0,0.0,0.0,0.0,0.0,0.0,0.0,0.0,0.0,0.0,0.0,0.0,0.0,0.0,0.0,0.0,0.0,0.0,0.0,0.0,0.0,0.0,0.0,0.0,0.0,0.0,-5.2418,-5.2428,-5.276,-5.3631,-5.3707,-5.4048,-5.4825,-5.4901,-5.4901,0.0,0.0,0.0,0.0,0.0,0.0,0.0,0.0,0.0,0.0,0.0,0.0,0.0,0.0,0.0,0.0,0.0,0.0,0.0,0.0,0.0,0.0,0.0,0.0,0.0,0.0,0.0,0.0,0.0,0.0,0.0,0.0,0.0,0.0,0.0,0.0,0.0,0.0,0.0,0.0,0.0,0.0,0.0,0.0,0.0,0.0,0.0,0.0,0.0,0.0,0.0,0.0,0.0,0.0,0.0,0.0,0.0,0.0,0.0,0.0,0.0,0.0,0.0,0.0,0.0,0.0,0.0,0.0,0.0,0.0,0.0,0.0,0.0,0.0,0.0,0.0,0.0,0.0,0.0,0.0,0.0,0.0,0.0,0.0,0.0,0.0,0.0,0.0,0.0,0.0,0.0,0.0,0.0,0.0,0.0,0.0,0.0,0.0,0.0,0.0,0.0,0.0,0.0,-5.4076,-5.4162,-5.4257,-5.4522,-5.456,-5.4636,-5.4882,-5.4901,-5.4901,-5.4901,0.0,0.0,0.0,0.0,0.0,0.0,0.0,0.0,0.0,0.0,0.0,0.0,0.0,0.0,0.0,0.0,0.0,0.0,0.0,0.0,0.0,0.0,0.0,0.0,0.0,0.0,0.0,0.0,0.0,0.0,0.0,0.0,0.0,0.0,0.0,0.0,0.0,0.0,0.0,0.0,0.0,0.0,0.0,0.0,0.0,0.0,0.0,0.0,0.0,0.0,0.0,0.0,0.0,0.0,0.0,0.0,0.0,0.0,0.0,0.0,0.0,0.0,0.0,0.0,0.0,0.0,0.0,0.0,0.0,0.0,0.0,0.0,0.0,0.0,0.0,0.0,0.0,0.0,0.0,0.0,0.0,0.0,0.0,0.0,0.0,0.0,0.0,0.0,0.0,0.0,0.0,0.0,0.0,0.0,0.0,0.0,0.0,0.0,0.0,0.0,0.0,0.0,-5.4844,-5.4901,-5.4901,-5.4901,-5.4901,-5.4901,-5.4901,-5.4901,-5.4901,-5.4901,0.0,0.0,0.0,0.0,0.0,0.0,0.0,0.0,0.0,0.0,0.0,0.0,0.0,0.0,0.0,0.0,0.0,0.0,0.0,0.0,0.0,0.0,0.0,0.0,0.0,0.0,0.0,0.0,0.0,0.0,0.0,0.0,0.0,0.0,0.0,0.0,0.0,0.0,0.0,0.0,0.0,0.0,0.0,0.0,0.0,0.0,0.0,0.0,0.0,0.0,0.0,0.0,0.0,0.0,0.0,0.0,0.0,0.0,0.0,0.0,0.0,0.0,0.0,0.0,0.0,0.0,0.0,0.0,0.0,0.0,0.0,0.0,0.0,0.0,0.0,0.0,0.0,0.0,0.0,0.0,0.0,0.0,0.0,0.0,0.0,0.0,0.0,0.0,0.0,0.0,0.0,0.0,0.0,0.0,0.0,0.0,0.0,0.0,0.0,0.0,0.0,0.0,-5.4901,-5.4901,-5.4901,-5.4901,-5.4901,-5.4901,-5.4901,-5.4901,-5.4901,-5.4901,0.0,0.0,0.0,0.0,0.0,0.0,0.0,0.0,0.0,0.0,0.0,0.0,0.0,0.0,0.0,0.0,0.0,0.0,0.0,0.0,0.0,0.0,0.0,0.0,0.0,0.0,0.0,0.0,0.0,0.0,0.0,0.0,0.0,0.0,0.0,0.0,0.0,0.0,0.0,0.0,0.0,0.0,0.0,0.0,0.0,0.0,0.0,0.0,0.0,0.0,0.0,0.0,0.0,0.0,0.0,0.0,0.0,0.0,0.0,0.0,-4.5192,0.0,0.0,0.0,0.0,0.0,0.0,0.0,0.0,0.0,0.0,0.0,0.0,0.0,0.0,0.0,0.0,0.0,0.0,0.0,0.0,0.0,0.0,0.0,0.0,0.0,0.0,0.0,0.0,0.0,0.0,0.0,0.0,0.0,0.0,0.0,0.0,0.0,0.0,0.0,0.0,0.0,-5.4901,-5.4901,-5.4901,-5.4901,-5.4901,-5.4901,-5.4901,-5.4901,-5.4901,-5.4901,-5.4901,0.0,0.0,0.0,0.0,0.0,0.0,0.0,0.0,0.0,0.0,0.0,0.0,0.0,0.0,0.0,0.0,0.0,0.0,0.0,0.0,0.0,0.0,0.0,0.0,0.0,0.0,0.0,0.0,0.0,0.0,0.0,0.0,0.0,0.0,0.0,0.0,0.0,0.0,0.0,0.0,0.0,0.0,0.0,0.0,0.0,0.0,0.0,0.0,0.0,0.0,0.0,0.0,0.0,0.0,0.0,0.0,0.0,0.0,0.0,0.0,-4.5799,0.0,0.0,0.0,0.0,0.0,0.0,0.0,0.0,0.0,0.0,0.0,0.0,0.0,0.0,0.0,0.0,0.0,0.0,0.0,0.0,0.0,0.0,0.0,0.0,0.0,0.0,0.0,0.0,0.0,0.0,0.0,0.0,0.0,0.0,0.0,0.0,0.0,0.0,0.0,0.0,-5.4901,-5.4901,-5.4901,-5.4901,-5.4901,-5.4901,-5.4901,-5.4901,-5.4901,-5.4901,-5.4901,0.0,0.0,0.0,0.0,0.0,0.0,0.0,0.0,0.0,0.0,0.0,0.0,0.0,0.0,0.0,0.0,0.0,0.0,0.0,0.0,0.0,0.0,0.0,0.0,0.0,0.0,0.0,0.0,0.0,0.0,0.0,0.0,0.0,0.0,0.0,0.0,0.0,0.0,0.0,0.0,0.0,0.0,0.0,0.0,0.0,0.0,0.0,0.0,0.0,0.0,0.0,0.0,0.0,-4.5442,-4.584,-4.6576,-4.6587,-4.6944,-4.7552,-4.702,-4.6716,-4.6663,0.0,0.0,0.0,0.0,0.0,0.0,0.0,0.0,0.0,0.0,0.0,0.0,0.0,0.0,0.0,0.0,0.0,0.0,0.0,0.0,0.0,0.0,0.0,0.0,0.0,-5.3385,-5.3707,0.0,0.0,0.0,0.0,0.0,0.0,0.0,0.0,0.0,0.0,0.0,0.0,-5.4901,-5.4901,-5.4901,-5.4901,-5.4901,-5.4958,-5.511,-5.5129,-5.5129,-5.5129,-5.5129,-5.5072,0.0,0.0,0.0,0.0,0.0,0.0,0.0,0.0,0.0,0.0,0.0,0.0,0.0,0.0,0.0,0.0,0.0,0.0,0.0,0.0,0.0,0.0,0.0,0.0,0.0,0.0,0.0,0.0,0.0,0.0,0.0,0.0,-4.2527,-4.2642,0.0,0.0,0.0,0.0,0.0,0.0,0.0,0.0,0.0,0.0,0.0,0.0,0.0,0.0,-4.5297,-4.5297,-4.5619,-4.624,-4.624,-4.661,-4.7352,-4.7352,-4.7378,-4.746,-4.8105,0.0,-4.7443,-4.7435,0.0,0.0,0.0,0.0,0.0,0.0,0.0,0.0,0.0,0.0,0.0,0.0,0.0,0.0,0.0,0.0,0.0,0.0,0.0,0.0,0.0,0.0,-5.3707,-5.4408,-5.4655,-5.4712,0.0,-5.4655,-5.475,-5.475,-5.4825,0.0,0.0,0.0,0.0,0.0,0.0,0.0,-5.4901,-5.4901,-5.4901,-5.4901,-5.4901,-5.5204,-5.5962,-5.6019,-5.6019,-5.6019,-5.6019,-5.5697,-5.4939,-5.4901,0.0,0.0,0.0,0.0,0.0,0.0,0.0,0.0,0.0,0.0,0.0,0.0,0.0,0.0,0.0,0.0,0.0,0.0,0.0,0.0,0.0,0.0,0.0,0.0,0.0,0.0,0.0,0.0,0.0,-4.2725,-4.3227,-4.3796,-4.3839,-4.4032,0.0,0.0,0.0,0.0,0.0,0.0,0.0,0.0,0.0,-4.5297,-4.5297,-4.5485,-4.5922,-4.5963,-4.6342,-4.7072,-4.7072,-4.7481,-4.822,-4.8194,-4.8408,-4.8818,-4.9197,-4.9193,-4.8878,-4.8825,-4.9053,-4.9421,0.0,0.0,0.0,0.0,-5.0201,-5.0637,-5.0637,-5.0921,0.0,0.0,0.0,0.0,0.0,0.0,0.0,0.0,0.0,0.0,0.0,0.0,0.0,-5.4825,-5.4901,-5.4901,-5.4901,-5.4901,-5.4901,0.0,-5.4901,-5.4901,-5.4901,0.0,0.0,0.0,0.0,-5.5091,-5.5564,-5.5621,-5.5792,-5.6266,-5.6304,-5.6455,-5.6834,-5.6872,-5.6872,-5.6872,-5.6872,-5.6702,-5.6323,-5.6304,-5.6095,0.0,0.0,0.0,0.0,0.0,0.0,0.0,0.0,0.0,0.0,0.0,0.0,0.0,0.0,0.0,0.0,0.0,0.0,0.0,0.0,0.0,0.0,0.0,0.0,0.0,0.0,0.0,0.0,-4.3601,-4.4078,-4.4855,-4.4854,-4.5051,0.0,0.0,0.0,0.0,0.0,0.0,-4.5317,-4.5339,-4.5435,-4.5602,-4.5581,-4.596,-4.6759,-4.6759,-4.7175,-4.7938,-4.7914,-4.846,-4.9409,-4.9356,-4.9765,-5.0542,-5.0542,-5.041,-5.022,-4.9974,-4.9898,-4.9917,-5.0144,-5.022,-5.0258,-5.0448,-5.0959,-5.1528,-5.1528,-5.1907,-5.2456,-5.2665,0.0,-5.3158,-5.3821,0.0,0.0,0.0,0.0,-5.4901,-5.4901,-5.4901,-5.4901,-5.4901,-5.4901,-5.4901,-5.4901,-5.4901,-5.4901,0.0,-5.4901,-5.4901,-5.4901,0.0,0.0,0.0,0.0,-5.5773,-5.6417,-5.6512,-5.6739,-5.7327,-5.7403,-5.7479,-5.7706,-5.7725,-5.7725,-5.7725,-5.7725,-5.763,-5.7403,-5.7403,-5.7118,-5.6512,0.0,0.0,0.0,0.0,0.0,0.0,0.0,0.0,0.0,0.0,0.0,0.0,0.0,0.0,0.0,0.0,0.0,0.0,0.0,0.0,0.0,0.0,0.0,0.0,0.0,0.0,0.0,0.0,0.0,-4.5626,-4.5545,0.0,0.0,0.0,0.0,-4.5339,-4.5541,-4.5571,-4.5298,-4.5419,-4.5783,-4.6424,-4.6377,-4.6778,-4.772,-4.7609,-4.7976,-4.8833,-4.8758,-4.9561,-5.1092,-5.1092,-5.1509,-5.2267,-5.2267,-5.185,-5.1073,-5.0239,-4.9898,-4.9974,-5.0808,-5.113,-5.1244,-5.2002,-5.2305,-5.2343,-5.2343,-5.2381,-5.2551,-5.3366,-5.4143,-5.4787,-5.4825,-5.4863,0.0,0.0,-5.4901,-5.4901,-5.4901,-5.4901,-5.4901,-5.4901,-5.4901,-5.4901,-5.4901,-5.4901,-5.4901,0.0,-5.4901,-5.4901,-5.4901,0.0,-5.6133,-5.6133,-5.6777,-5.7289,-5.7327,-5.7327,-5.7365,-5.7403,-5.7403,-5.7744,-5.8559,-5.8616,-5.8616,-5.8616,-5.8616,-5.8256,-5.7422,-5.7403,-5.7384,-5.7346,-5.7327,0.0,0.0,0.0,0.0,0.0,0.0,0.0,0.0,0.0,0.0,0.0,0.0,0.0,0.0,0.0,0.0,0.0,0.0,0.0,0.0,0.0,0.0,0.0,0.0,0.0,0.0,0.0,0.0,-4.5689,-4.5587,0.0,-4.5615,-4.5603,-4.5541,-4.5438,-4.5918,-4.6167,-4.608,-4.664,-4.7101,-4.7341,-4.7274,-4.7876,-4.9262,-4.9238,-4.9867,-5.1128,-5.1182,-5.1478,-5.1983,-5.1983,-5.2134,-5.24,-5.24,-5.2248,-5.1964,-5.1642,-5.1206,-5.0827,-5.1661,-5.1983,-5.2021,-5.2305,-5.276,-5.3252,-5.3252,-5.3594,-5.4067,-5.4371,-5.4674,-5.4901,-5.4901,-5.4901,-5.4901,-5.4901,-5.4901,-5.4901,-5.4901,-5.4901,-5.4901,-5.4901,-5.4901,-5.5053,-5.5621,-5.5735,-5.5887,-5.6417,-5.6095,-5.5906,-5.6417,-5.6777,-5.6967,-5.6967,-5.7213,-5.7592,-5.8161,-5.8237,-5.8426,-5.8938,-5.9014,-5.9127,-5.9449,-5.9468,-5.9468,-5.9468,-5.9468,-5.9317,-5.9014,-5.9014,-5.8767,-5.8237,-5.8237,-5.7616,0.0,0.0,0.0,0.0,0.0,0.0,0.0,0.0,0.0,0.0,0.0,0.0,0.0,0.0,0.0,0.0,0.0,0.0,0.0,0.0,0.0,0.0,0.0,0.0,0.0,0.0,-4.5539,-4.5689,-4.5539,-4.5491,-4.5615,-4.5757,-4.5841,-4.5841,-4.6527,-4.694,-4.694,-4.778,-4.835,-4.8594,-4.8834,-4.9581,-5.0945,-5.0912,-5.141,-5.2428,-5.2456,-5.2608,-5.2854,-5.2854,-5.2987,-5.3252,-5.3252,-5.3101,-5.2873,-5.3139,-5.2779,-5.2115,-5.2627,-5.2854,-5.2873,-5.3139,-5.3613,-5.4105,-5.4105,-5.4446,-5.4901,-5.4901,-5.4901,-5.4901,-5.4901,-5.4901,-5.4901,-5.4901,-5.4901,-5.4977,-5.5261,-5.5337,-5.5413,-5.5678,-5.5735,-5.5906,-5.6474,-5.6588,-5.6853,-5.7668,-5.7175,-5.6758,-5.7308,-5.763,-5.7839,-5.7839,-5.8066,-5.8445,-5.9014,-5.9089,-5.9298,-5.9828,-5.9885,-5.9885,-5.9885,-5.9885,-5.9885,-5.9885,-5.9885,-5.9885,-5.9885,-5.9885,-5.9555,-5.8887,-5.8573,-5.7865,-5.6728,0.0,0.0,0.0,0.0,0.0,0.0,0.0,0.0,0.0,0.0,0.0,0.0,0.0,0.0,0.0,0.0,0.0,0.0,0.0,0.0,0.0,0.0,0.0,-4.5473,-4.549,-4.5539,-4.5675,-4.5475,-4.5379,-4.553,-4.6147,-4.6538,-4.6538,-4.7379,-4.7895,-4.7895,-4.8716,-4.9553,-5.0239,-5.1028,-5.1839,-5.2612,-5.2494,-5.2485,-5.2569,-5.2504,-5.293,-5.3745,-5.3745,-5.4162,-5.4901,-5.4901,-5.4465,-5.3802,-5.4579,-5.4446,-5.3745,-5.3745,-5.3745,-5.384,-5.4617,-5.4901,-5.4901,-5.4901,-5.4901,-5.4901,-5.4901,-5.4901,-5.492,-5.4939,-5.4939,-5.4958,-5.4977,-5.4977,-5.5166,-5.6019,-5.6228,-5.6436,-5.7213,-5.7403,-5.7403,-5.7422,-5.7441,-5.7687,-5.8559,-5.8047,-5.7479,-5.7479,-5.818,-5.8729,-5.8729,-5.9393,0.0,-5.9885,-5.9885,-5.9885,-5.9885,-5.9885,-5.9885,-5.9885,-5.9885,-5.9885,-5.9885,-5.9885,-5.9885,-5.9885,-5.9885,-5.9681,-5.9196,-5.8357,-5.7905,-5.7905,0.0,0.0,0.0,0.0,0.0,0.0,0.0,0.0,0.0,0.0,0.0,0.0,0.0,0.0,0.0,0.0,0.0,0.0,0.0,0.0,0.0,-4.5297,-4.5298,-4.5341,-4.5361,-4.538,-4.5419,-4.5876,-4.6178,-4.6221,-4.6942,-4.7455,-4.7455,-4.8766,-4.9544,-4.9614,-5.0893,-5.1739,-5.2018,-5.2118,-5.2615,-5.3451,-5.3405,-5.3631,-5.4248,-5.4219,-5.4352,-5.4579,-5.4579,-5.4693,-5.4901,-5.4901,-5.4769,-5.4598,-5.4806,-5.4769,-5.4579,-5.4579,-5.4579,-5.4598,-5.4825,-5.4901,-5.4901,-5.4901,-5.4901,-5.4901,-5.4901,-5.4901,-5.5015,-5.564,-5.5849,-5.5962,-5.655,-5.6702,-5.6777,-5.7005,-5.7062,-5.7118,-5.7346,-5.7403,-5.7573,-5.8199,-5.8331,-5.8578,-5.9412,-5.9374,-5.9203,-5.9203,-5.9412,-5.9563,-5.9563,-5.9753,0.0,-5.9885,-5.9885,-5.9885,-5.9885,-5.9885,-5.9885,-5.9885,-5.9885,-5.9885,-5.9885,-5.9885,-5.9885,-5.9885,-5.9575,-5.9178,-5.8772,-5.8201,-5.7905,0.0,0.0,0.0,0.0,0.0,0.0,0.0,0.0,0.0,0.0,0.0,0.0,0.0,0.0,0.0,0.0,0.0,0.0,0.0,0.0,0.0,0.0,-4.5297,-4.5297,-4.5297,-4.5297,-4.543,-4.5755,-4.6192,-4.6612,-4.7016,-4.7793,-4.8418,-4.8831,-4.9997,-5.0868,-5.1285,-5.2482,-5.3153,-5.3179,-5.3422,-5.3784,-5.4258,-5.4229,-5.4446,-5.4901,-5.4901,-5.4901,-5.4901,-5.4901,-5.4901,0.0,-5.5299,-5.5451,-5.547,-5.5811,-5.5943,0.0,0.0,0.0,0.0,0.0,-5.5451,-5.5489,-5.583,-5.5943,-5.5943,-5.5943,-5.5943,-5.6038,-5.655,-5.6702,-5.6796,-5.727,-5.7403,-5.7479,-5.7839,-5.7933,-5.8028,-5.8369,-5.8445,-5.8578,-5.9089,-5.9184,-5.9336,-5.9809,-5.9885,0.0,-5.9885,-5.9885,-5.9885,-5.9885,-5.9885,-5.9885,-5.9885,-5.9885,-5.9885,-5.9885,-5.9885,-5.9885,-5.9885,-5.9885,0.0,0.0,0.0,-5.9801,-5.9628,-5.9008,0.0,0.0,0.0,-5.7594,-5.7594,0.0,0.0,0.0,-5.6066,-5.5685,0.0,0.0,0.0,0.0,0.0,0.0,0.0,0.0,0.0,0.0,0.0,0.0,0.0,0.0,0.0,0.0,-4.5373,-4.543,-4.543,-4.5507,-4.5812,-4.6402,-4.6606,-4.7026,-4.7853,-4.8696,-4.9529,-5.0374,-5.1205,-5.1992,-5.2793,0.0,0.0,0.0,0.0,-5.4941,-5.4901,-5.4901,-5.4901,-5.4901,-5.4901,-5.4958,-5.5053,-5.5053,-5.511,-5.5223,-5.6,-5.6341,-5.6379,-5.7099,-5.7403,-5.7251,-5.5754,-5.5185,-5.528,-5.6057,-5.6341,-5.6436,-5.7156,0.0,0.0,-5.7403,-5.7403,-5.7422,-5.7516,-5.7554,-5.7573,-5.7649,-5.7668,-5.7858,-5.8616,-5.8824,-5.9014,-5.9715,-5.9885,-5.9885,-5.9885,-5.9885,-5.9885,-5.9885,-5.9885,-5.9885,-5.9885,-5.9885,-5.9885,-5.9885,-5.9885,-5.9885,-5.9885,-5.9885,-5.9885,-5.9885,0.0,0.0,-5.9885,-5.9885,-5.9885,-5.9801,-5.9767,-5.954,-5.9084,-5.8314,-5.7859,-5.7812,-5.7419,-5.7188,-5.7188,-5.7188,-5.7188,-5.7188,-5.7188,-5.6808,0.0,0.0,0.0,0.0,0.0,0.0,0.0,0.0,0.0,0.0,0.0,0.0,0.0,0.0,0.0,-4.5297,-4.5831,-4.6249,-4.6186,-4.6797,-4.7045,-4.6492,-4.7652,-4.8543,-4.8667,-5.0032,-5.0983,-5.1161,-5.2509,-5.3441,-5.3647,-5.4335,0.0,-5.4772,-5.4866,-5.4901,-5.4901,-5.4901,-5.4901,-5.4901,0.0,0.0,-5.5943,-5.5943,-5.6304,-5.6929,-5.7081,-5.7175,-5.7175,-5.7327,-5.7403,-5.7365,-5.7043,-5.691,-5.6929,-5.7099,-5.7175,-5.7194,-5.7346,-5.7403,-5.7403,-5.7403,-5.7403,-5.7535,-5.8237,-5.8445,0.0,-5.9222,-5.9412,-5.9449,-5.962,-5.9658,-5.9696,-5.9847,-5.9885,-5.9885,-5.9885,-5.9885,-5.9885,-5.9885,-5.9885,-5.9885,-5.9885,-5.9885,-5.9885,-5.9885,-5.9885,-5.9885,-5.9885,-5.9885,-5.9885,-5.9885,-5.9885,-5.9885,-5.9885,-5.9885,-5.9748,-5.938,-5.9026,-5.8669,-5.8157,-5.7996,-5.7737,-5.732,-5.7239,-5.7188,-5.7188,-5.7188,-5.7188,-5.7188,-5.7188,-5.7116,0.0,0.0,0.0,0.0,0.0,0.0,0.0,0.0,0.0,0.0,0.0,-4.5297,-4.5297,0.0,-4.543,-4.5831,-4.6211,-4.6587,-4.6984,-4.7781,-4.8138,-4.77,-4.84,-4.9061,-4.9461,-5.0582,-5.1494,-5.1973,-5.3081,-5.3946,-5.4448,-5.4733,-5.4931,-5.496,-5.4931,-5.4901,-5.4901,-5.4901,-5.5129,-5.5546,-5.5546,-5.5981,-5.6796,-5.6796,-5.7024,-5.7422,-5.7858,-5.8047,-5.8066,-5.8483,-5.8653,-5.8653,-5.8653,-5.8142,-5.7441,-5.7876,-5.8047,-5.8104,-5.8502,-5.8653,-5.8653,-5.8653,-5.8653,-5.8729,-5.9165,-5.9298,-5.9374,-5.9791,-5.9885,-5.9885,-5.9885,-5.9885,-5.9885,-5.9885,-5.9885,-5.9885,-5.9885,-5.9885,-5.9885,-5.9885,-5.9885,-5.9885,-5.9885,-5.9885,-5.9885,-5.9885,-5.9885,-5.9885,-5.9885,-5.9885,-6.0037,-6.0454,-6.0492,-6.0681,-6.1117,-6.0947,-6.0604,-6.0142,-5.9295,-5.8739,-5.851,-5.7909,-5.7419,-5.7188,-5.7188,-5.7188,-5.7188,-5.7188,-5.7188,-5.7188,-5.7188,-5.7138,0.0,0.0,0.0,0.0,0.0,0.0,0.0,0.0,-4.5297,-4.5297,-4.5297,-4.5354,-4.5488,-4.5526,-4.5793,-4.6593,-4.6816,-4.7133,-4.7815,-4.8604,-4.9112,-4.9087,-4.9062,-4.9385,-5.0228,-5.0976,-5.183,-5.2737,-5.35,-5.4248,-5.4933,-5.4931,-5.4901,-5.4901,-5.4901,-5.4977,-5.5148,-5.5148,-5.5583,-5.6436,-5.6436,-5.6853,-5.7649,-5.7649,-5.7744,-5.7914,-5.8616,-5.8919,-5.8976,-5.962,-5.9885,-5.9885,-5.9885,-5.907,-5.7971,-5.8672,-5.8919,-5.9014,-5.9677,-5.9885,-5.9885,-5.9885,-5.9885,-5.9885,-5.9885,-5.9885,-5.9885,-5.9885,-5.9885,-5.9885,-5.9885,-5.9885,-5.9885,-5.9885,-5.9885,-5.9885,-5.9885,-5.9885,-5.9885,-5.9885,-5.9885,-5.9885,-5.9885,-5.9885,-5.9885,-5.9885,-5.9885,-5.9942,-6.0094,-6.0132,-6.0435,-6.1269,-6.1345,-6.1648,-6.2349,-6.1902,-6.1375,-6.1038,-5.9863,-5.9182,-5.9182,-5.8187,-5.7659,-5.7659,-5.7659,-5.7659,-5.7659,-5.7659,-5.7587,-5.7391,-5.7536,-5.7394,-4.5338,-4.5317,-4.5317,-4.5297,-4.5297,-4.5297,0.0,0.0,-4.5297,-4.5297,-4.5297,-4.5507,-4.6233,-4.6366,-4.6631,-4.7446,-4.8205,-4.8691,-4.8688,-4.9385,-4.9853,-4.9792,-4.9827,-5.0168,-5.1006,-5.1793,-5.2627,-5.3509,-5.4314,-5.4806,-5.4901,-5.4901,-5.4901,-5.4901,-5.4901,-5.528,-5.6038,-5.6057,-5.6455,-5.727,-5.727,-5.7706,-5.854,-5.854,-5.8938,-5.962,-5.9715,-5.9772,-5.9772,-5.9847,-5.9885,-5.9885,-5.9885,-5.9791,-5.962,-5.9715,-5.9772,-5.9772,-5.9866,-5.9885,-5.9885,-5.9885,-5.9885,-5.9885,-5.9885,-5.9885,-5.9885,-5.9885,-5.9885,-5.9885,-5.9885,-5.9885,-5.9885,-5.9885,-5.9885,-5.9885,-5.9885,-5.9885,-5.9885,-5.9885,-5.9885,-5.9885,-5.9885,-5.9885,-5.9885,-5.9885,-5.9885,-6.0151,-6.0871,-6.0966,-6.1288,-6.2159,-6.2254,-6.2292,-6.2406,-6.1576,-6.1044,-6.1001,-6.0091,-5.9556,-5.9556,-5.9379,-5.9343,-5.9343,-5.9343,-5.9343,-5.9343,-5.9343,-5.8911,-5.8085,-5.8789,-5.8356,-4.5317,-4.5297,-4.5297,-4.5297,-4.5297,-4.5297,-4.5297,-4.5297,-4.5297,-4.5297,-4.566,-4.6099,-4.6443,-4.6899,-4.7465,0.0,-4.8705,-4.9036,-4.9435,-4.9751,-5.0115,-5.0599,-5.0684,-5.0835,-5.1168,-5.24,-5.3309,-5.3669,-5.4446,-5.4901,-5.4901,-5.4901,-5.5129,-5.564,-5.5659,-5.6057,-5.6891,-5.6891,-5.7308,-5.8161,-5.8161,-5.8578,-5.9393,-5.9393,-5.9563,-5.9885,-5.9885,-5.9885,-5.9885,-5.9885,-5.9885,-5.9885,-5.9885,-5.9885,-5.9885,-5.9885,-5.9885,-5.9885,-5.9885,-5.9885,-5.9885,-5.9885,-5.9885,-5.9885,-5.9885,-5.9885,-5.9885,-5.9885,-5.9885,-5.9885,-5.9885,-5.9885,-5.9885,-5.9885,-5.9885,-5.9885,-5.9885,-5.9885,-5.9885,-5.9885,-5.9885,-5.9885,-5.9885,-6.0283,-6.0586,-6.0586,-6.0586,-6.089,-6.1743,-6.1856,-6.2178,-6.3012,-6.3562,-6.3631,-6.3022,-6.2649,-6.2225,-6.1624,-6.0783,-6.0303,-6.0303,-5.985,-5.9615,-5.9615,-5.9615,-5.9615,-5.9615,-5.9615,-5.9381,-5.9003,-5.9293,-5.8988,-4.5317,-4.5297,-4.5297,-4.5297,-4.5297,-4.5297,-4.5297,-4.5468,-4.5621,-4.5621,-4.629,-4.694,-4.7147,-4.7674,-4.8334,-4.9148,-4.9182,-4.9416,-5.0225,-5.0285,-5.058,-5.1433,-5.1755,-5.1907,-5.1907,-5.2987,-5.3783,-5.401,-5.4579,-5.4901,-5.4901,-5.5129,-5.5546,-5.6171,-5.6417,-5.6929,-5.7744,-5.7763,-5.818,-5.9014,-5.9014,-5.9336,-5.9885,-5.9885,-5.9885,-5.9885,-5.9885,-5.9885,-5.9885,-5.9885,-5.9885,-5.9885,-5.9885,-5.9885,-5.9885,-5.9885,-5.9885,-5.9885,-5.9885,-5.9885,-5.9885,-5.9885,-5.9885,-5.9885,-5.9885,-5.9885,-5.9885,-5.9885,-5.9885,-5.9885,-5.9885,-5.9885,-5.9885,-5.9885,-5.9885,-5.9885,-5.9885,-5.9885,-5.9885,-5.9885,-6.0075,-6.0226,-6.0226,-6.0909,-6.1534,-6.1761,-6.178,-6.2027,-6.2652,-6.2955,-6.3281,-6.3724,-6.4311,-6.4349,-6.3487,-6.3317,-6.2977,-6.2238,-6.1498,-6.1136,-6.1136,-6.0575,-6.0267,-6.0267,-6.0267,-6.0214,-6.0214,-6.0214,-6.0052,-5.9763,-5.9889,-5.9707,-4.5297,-4.5297,-4.5297,-4.5297,-4.5297,-4.5297,-4.5297,-4.5908,-4.6462,-4.6462,-4.7169,-4.8006,-4.8777,-4.8948,-4.9186,-4.986,-4.9967,-5.0244,-5.1035,-5.1168,-5.1471,-5.2286,-5.312,-5.3631,0.0,-5.3669,-5.4029,-5.4806,-5.4901,-5.4901,-5.4901,-5.5697,-5.6171,-5.619,-5.6948,-5.7782,-5.8635,-5.8653,-5.907,-5.9847,-5.9847,-5.9866,-5.9885,-5.9885,-5.9885,-5.9885,-5.9885,-5.9885,-5.9885,-5.9885,-5.9885,-5.9885,-5.9885,-5.9885,-5.9885,-5.9885,-5.9885,-5.9885,-5.9885,-5.9885,-5.9885,-5.9885,-5.9885,-5.9885,-5.9885,-5.9885,-5.9885,-5.9885,-5.9885,-5.9885,-5.9885,-5.9885,-5.9885,-5.9885,-5.9885,-5.9885,-5.9885,-5.9885,-5.9885,-5.9885,-6.053,-6.106,-6.106,-6.178,-6.2633,-6.341,-6.3524,-6.3543,-6.3562,-6.4301,-6.4669,-6.4251,-6.423,-6.399,-6.3461,-6.2999,-6.2695,-6.2695,-6.2255,-6.1969,-6.1969,-6.1951,-6.1951,-6.1951,-6.1951,-6.1841,-6.173,-6.173,-6.1186,-6.0131,-6.088,-6.0769,-4.5297,-4.5297,-4.5297,-4.5297,-4.5297,-4.543,-4.5965,-4.6309,-4.6672,-4.7245,-4.8067,-4.8754,-4.9018,-4.9444,-4.9784,-5.0044,-5.0472,-5.0892,-5.1168,-5.1661,-5.2324,-5.3158,-5.3518,0.0,0.0,0.0,0.0,-5.4882,-5.4901,-5.5148,-5.5735,-5.6038,-5.6702,-5.782,-5.8104,-5.8653,-5.9487,-5.9487,-5.962,-5.9885,-5.9885,-5.9885,-5.9885,-5.9885,-5.9885,-5.9885,-5.9885,-5.9885,-5.9885,-5.9885,-5.9885,-5.9885,-5.9885,-5.9885,-5.9885,-5.9885,-5.9885,-5.9885,-5.9885,-5.9885,-5.9885,-5.9885,-5.9885,-5.9885,-5.9885,-5.9885,-5.9885,-5.9885,-5.9885,-5.9885,-5.9885,-5.9885,-5.9885,-5.9885,-5.9885,-5.9885,-5.9885,-5.9885,-6.0056,-6.0586,-6.0909,-6.1269,-6.1856,-6.2652,-6.3362,-6.3917,-6.4254,-6.4471,-6.4471,-6.4463,-6.4386,-6.4209,-6.3888,-6.3461,-6.2951,-6.2776,-6.2563,-6.2273,-6.2096,-6.2023,-6.2023,-6.1895,-6.1858,-6.1858,-6.1802,-6.169,-6.169,-6.169,-6.149,-6.1106,-6.1261,-6.1109,-4.5297,-4.5297,-4.5297,-4.5297,-4.5507,-4.5851,-4.6385,-4.6978,-4.7589,-4.8143,-4.8945,-4.9519,-4.9472,-4.9815,-5.0196,-5.0449,-5.09,-5.1414,-5.2021,-5.2551,-5.3177,-5.4029,-5.4124,-5.4333,0.0,0.0,0.0,-5.4901,-5.5185,-5.5602,-5.6171,-5.6758,-5.7592,-5.8653,-5.8976,-5.9374,-5.9885,-5.9885,-5.9885,-5.9885,-5.9885,-5.9885,-5.9885,-5.9885,-5.9885,-5.9885,-5.9885,-5.9885,-5.9885,-5.9885,-5.9885,-5.9885,-5.9885,-5.9885,-5.9885,-5.9885,-5.9885,-5.9885,-5.9885,-5.9885,-5.9885,-5.9885,-5.9885,-5.9885,-5.9885,-5.9885,-5.9885,-5.9885,-5.9885,-5.9885,-5.9885,-5.9885,-5.9885,-5.9885,-5.9885,-5.9885,-5.9885,-6.0132,-6.0473,-6.0984,-6.1572,-6.2178,-6.2747,-6.3524,-6.4138,-6.4426,-6.4558,-6.4577,-6.4387,-6.4113,-6.3864,-6.3674,-6.3344,-6.297,-6.2479,-6.2427,-6.2308,-6.2005,-6.2023,-6.2023,-6.2023,-6.1913,-6.1858,-6.1802,-6.169,-6.1633,-6.1501,-6.1501,-6.1462,-6.1404,-6.127,-6.1211,-4.5297,-4.5316,-4.5354,-4.5354,-4.5965,-4.6577,-4.6615,-4.7914,-4.9098,-4.9137,-4.9767,-5.0274,0.0,0.0,-5.0399,-5.1158,-5.13,-5.1888,-5.348,-5.3745,-5.4048,0.0,0.0,0.0,0.0,0.0,0.0,-5.4958,0.0,-5.6228,-5.6323,-5.7839,-5.871,-5.8748,-5.9487,-5.9885,-5.9885,-5.9885,-5.9885,-5.9885,-5.9885,-5.9885,-5.9885,-5.9885,-5.9885,-5.9885,-5.9885,-5.9885,-5.9885,-5.9885,-5.9885,-5.9885,-5.9885,-5.9885,-5.9885,-5.9885,-5.9885,-5.9885,-5.9885,-5.9885,-5.9885,-5.9885,-5.9885,-5.9885,-5.9885,-5.9885,-5.9885,-5.9885,-5.9885,-5.9885,-5.9885,-5.9885,-5.9885,-5.9885,-5.9885,-5.9904,-5.9942,-6.0549,-6.1117,-6.1212,-6.2538,-6.3641,-6.3676,-6.4323,-6.4817,-6.4853,-6.4463,-6.3948,-6.3505,-6.3397,-6.3169,-6.2745,-6.2695,-6.2479,-6.206,-6.2023,-6.2023,-6.2023,-6.2023,-6.2023,-6.2023,-6.2023,-6.1913,-6.1802,-6.1802,-6.1615,-6.131,-6.131,-6.1211,-6.1093,-6.1093,-6.1093,-4.5297,-4.5736,-4.6194,-4.6194,-4.6844,-4.7646,-4.8296,-4.8774,-4.927,-4.9862,-5.0126,-5.0422,0.0,0.0,0.0,-5.2028,-5.2675,0.0,-5.365,-5.4219,0.0,-5.4882,0.0,-5.4901,-5.4901,-5.4901,0.0,0.0,-5.6076,-5.6739,-5.799,-5.8464,-5.8957,-5.9563,-5.9791,-5.9885,-5.9885,-5.9885,-5.9885,-5.9885,-5.9885,-5.9885,-5.9885,-5.9885,-5.9885,-5.9885,-5.9885,-5.9885,-5.9885,-5.9885,-5.9885,-5.9885,-5.9885,-5.9885,-5.9885,-5.9885,-5.9885,-5.9885,-5.9885,-5.9885,-5.9885,-5.9885,-5.9885,-5.9885,-5.9885,-5.9885,-5.9885,-5.9885,-5.9885,-5.9885,-5.9885,-5.9885,-5.9885,-5.9885,-5.9885,-6.0056,-6.0643,-6.0947,-6.1458,-6.2728,-6.3539,-6.4181,-6.4495,-6.414,-6.393,-6.4328,-6.3631,-6.3298,-6.3907,-6.3344,-6.2825,-6.2695,-6.2394,-6.215,-6.2023,-6.2023,-6.2023,-6.2023,-6.2023,-6.2023,-6.2023,-6.1913,-6.1858,-6.1802,-6.1559,-6.1386,-6.131,-6.1211,-6.1152,-6.1093,-6.1093,-6.1093,-4.5674,-4.6135,-4.6596,-4.6934,-4.7678,-4.8461,-4.8938,-4.932,-4.9701,-5.0135,-5.0512,-5.0887,-5.1332,-5.1635,-5.2094,0.0,0.0,0.0,-5.4181,-5.4617,-5.4901,0.0,-5.4901,0.0,-5.5432,-5.547,-5.5981,0.0,-5.6929,-5.7289,-5.8616,-5.9014,-5.943,-5.9885,-5.9885,-5.9885,-5.9885,-5.9885,-5.9885,-5.9885,-5.9885,-5.9885,-5.9885,-5.9885,-5.9885,-5.9885,0.0,-5.9885,-5.9885,-5.9885,-5.9885,-5.9885,-5.9885,-5.9885,-5.9885,-5.9885,-5.9885,-5.9885,-5.9885,-5.9885,-5.9885,-5.9885,-5.9885,-5.9885,-5.9885,-5.9885,-5.9885,-5.9885,-5.9885,-5.9885,-5.9885,-5.9885,-5.998,-6.034,-6.0416,-6.0643,-6.1496,-6.1776,-6.2201,-6.3313,-6.3694,-6.393,-6.4212,-6.3766,-6.3505,-6.3803,-6.3206,-6.2873,-6.3498,-6.2861,-6.2394,-6.2394,-6.2132,-6.2023,-6.2023,-6.2023,-6.2023,-6.2023,-6.2023,-6.1969,-6.1895,-6.1913,-6.1784,-6.1559,-6.1501,-6.1386,-6.1211,-6.1152,-6.1093,-6.1093,-6.1093,-6.1093,-4.6183,-4.6533,-4.686,-4.7671,-4.8505,-4.9177,-4.9153,-4.9687,-5.0201,-5.026,-5.0894,-5.151,-5.1608,-5.2189,-5.2921,-5.3726,0.0,-5.4105,-5.4806,-5.4901,-5.4901,-5.4901,-5.4901,-5.5242,-5.6114,-5.619,-5.6891,-5.8559,-5.799,-5.7952,-5.8805,-5.9506,-5.9885,-5.9885,-5.9885,-5.9885,-5.9885,-5.9885,-5.9885,-5.9885,-5.9885,-5.9885,-5.9885,-5.9885,-5.9885,-5.9885,0.0,0.0,-5.9885,-5.9885,-5.9885,-5.9885,-5.9885,-5.9885,-5.9885,-5.9885,-5.9885,-5.9885,-5.9885,-5.9885,-5.9885,-5.9885,-5.9885,-5.9885,-5.9885,-5.9885,-5.9885,-5.9885,-5.9885,-5.9885,-5.9885,-5.998,-6.0226,-6.0928,-6.1141,-6.1429,-6.2299,-6.273,-6.305,-6.3356,-6.3352,-6.3307,-6.3397,-6.3325,-6.3234,-6.3307,-6.2922,-6.2613,-6.2613,-6.2273,-6.2023,-6.2023,-6.2023,-6.2023,-6.2023,-6.2023,-6.2023,-6.2023,-6.2023,-6.1969,-6.1858,-6.1913,-6.1784,-6.1368,-6.1501,-6.1404,-6.1152,-6.1093,-6.1093,-6.1093,-6.1093,-6.1093,-4.6161,-4.6927,-4.769,-4.8476,-4.9338,-4.9973,-4.9923,-5.0012,0.0,-5.104,-5.1281,-5.1741,-5.3119,-5.3443,-5.3745,-5.456,-5.4693,-5.475,-5.4882,-5.4901,-5.4901,0.0,-5.4901,-5.5242,-5.6114,-5.619,0.0,0.0,0.0,-5.8824,-5.9639,-5.9809,-5.9885,-5.9885,-5.9885,-5.9885,-5.9885,-5.9885,-5.9885,-5.9885,-5.9885,-5.9885,-5.9885,-5.9885,-5.9885,-5.9885,-5.9885,0.0,-5.9885,-5.9885,-5.9885,-5.9885,-5.9885,-5.9885,-5.9885,-5.9885,-5.9885,-5.9885,-5.9885,-5.9885,-5.9885,-5.9885,-5.9885,-5.9885,-5.9885,-5.9885,-5.9885,-5.9885,-5.9885,-5.9885,-5.9885,-6.0378,-6.0928,-6.106,-6.1349,-6.1808,-6.2635,-6.3084,-6.3319,-6.3379,-6.3094,-6.2951,-6.3307,-6.2763,-6.236,-6.2776,-6.2446,-6.215,-6.215,-6.206,-6.2023,-6.2023,-6.2023,-6.2023,-6.2023,-6.2023,-6.2023,-6.2023,-6.2023,-6.1969,-6.1969,-6.1858,-6.1802,-6.1728,-6.1501,-6.131,-6.127,-6.1152,-6.1093,-6.1093,-6.1093,-6.1093,-4.6735,-4.7638,-4.8514,-4.9277,-4.9797,-5.0108,-5.0057,-5.0399,0.0,-5.122,-5.1999,-5.2853,-5.3594,-5.4059,-5.4446,-5.4844,-5.4901,-5.4901,-5.4901,-5.4901,-5.4901,-5.4901,-5.4901,-5.5413,0.0,-5.6815,0.0,0.0,0.0,-5.9487,-5.9866,-5.9885,-5.9885,-5.9885,-5.9885,-5.9885,-5.9885,-5.9885,-5.9885,-5.9885,-5.9885,-5.9885,-5.9885,-5.9885,-5.9885,-5.9885,-5.9885,0.0,-5.9885,-5.9885,-5.9885,-5.9885,-5.9885,-5.9885,-5.9885,-5.9885,-5.9885,-5.9885,-5.9885,-5.9885,-5.9885,-5.9885,-5.9885,-5.9885,-5.9885,-5.9885,-5.9885,-5.9885,-5.9885,-5.9999,-6.0416,-6.0795,-6.1273,-6.1897,-6.2311,-6.2636,-6.2766,-6.291,-6.2951,-6.2713,-6.2479,-6.2394,-6.2613,-6.2326,-6.206,-6.2308,-6.2132,-6.2023,-6.2023,-6.2023,-6.2023,-6.2023,-6.2023,-6.2023,-6.2023,-6.2023,-6.2023,-6.2023,-6.2023,-6.1969,-6.1913,-6.1913,-6.1784,-6.1559,-6.1501,-6.1386,-6.1211,-6.1152,-6.1093,-6.1093,-6.1093,-6.1093,-4.7517,-4.8327,-4.9049,-4.9796,-5.0005,-5.0062,-5.0206,-5.0776,-5.1383,-5.1661,-5.2836,-5.3832,-5.3935,-5.4465,-5.4901,-5.4901,-5.4901,-5.4901,-5.4901,-5.4901,-5.4901,0.0,-5.5072,0.0,-5.7251,-5.7573,0.0,0.0,0.0,0.0,-5.9885,-5.9885,-5.9885,-5.9885,-5.9885,-5.9885,-5.9885,-5.9885,-5.9885,-5.9885,-5.9885,-5.9885,-5.9885,-5.9885,-5.9885,-5.9885,-5.9885,0.0,0.0,-5.9885,-5.9885,-5.9885,-5.9885,-5.9885,-5.9885,-5.9885,-5.9885,-5.9885,-5.9885,-5.9885,-5.9885,-5.9885,-5.9885,-5.9885,-5.9885,-5.9885,-5.9885,-5.9885,-6.0018,-6.0283,-6.0928,-6.1363,-6.1886,-6.278,-6.3128,-6.3141,-6.2645,-6.2563,-6.2446,-6.2042,-6.2023,-6.2023,-6.2023,-6.2023,-6.2023,-6.2023,-6.2023,-6.2023,-6.2023,-6.2023,-6.2023,-6.2023,-6.2023,-6.2023,-6.2023,-6.2023,-6.2023,-6.2023,-6.1969,-6.1913,-6.1802,-6.184,-6.1672,-6.131,-6.1462,-6.1346,-6.1093,-6.1093,-6.1093,-6.1111,-6.0956,-6.0896,-4.8239,-4.8732,-4.8998,-4.9717,-4.9933,-5.0187,-5.093,-5.1149,-5.1642,-5.3158,-5.3594,-5.3916,-5.4655,-5.4844,-5.4901,-5.4901,-5.4901,-5.4901,-5.4901,-5.4901,-5.4901,-5.4901,0.0,0.0,-5.7308,-5.8123,0.0,0.0,0.0,0.0,-5.9885,-5.9885,-5.9885,-5.9885,-5.9885,-5.9885,-5.9885,-5.9885,-5.9885,-5.9885,-5.9885,-5.9885,-5.9885,-5.9885,-5.9885,-5.9885,-5.9885,0.0,0.0,-5.9885,-5.9885,-5.9885,-5.9885,-5.9885,-5.9885,-5.9885,-5.9885,-5.9885,-5.9885,-5.9885,-5.9885,-5.9885,-5.9885,-5.9885,-5.9885,-5.9885,-5.9885,-5.9885,-6.0416,-6.1003,-6.1079,-6.2235,-6.3385,-6.3345,-6.3039,-6.2663,-6.2185,-6.2042,-6.206,-6.2023,-6.2023,-6.2023,-6.2023,-6.2023,-6.2023,-6.2023,-6.2023,-6.2023,-6.2023,-6.2023,-6.2023,-6.2023,-6.2023,-6.2023,-6.2023,-6.2023,-6.2023,-6.2023,-6.1913,-6.1802,-6.1802,-6.1501,-6.131,-6.131,-6.1211,-6.1152,-6.1093,-6.1093,-6.1093,-6.1093,-6.0415,-6.0083,-4.8415,-4.9098,-4.9535,-4.983,-4.9925,-5.0153,-5.1016,-5.1585,-5.2267,-5.3461,-5.4086,-5.4522,-5.4844,-5.4901,-5.4901,-5.4901,-5.4901,-5.4901,-5.4901,-5.5356,-5.5489,-5.4958,-5.6095,0.0,0.0,0.0,0.0,0.0,0.0,0.0,-5.9885,-5.9885,-5.9885,-5.9885,-5.9885,-5.9885,-5.9885,-5.9885,-5.9885,-5.9885,-5.9885,-5.9885,-5.9885,-5.9885,-5.9885,-5.9885,-5.9885,0.0,0.0,-5.9885,-5.9885,-5.9885,-5.9885,-5.9885,-5.9885,-5.9885,-5.9885,-5.9885,-5.9885,-5.9885,-5.9885,-5.9885,-5.9885,-5.9885,-5.9885,-5.9885,-5.9999,-6.0492,-6.0852,-6.1326,-6.2349,-6.3031,-6.3397,-6.3067,-6.2613,-6.222,-6.206,-6.2023,-6.2023,-6.2023,-6.2023,-6.2023,-6.2023,-6.2023,-6.2023,-6.2023,-6.2023,-6.2023,-6.2023,-6.2023,-6.2023,-6.2023,-6.2023,-6.2023,-6.2023,-6.1913,-6.1858,-6.1858,-6.1746,-6.169,-6.169,-6.1577,-6.1444,-6.131,-6.127,-6.1152,-6.1093,-6.1093,-6.1093,-6.1093,-6.0352,-6.0019,-4.8818,-4.9462,-4.9898,-4.9898,-5.0088,-5.0505,-5.1357,-5.2191,-5.3044,-5.3878,-5.4503,-5.4901,-5.4901,-5.4901,-5.4901,-5.4901,-5.4901,-5.4901,-5.4901,-5.564,-5.5962,-5.5356,0.0,0.0,0.0,0.0,0.0,0.0,0.0,0.0,0.0,-5.9885,-5.9885,-5.9885,-5.9885,-5.9885,-5.9885,-5.9885,-5.9885,-5.9885,-5.9885,-5.9885,-5.9885,-5.9885,-5.9885,-5.9885,0.0,0.0,0.0,-5.9885,-5.9885,-5.9885,-5.9885,-5.9885,-5.9885,-5.9885,-5.9885,-5.9885,-5.9885,-5.9885,-5.9885,-5.9885,-5.9885,-5.9885,-5.9885,-5.9885,-6.0056,-6.0871,-6.1372,-6.1949,-6.3404,-6.348,-6.3094,-6.2776,-6.236,-6.2023,-6.2023,-6.2023,-6.2023,-6.2023,-6.2023,-6.2023,-6.2023,-6.2023,-6.2023,-6.2023,-6.2023,-6.2023,-6.2023,-6.2023,-6.195,-6.1969,-6.1969,-6.195,-6.1969,-6.1858,-6.1802,-6.1746,-6.1577,-6.1519,-6.1519,-6.1462,-6.1404,-6.1252,-6.127,-6.1211,-6.1093,-6.1093,-6.0974,-6.0757,-6.0001,-5.9464,-4.9652,-4.9879,-4.9898,-4.9898,-5.0542,-5.1414,-5.221,-5.3063,-5.3916,-5.4731,-5.4901,-5.4901,-5.4901,-5.4901,-5.4901,-5.4901,-5.4901,-5.4901,-5.4901,-5.564,-5.619,0.0,0.0,0.0,0.0,0.0,0.0,0.0,0.0,0.0,0.0,-5.9885,-5.9885,-5.9885,-5.9885,-5.9885,-5.9885,-5.9885,-5.9885,-5.9885,-5.9885,-5.9885,-5.9885,-5.9885,-5.9885,0.0,0.0,0.0,0.0,-5.9885,-5.9885,-5.9885,-5.9885,-5.9885,-5.9885,-5.9885,-5.9885,-5.9885,-5.9885,-5.9885,-5.9885,-5.9885,-5.9885,-5.9885,-5.9885,-5.9885,-6.0056,-6.0871,-6.1955,-6.3083,-6.3965,-6.3435,-6.2695,-6.2695,-6.236,-6.2023,-6.2023,-6.2023,-6.2023,-6.2023,-6.2023,-6.2023,-6.2023,-6.2023,-6.2023,-6.2023,-6.2023,-6.2023,-6.2023,-6.2023,-6.1969,-6.1802,-6.1913,-6.1969,-6.1802,-6.1802,-6.1746,-6.1633,-6.1386,-6.131,-6.131,-6.1152,-6.1093,-6.1093,-6.1093,-6.1093,-6.1093,-6.1093,-6.0696,-6.0001,-5.923,-5.814,-4.9671,-4.9898,-4.9898,-4.9898,-5.0561,-5.1414,-5.2229,-5.3082,-5.3935,-5.4731,-5.4901,-5.4901,-5.4901,-5.4901,-5.4901,-5.4901,-5.4901,-5.4901,-5.4901,0.0,0.0,-5.5375,-5.6796,0.0,0.0,0.0,0.0,0.0,0.0,0.0,0.0,-5.9885,-5.9885,-5.9885,-5.9885,-5.9885,-5.9885,-5.9885,-5.9885,-5.9885,-5.9885,-5.9885,-5.9885,-5.9885,0.0,0.0,0.0,0.0,0.0,-5.9885,-5.9885,-5.9885,-5.9885,-5.9885,-5.9885,-5.9885,-5.9885,-5.9885,-5.9885,-5.9885,-5.9885,-5.9885,-5.9885,-5.9947,-6.0184,-6.0478,-6.097,-6.2032,-6.2776,-6.3214,-6.3178,-6.2922,-6.2613,-6.2308,-6.2096,-6.2023,-6.2023,-6.2023,-6.2023,-6.2023,-6.2023,-6.2023,-6.2023,-6.2023,-6.2023,-6.2023,-6.2023,-6.2023,-6.2023,-6.1913,-6.1858,-6.1802,-6.1746,-6.169,-6.169,-6.1633,-6.1577,-6.1386,-6.127,-6.1152,-6.1152,-6.1093,-6.1093,-6.1093,-6.1093,-6.1093,-6.1093,-6.1093,-6.0477,-5.9247,-5.8494,-5.7668,-4.9746,-4.9898,-4.9898,-4.9898,-5.0789,-5.1793,-5.2305,-5.3309,-5.4295,-5.4806,-5.4901,-5.4901,-5.4901,-5.4901,-5.4901,-5.4901,-5.4901,-5.4901,0.0,0.0,0.0,-5.6323,0.0,0.0,0.0,0.0,0.0,0.0,0.0,0.0,0.0,-5.9885,-5.9885,-5.9885,-5.9885,-5.9885,-5.9885,-5.9885,-5.9885,-5.9885,-5.9885,-5.9885,-5.9885,-5.9885,0.0,0.0,0.0,0.0,0.0,-5.9885,-5.9885,-5.9885,-5.9885,-5.9885,-5.9885,-5.9885,-5.9885,-5.9885,-5.9681,-5.9748,-5.9885,-5.9681,-5.9855,-6.0203,-6.0881,-6.1297,-6.1657,-6.2414,-6.2891,-6.3047,-6.2794,-6.2563,-6.2342,-6.206,-6.2023,-6.2023,-6.2023,-6.2023,-6.2023,-6.2023,-6.2023,-6.2023,-6.2023,-6.2023,-6.2023,-6.2023,-6.1969,-6.1913,-6.1913,-6.1802,-6.169,-6.1615,-6.1577,-6.1519,-6.1404,-6.1462,-6.1386,-6.127,-6.1152,-6.1093,-6.1093,-6.1093,-6.1093,-6.1093,-6.1093,-6.1093,-6.1093,-6.0538,-5.9644,-5.8494,-5.7741,-5.7105,0.0,-4.9898,-4.9898,-4.9898,-5.1168,-5.24,-5.24,-5.3707,0.0,-5.4901,-5.4901,-5.4901,-5.4901,-5.4901,-5.4901,-5.4901,-5.4901,-5.4901,0.0,-5.5602,0.0,0.0,0.0,0.0,0.0,0.0,0.0,0.0,0.0,0.0,0.0,-5.9885,-5.9885,-5.9885,-5.9885,-5.9885,-5.9885,-5.9885,-5.9885,-5.9885,-5.9885,-5.9885,-5.9885,-5.9885,0.0,0.0,0.0,0.0,0.0,-5.9885,-5.9885,-5.9885,-5.9885,-5.9885,-5.9885,-5.9885,-5.9885,-5.9801,-5.9344,-5.947,-5.9734,-5.9364,-5.9778,-6.0617,-6.1788,-6.2138,-6.2157,-6.2213,-6.2446,-6.2645,-6.2645,-6.2308,-6.2023,-6.2023,-6.2023,-6.2023,-6.2023,-6.2023,-6.2023,-6.2023,-6.2023,-6.2023,-6.2023,-6.2023,-6.2023,-6.2023,-6.1913,-6.1802,-6.1802,-6.169,-6.1519,-6.131,-6.1462,-6.1462,-6.1093,-6.1211,-6.1252,-6.1093,-6.1093,-6.1093,-6.1093,-6.1093,-6.1093,-6.1093,-6.1034,-6.0974,-6.0956,-5.9513,-5.8494,-5.7814,-5.7046,-5.668,-4.9898,0.0,-4.9898,-4.9898,-5.1168,-5.24,0.0,-5.3707,-5.4901,-5.4901,-5.4901,-5.4901,-5.4901,-5.4901,-5.4901,-5.4901,-5.4901,-5.4901,-5.4901,0.0,0.0,0.0,0.0,0.0,0.0,0.0,0.0,0.0,0.0,0.0,0.0,-5.9885,-5.9885,-5.9885,-5.9885,-5.9885,-5.9885,-5.9885,-5.9885,-5.9885,-5.9885,-5.9885,-5.9885,-5.9885,0.0,0.0,0.0,0.0,-5.9885,-5.9885,-5.9885,-5.9885,-5.9885,-5.9885,-5.9885,-5.9885,-5.9681,-5.9344,-5.9252,-5.9065,-5.8982,-5.9477,-5.9968,-6.0481,-6.14,-6.1666,-6.1794,-6.2431,-6.2384,-6.2185,-6.2185,-6.2096,-6.2023,-6.2023,-6.2023,-6.2023,-6.2023,-6.2023,-6.2023,-6.2023,-6.2023,-6.2023,-6.2023,-6.2023,-6.2023,-6.2023,-6.1913,-6.1802,-6.1802,-6.1559,-6.1328,-6.1328,-6.127,-6.117,-6.1111,-6.1211,-6.1252,-6.1093,-6.1093,-6.1093,-6.1093,-6.1093,-6.1093,-6.1093,-6.0556,-6.0001,-5.9429,-5.8494,-5.7942,-5.7814,-5.7046,-5.668,-4.9898,-4.9898,-4.9898,-4.9898,-5.1168,-5.24,-5.24,-5.3707,-5.4901,-5.4901,-5.4901,-5.4901,-5.4901,-5.4901,-5.4901,-5.4901,-5.4901,0.0,0.0,0.0,0.0,0.0,0.0,0.0,0.0,0.0,0.0,0.0,0.0,0.0,0.0,-5.9885,-5.9885,-5.9885,-5.9885,-5.9885,-5.9885,-5.9885,-5.9885,-5.9885,-5.9885,-5.9885,-5.9885,-5.9885,-5.9885,0.0,0.0,0.0,-5.9885,-5.9885,-5.9885,-5.9885,-5.9885,-5.9767,-5.9594,-5.9594,-5.9307,-5.8891,-5.8691,-5.8683,-5.8947,-5.976,-6.0388,-6.0976,-6.1518,-6.1722,-6.1813,-6.2284,-6.2185,-6.2023,-6.2023,-6.2023,-6.2023,-6.2023,-6.2023,-6.2023,-6.2023,-6.2023,-6.2023,-6.2023,-6.2023,-6.2023,-6.2023,-6.2023,-6.2023,-6.2023,-6.1858,-6.169,-6.169,-6.1386,-6.1211,-6.1211,-6.1152,-6.1093,-6.1093,-6.1152,-6.1152,-6.1093,-6.1093,-6.1093,-6.1093,-6.1093,-6.0956,-6.0618,-5.9873,-5.9113,-5.8424,-5.8014,-5.7611,-5.7256,-5.6894,-5.668,-4.9898,-4.9898,-4.9898,-4.9898,-5.1073,-5.2267,-5.2381,-5.3613,-5.475,-5.4863,-5.4901,-5.4901,-5.4901,-5.4901,0.0,-5.4901,0.0,0.0,0.0,0.0,0.0,0.0,0.0,0.0,0.0,0.0,0.0,0.0,0.0,0.0,0.0,-5.9885,-5.9885,-5.9885,-5.9885,-5.9885,-5.9885,-5.9885,-5.9885,-5.9885,-5.9885,-5.9885,-5.9885,-5.9885,-5.9885,0.0,0.0,0.0,-5.9885,-5.9801,-5.9801,-5.9801,-5.9734,-5.947,-5.9103,-5.9103,-5.8852,-5.8418,-5.7951,-5.8315,-5.912,-5.9926,-6.0732,-6.1455,-6.186,-6.2023,-6.2023,-6.2023,-6.2023,-6.2023,-6.2023,-6.2023,-6.2023,-6.2023,-6.2023,-6.2023,-6.2023,-6.2023,-6.2023,-6.2023,-6.2023,-6.2023,-6.2023,-6.2023,-6.2023,-6.2023,-6.1746,-6.1577,-6.1577,-6.1288,-6.1093,-6.1093,-6.1093,-6.1093,-6.1093,-6.1093,-6.1034,-6.0956,-6.1034,-6.1034,-6.0956,-6.0956,-6.0556,-5.9661,-5.9045,-5.8353,-5.7594,-5.7594,-5.7314,-5.668,-5.668,-5.668,-4.9898,-4.9898,-4.9898,-4.9898,-5.0656,-5.1566,-5.2248,-5.3177,-5.4086,-5.4769,-5.4901,-5.4901,-5.4901,-5.4901,-5.4901,0.0,0.0,0.0,0.0,0.0,0.0,0.0,0.0,0.0,0.0,0.0,0.0,0.0,0.0,0.0,0.0,-5.9885,-5.9885,-5.9885,-5.9885,-5.9885,-5.9885,-5.9885,-5.9885,-5.9885,-5.9885,-5.9885,-5.9885,-5.9885,-5.9885,0.0,0.0,-5.9885,-5.9885,-5.947,-5.9289,-5.9252,-5.8949,-5.875,-5.871,-5.871,-5.8418,-5.7951,-5.7468,-5.7815,-5.8631,-5.9429,-6.0245,-6.1044,-6.177,-6.2023,-6.2023,-6.2023,-6.2023,-6.2023,-6.2023,-6.2023,-6.2023,-6.2023,-6.2023,-6.2023,-6.2023,-6.2023,-6.2023,-6.2023,-6.2023,-6.2023,-6.2023,-6.2023,-6.2023,-6.2023,-6.1746,-6.1577,-6.1577,-6.1288,-6.1093,-6.1093,-6.1093,-6.1093,-6.1093,-6.1093,-6.0818,-6.0209,-6.0757,-6.0818,-6.0209,-6.0146,-5.953,-5.8157,-5.8014,-5.7594,-5.6894,-5.6894,-5.6834,-5.668,-5.668,-5.668,-4.9898,-4.9898,-4.9898,-4.9898,-5.0561,-5.13,-5.1679,-5.276,-5.3802,-5.4181,-5.4598,-5.4901,0.0,0.0,-5.4901,-5.4901,0.0,0.0,0.0,0.0,0.0,0.0,0.0,0.0,0.0,0.0,0.0,0.0,0.0,0.0,0.0,0.0,-5.9885,-5.9885,-5.9885,-5.9885,-5.9885,-5.9885,-5.9885,-5.9885,-5.9885,-5.9885,-5.9885,-5.9885,-5.9767,-5.9505,0.0,-5.9399,-5.9197,-5.8969,-5.887,-5.887,-5.8669,-5.8461,-5.8201,-5.7932,-5.7719,-5.7516,-5.7289,-5.8003,-5.9108,-5.9488,-6.0448,-6.1534,-6.1897,-6.2023,-6.2023,-6.2023,-6.2023,-6.2023,-6.2023,-6.2023,-6.2023,-6.2023,-6.2023,-6.2023,-6.2023,-6.2023,-6.2023,-6.2023,-6.2023,-6.2023,-6.2023,-6.2023,-6.2023,-6.2023,-6.1746,-6.1577,-6.1577,-6.1288,-6.1093,-6.1093,-6.1093,-6.1093,-6.1093,-6.0757,-6.0352,-6.0019,-5.9937,-5.9791,-5.9447,-5.9045,-5.8494,-5.7814,-5.7389,-5.7046,-5.668,-5.668,-5.668,-5.668,-5.668,-5.668,-4.9898,-4.9898,-4.9898,-4.9898,-5.0391,-5.0959,-5.1168,-5.2191,-5.3233,-5.3631,-5.42,0.0,0.0,-5.4901,0.0,-5.4901,0.0,0.0,0.0,0.0,0.0,0.0,0.0,0.0,0.0,0.0,0.0,0.0,0.0,0.0,0.0,0.0,-5.9696,-5.9885,-5.9885,-5.9885,-5.9885,-5.9801,-5.9801,-5.9885,-5.9885,-5.9885,-5.9885,-5.9801,-5.954,-5.9196,-5.9084,-5.8891,-5.8586,-5.8461,-5.8418,-5.8418,-5.8332,-5.8068,-5.769,-5.732,-5.7188,-5.7188,-5.7188,-5.8257,-5.9615,-5.9615,-6.0701,-6.2023,-6.2023,-6.2023,-6.2023,-6.2023,-6.2023,-6.2023,-6.2023,-6.2023,-6.2023,-6.2023,-6.2023,-6.2023,-6.2023,-6.2023,-6.2023,-6.2023,-6.2023,-6.2023,-6.2023,-6.2023,-6.1969,-6.1969,-6.1746,-6.1577,-6.1519,-6.127,-6.1093,-6.1093,-6.1093,-6.1034,-6.0836,-6.0019,-5.9464,-5.9464,-5.9113,-5.8823,-5.8616,-5.8086,-5.7741,-5.7537,-5.697,-5.668,-5.668,-5.668,-5.668,-5.668,-5.668,-5.668,-4.9898,-4.9898,-4.9898,-4.9898,-4.9936,-5.0201,-5.1016,-5.13,-5.1831,-5.3385,-5.3745,0.0,0.0,-5.4901,0.0,0.0,0.0,0.0,0.0,0.0,0.0,0.0,0.0,0.0,0.0,0.0,0.0,0.0,0.0,0.0,0.0,0.0,0.0,-5.9866,-5.9885,-5.9885,-5.9885,-5.947,-5.947,-5.9885,-5.9885,-5.9885,-5.9885,-5.947,-5.9252,-5.9178,-5.8831,-5.8628,-5.8586,-5.8113,-5.7951,-5.7905,-5.7468,-5.7289,-5.7239,-5.7188,-5.7188,-5.7188,-5.7188,-5.8257,-5.9615,-5.9615,-6.0701,-6.2023,-6.2023,-6.2023,-6.2023,-6.2023,-6.2023,-6.2023,-6.2023,-6.2023,-6.2023,-6.2023,-6.2023,-6.2023,-6.2023,-6.2023,-6.2023,-6.2023,-6.2023,-6.2023,-6.2023,-6.2023,-6.1969,-6.1858,-6.169,-6.1519,-6.1328,-6.1211,-6.1093,-6.1093,-6.1093,-6.0818,-6.0146,-5.8772,-5.7942,-5.7942,-5.8564,-5.8616,-5.787,-5.7814,-5.7463,-5.6757,-5.6757,-5.668,-5.668,-5.668,-5.668,-5.668,-5.668,-5.668,-4.9898,-4.9898,-4.9898,-4.9898,-4.9898,-4.9974,-5.0315,-5.0808,-5.1528,-5.2665,-5.3328,0.0,0.0,0.0,0.0,0.0,0.0,0.0,0.0,0.0,0.0,0.0,0.0,0.0,0.0,0.0,0.0,0.0,0.0,0.0,0.0,0.0,0.0,-5.9127,-5.8891,-5.8961,-5.9451,-5.9289,-5.9178,-5.9065,-5.9344,-5.9451,-5.947,-5.9289,-5.8912,-5.84,-5.8245,-5.7978,-5.7719,-5.7546,-5.7449,-5.7468,-5.7289,-5.7188,-5.7188,-5.7188,-5.7188,-5.7188,-5.7188,-5.8257,-5.9615,-5.9615,-6.0701,-6.2023,-6.2023,-6.2023,-6.2023,-6.2023,-6.2023,-6.2023,-6.2023,-6.2023,-6.2023,-6.2023,-6.2023,-6.2023,-6.2023,-6.2023,-6.2023,-6.2023,-6.2023,-6.2023,-6.2023,-6.2023,-6.195,-6.1802,-6.169,-6.1519,-6.1328,-6.1211,-6.1093,-6.1093,-6.0696,-5.9937,-5.8703,-5.8086,-5.7594,-5.7105,-5.7389,-5.7389,-5.7105,-5.7105,-5.697,-5.6697,-5.668,-5.668,-5.668,-5.668,-5.668,-5.668,-5.668,-5.668,-4.9898,-4.9898,-4.9898,-4.9898,-4.9898,-4.9898,-4.9898,-5.0353,-5.1016,-5.185,-5.293,-5.3954,-5.475,0.0,0.0,0.0,0.0,0.0,0.0,0.0,0.0,0.0,0.0,0.0,0.0,0.0,0.0,0.0,0.0,0.0,0.0,0.0,0.0,0.0,-5.7903,-5.814,-5.8802,-5.869,-5.8669,-5.8791,-5.8812,-5.8891,-5.9026,-5.8852,-5.8466,-5.7905,-5.7719,-5.7516,-5.7188,-5.7188,-5.7188,-5.7188,-5.7188,-5.7188,-5.7188,-5.7188,-5.7188,-5.7188,-5.7188,-5.8257,-5.9615,-5.9615,-6.0701,-6.2023,-6.2023,-6.2023,-6.2023,-6.2023,-6.2023,-6.2023,-6.2023,-6.2023,-6.2023,-6.2023,-6.2023,-6.2023,-6.2023,-6.2023,-6.2023,-6.2023,-6.2023,-6.2023,-6.2023,-6.2023,-6.1969,-6.1746,-6.1633,-6.1444,-6.0921,-6.0818,-6.0679,-6.0415,-5.9726,-5.8909,-5.7887,-5.7611,-5.7256,-5.6757,-5.668,-5.668,-5.668,-5.668,-5.668,-5.668,-5.668,-5.668,-5.668,-5.668,-5.668,-5.668,-5.668,-5.668,-4.9898,-4.9898,-4.9898,-4.9898,-4.9898,-4.9898,-4.9898,-4.9898,-5.0144,-5.1035,-5.2551,-5.3954,-5.475,-5.4901,0.0,0.0,0.0,0.0,0.0,0.0,0.0,0.0,0.0,0.0,0.0,0.0,0.0,0.0,0.0,0.0,0.0,0.0,0.0,0.0,-5.7154,-5.7583,-5.7975,-5.7523,-5.7933,-5.9159,-5.8295,-5.8157,-5.8586,-5.8113,-5.7905,-5.7859,-5.7419,-5.7188,-5.7188,-5.7188,-5.7188,-5.7188,-5.7188,-5.7188,-5.7188,-5.7188,-5.7188,-5.7188,-5.7188,-5.8257,-5.9615,-5.9615,-6.0701,-6.2023,-6.2023,-6.2023,-6.2023,-6.2023,-6.2023,-6.2023,-6.2023,-6.2023,-6.2023,-6.2023,-6.2023,-6.2023,-6.2023,-6.2023,-6.2023,-6.2023,-6.2023,-6.2023,-6.2023,-6.2023,-6.1913,-6.1633,-6.1577,-6.1193,-6.0146,-6.0019,-5.9726,-5.896,-5.8229,-5.7814,-5.7814,-5.7105,-5.668,-5.668,-5.668,-5.668,-5.668,-5.668,-5.668,-5.668,-5.668,-5.668,-5.668,-5.668,-5.668,-5.668,-5.668,-5.668,-4.9898,-4.9898,0.0,-4.9898,0.0,0.0,0.0,-4.9898,-5.0296,0.0,-5.293,-5.3954,-5.475,0.0,0.0,0.0,0.0,0.0,0.0,0.0,0.0,0.0,0.0,0.0,0.0,0.0,0.0,0.0,0.0,0.0,0.0,0.0,0.0,0.0,-5.5473,-5.5691,-5.6647,-5.6265,-5.6349,-5.6933,-5.7042,-5.7445,-5.8113,-5.7951,-5.7737,-5.7419,-5.7239,-5.7188,-5.7188,-5.7188,-5.7188,-5.7188,-5.7188,-5.7188,-5.7188,-5.7188,-5.7188,-5.7188,-5.7188,-5.8257,-5.9615,-5.9615,-6.0701,-6.2023,-6.2023,-6.2023,-6.2023,-6.2023,-6.2023,-6.2023,-6.2023,-6.2023,-6.2023,-6.2023,-6.2023,-6.2023,-6.2023,-6.2023,-6.2023,-6.2023,-6.2023,-6.2023,-6.2023,-6.1913,-6.1802,-6.1633,-6.1022,-6.0282,-5.938,-5.9247,-5.896,-5.8229,-5.7942,-5.7594,-5.7046,-5.6834,-5.668,-5.668,-5.668,-5.668,-5.668,-5.668,-5.668,-5.668,-5.668,-5.668,-5.668,-5.668,-5.668,-5.668,-5.668,-5.668,-4.9898,-4.9898,0.0,-4.9898,-4.9898,-4.9898,-4.9898,0.0,0.0,0.0,-5.3101,-5.3954,-5.475,0.0,0.0,0.0,0.0,0.0,0.0,0.0,0.0,0.0,0.0,0.0,0.0,0.0,0.0,0.0,0.0,0.0,0.0,0.0,0.0,0.0,-5.4309,-5.4515,-5.5373,-5.5159,-5.5294,-5.5822,-5.5934,-5.64,-5.7167,-5.7496,-5.7468,-5.7188,-5.7188,-5.7188,-5.7188,-5.7188,-5.7188,-5.7188,-5.7188,-5.7188,-5.7188,-5.7188,-5.7188,-5.7188,-5.7188,-5.8257,-5.9615,-5.9615,-6.0701,-6.2023,-6.2023,-6.2023,-6.2023,-6.2023,-6.2023,-6.2023,-6.2023,-6.2023,-6.2023,-6.2023,-6.2023,-6.2023,-6.2023,-6.2023,-6.2023,-6.2023,-6.1969,-6.1913,-6.1913,-6.1802,-6.169,-6.1519,-6.0424,-5.9412,-5.8547,-5.8212,-5.787,-5.7389,-5.7389,-5.7181,-5.6757,-5.668,-5.668,-5.668,-5.668,-5.668,-5.668,-5.668,-5.668,-5.668,-5.668,-5.668,-5.668,-5.668,-5.668,-5.668,-5.668,-5.668,-4.9898,-4.9898,-4.9898,-4.9898,-4.9898,0.0,-4.9993,-5.0694,-5.1528,-5.2267,0.0,-5.3954,0.0,0.0,0.0,0.0,0.0,0.0,0.0,0.0,0.0,0.0,0.0,0.0,0.0,0.0,0.0,0.0,0.0,0.0,0.0,0.0,0.0,0.0,-5.3606,-5.3761,-5.4185,-5.4136,-5.4558,0.0,-5.4982,-5.5178,-5.5921,-5.6717,-5.7134,-5.7188,-5.7188,-5.7188,-5.7188,-5.7188,-5.7188,-5.7188,-5.7188,-5.7188,-5.7188,-5.7188,-5.7188,-5.7188,-5.7188,-5.8202,-5.9506,-5.9579,-6.0647,-6.1915,-6.2005,-6.2023,-6.2023,-6.2023,-6.2023,-6.2023,-6.2023,-6.2023,-6.2023,-6.2023,-6.2023,-6.2023,-6.2023,-6.2023,-6.2023,-6.2023,-6.1913,-6.1802,-6.1802,-6.169,-6.1444,-6.1117,-5.9774,-5.8547,-5.7797,-5.7105,-5.668,-5.668,-5.668,-5.668,-5.668,-5.668,-5.668,-5.668,-5.668,-5.668,-5.668,-5.668,-5.668,-5.668,-5.668,-5.668,-5.668,-5.668,-5.668,-5.668,-5.668,-5.668,-4.9898,-4.9898,0.0,-4.9898,-4.9898,-5.0069,-5.077,-5.1547,-5.2191,-5.2362,-5.3101,0.0,0.0,0.0,0.0,0.0,0.0,0.0,0.0,0.0,0.0,0.0,0.0,0.0,0.0,0.0,0.0,0.0,0.0,0.0,0.0,0.0,0.0,-5.3244,-5.29,-5.2948,-5.3335,-5.3043,-5.3317,0.0,-5.3994,-5.4381,-5.516,-5.5921,-5.6591,-5.7188,-5.7188,-5.7188,-5.7188,-5.7188,-5.7188,-5.7188,-5.7188,-5.7188,-5.7188,-5.7188,-5.7188,-5.7188,-5.7188,-5.784,-5.8764,-5.9398,-6.0267,-6.119,-6.1824,-6.2023,-6.2023,-6.2023,-6.2023,-6.2023,-6.2023,-6.2023,-6.2023,-6.2023,-6.2023,-6.2023,-6.2023,-6.2023,-6.2023,-6.2023,-6.1913,-6.1802,-6.1802,-6.1559,-6.0903,-5.9626,-5.8616,-5.7741,-5.7046,-5.6834,-5.668,-5.668,-5.668,-5.668,-5.668,-5.668,-5.668,-5.668,-5.668,-5.668,-5.668,-5.668,-5.668,-5.668,-5.668,-5.668,-5.668,-5.668,-5.668,-5.668,-5.668,-5.668,-4.9898,-4.9898,0.0,-5.041,0.0,-5.0732,-5.1585,-5.2419,-5.3025,-5.3025,0.0,0.0,0.0,0.0,0.0,0.0,0.0,0.0,0.0,0.0,0.0,0.0,0.0,0.0,0.0,0.0,0.0,0.0,0.0,0.0,0.0,-5.3011,-5.29,-5.3096,-5.2717,-5.2618,-5.2787,-5.2599,-5.2715,-5.3132,-5.3132,-5.3548,-5.4363,-5.5486,-5.6228,-5.6645,-5.7025,-5.7188,-5.7188,-5.7188,-5.7188,-5.7188,-5.7188,-5.7188,-5.7188,-5.7188,-5.7188,-5.7188,-5.7188,-5.7732,-5.8474,-5.8891,-5.9832,-6.0883,-6.1317,-6.1697,-6.2023,-6.2023,-6.2023,-6.2023,-6.2023,-6.2023,-6.2023,-6.2023,-6.2023,-6.2023,-6.2023,-6.2023,-6.1969,-6.1913,-6.1802,-6.1541,-6.1122,-6.0547,-5.9774,-5.8547,-5.8014,-5.752,-5.6757,-5.668,-5.668,-5.668,-5.668,-5.668,-5.668,-5.668,-5.668,-5.668,-5.668,-5.668,-5.668,-5.668,-5.668,-5.668,-5.668,-5.668,-5.668,-5.668,-5.668,-5.668,-5.668,-5.668,-4.9898,-4.9993,-5.0296,-5.1016,-5.13,0.0,-5.2456,-5.3177,-5.3745,-5.3878,0.0,0.0,0.0,0.0,0.0,0.0,0.0,0.0,0.0,0.0,0.0,0.0,0.0,0.0,0.0,0.0,0.0,0.0,0.0,0.0,-5.3468,-5.2875,-5.2645,-5.2987,-5.269,-5.2498,-5.2498,-5.2498,-5.2498,-5.2498,-5.2498,-5.2842,-5.3548,-5.4961,-5.5667,-5.5848,-5.6645,-5.6989,-5.6989,-5.7134,-5.7188,-5.7188,-5.7188,-5.7188,-5.7188,-5.7188,-5.7188,-5.7188,-5.7188,-5.7641,-5.822,-5.8347,-5.9307,-6.0448,-6.0738,-6.1281,-6.1842,-6.1969,-6.2023,-6.2023,-6.2023,-6.2023,-6.2023,-6.2023,-6.2023,-6.2023,-6.2023,-6.1969,-6.1913,-6.1802,-6.1559,-6.1081,-6.0139,-5.9279,-5.8494,-5.787,-5.7668,-5.7389,-5.6757,-5.668,-5.668,-5.668,-5.668,-5.668,-5.668,-5.668,-5.668,-5.668,-5.668,-5.668,-5.668,-5.668,-5.668,-5.668,-5.668,-5.668,-5.668,-5.668,-5.668,-5.668,-5.668,-5.668,-4.9898,0.0,-5.1054,0.0,-5.1736,-5.2475,0.0,0.0,-5.3897,0.0,0.0,0.0,0.0,0.0,0.0,0.0,0.0,0.0,0.0,0.0,0.0,0.0,0.0,0.0,0.0,0.0,0.0,0.0,0.0,0.0,-5.2645,-5.2572,-5.2526,-5.2572,-5.2544,-5.2498,-5.2498,-5.2498,-5.2498,-5.2498,-5.2498,-5.2552,-5.2679,-5.3603,-5.4399,-5.5088,-5.583,-5.6156,-5.621,-5.6899,-5.7188,-5.7188,-5.7188,-5.7188,-5.7188,-5.7188,-5.7188,-5.7188,-5.7188,-5.7261,-5.7478,-5.8166,-5.8546,-5.8981,-6.0394,-6.0883,-6.1118,-6.1824,-6.2023,-6.2023,-6.2023,-6.2023,-6.2023,-6.2023,-6.2023,-6.2023,-6.2023,-6.1913,-6.1802,-6.1802,-6.1063,-6.0139,-5.923,-5.8424,-5.7942,-5.7814,-5.7256,-5.6834,-5.668,-5.668,-5.668,-5.668,-5.668,-5.668,-5.668,-5.668,-5.668,-5.668,-5.668,-5.668,-5.668,-5.668,-5.668,-5.668,-5.668,-5.668,-5.668,-5.668,-5.668,-5.668,-5.668,-5.668,-5.0505,-5.0921,-5.1433,0.0,-5.2873,-5.3347,-5.4181,0.0,0.0,0.0,0.0,0.0,0.0,0.0,0.0,0.0,0.0,0.0,0.0,0.0,0.0,0.0,0.0,0.0,0.0,0.0,0.0,0.0,0.0,-5.2498,-5.2498,-5.2498,-5.2498,-5.2498,-5.2498,-5.2498,-5.2498,-5.2498,-5.2498,-5.2498,-5.2498,-5.2498,-5.2498,-5.286,-5.3476,-5.4273,-5.5051,-5.5613,-5.6029,-5.6373,-5.679,-5.7188,-5.7188,-5.7188,-5.7188,-5.7188,-5.7188,-5.7188,-5.7188,-5.7188,-5.7261,-5.7605,-5.8039,-5.8528,-5.9253,-6.0086,-6.0883,-6.1245,-6.1661,-6.2023,-6.2023,-6.2023,-6.2023,-6.2023,-6.2023,-6.2023,-6.2023,-6.1895,-6.1597,-6.1004,-5.9803,-5.8737,-5.8353,-5.7668,-5.7181,-5.7181,-5.6894,-5.668,-5.668,-5.668,-5.668,-5.668,-5.668,-5.668,-5.668,-5.668,-5.668,-5.668,-5.668,-5.668,-5.668,-5.668,-5.668,-5.668,-5.668,-5.668,-5.668,-5.668,-5.668,-5.668,-5.668,-5.668,-5.0694,0.0,-5.1812,-5.3063,-5.3688,-5.4162,0.0,0.0,0.0,0.0,0.0,0.0,0.0,0.0,0.0,0.0,0.0,0.0,0.0,0.0,0.0,0.0,0.0,0.0,0.0,0.0,0.0,0.0,0.0,-5.2498,-5.2498,-5.2498,-5.2498,-5.2498,-5.2498,-5.2498,-5.2498,-5.2498,-5.2498,-5.2498,-5.2498,-5.2498,-5.2498,-5.2498,-5.2824,-5.344,-5.4255,-5.5015,-5.5721,-5.5921,-5.6464,-5.7188,-5.7188,-5.7188,-5.7188,-5.7188,-5.7188,-5.7188,-5.7188,-5.7188,-5.7188,-5.7188,-5.7605,-5.813,-5.8347,-5.9253,-6.0231,-6.0448,-6.1082,-6.1716,-6.1716,-6.186,-6.2023,-6.2023,-6.2023,-6.195,-6.1692,-6.1523,-6.1081,-5.9867,-5.8599,-5.7741,-5.752,-5.703,-5.668,-5.668,-5.668,-5.668,-5.668,-5.668,-5.668,-5.668,-5.668,-5.668,-5.668,-5.668,-5.668,-5.668,-5.668,-5.668,-5.668,-5.668,-5.668,-5.668,-5.668,-5.668,-5.668,-5.668,-5.668,-5.668,-5.668,-5.668,-4.9955,-5.113,0.0,-5.2456,-5.3669,0.0,0.0,0.0,0.0,0.0,0.0,0.0,0.0,0.0,0.0,0.0,0.0,0.0,0.0,0.0,0.0,0.0,0.0,0.0,0.0,0.0,0.0,0.0,0.0,-5.2498,-5.2498,-5.2498,-5.2498,-5.2498,-5.2498,-5.2498,-5.2498,-5.2498,-5.2498,-5.2498,-5.2498,-5.2498,-5.2498,-5.2498,-5.2516,-5.2607,-5.3403,-5.4218,-5.5015,-5.5703,-5.6464,-5.7188,-5.7188,-5.7188,-5.7188,-5.7188,-5.7188,-5.7188,-5.7188,-5.7188,-5.7188,-5.7188,-5.7224,-5.7406,-5.8166,-5.8456,-5.8691,-5.9452,-6.0249,-6.0883,-6.0883,-6.1444,-6.2023,-6.2023,-6.2023,-6.1766,-6.0807,-6.0564,-6.0012,-5.8283,-5.7887,-5.7594,-5.6911,-5.6757,-5.668,-5.668,-5.668,-5.668,-5.668,-5.668,-5.668,-5.668,-5.668,-5.668,-5.668,-5.668,-5.668,-5.668,-5.668,-5.668,-5.668,-5.668,-5.668,-5.668,-5.668,-5.668,-5.668,-5.668,-5.668,-5.668,-5.668,-5.668,-5.1206,-5.1945,0.0,-5.3745,-5.4465,-5.4901,0.0,0.0,0.0,0.0,0.0,0.0,0.0,0.0,0.0,0.0,0.0,0.0,0.0,0.0,0.0,0.0,0.0,0.0,0.0,0.0,0.0,0.0,0.0,0.0,-5.2498,-5.2498,-5.2498,-5.2498,-5.2498,-5.2498,-5.2498,-5.2498,-5.2498,-5.2498,-5.2498,-5.2498,-5.2498,-5.2498,-5.2498,-5.2516,-5.2806,-5.3385,-5.42,-5.4979,-5.574,-5.6482,-5.6989,-5.7188,-5.7188,-5.7188,-5.7188,-5.7188,-5.7188,-5.7188,-5.7188,-5.7188,-5.7188,-5.7243,-5.7532,-5.7985,-5.8456,-5.8746,-5.9416,-6.0031,-6.0031,-6.0249,-6.0341,-5.9977,-5.9865,-5.9487,-5.816,-5.8032,-5.7821,-5.6624,-5.6035,-5.5571,-5.5364,-5.5686,-5.6001,-5.6001,-5.6398,-5.668,-5.668,-5.668,-5.668,-5.668,-5.668,-5.668,-5.668,-5.668,-5.668,-5.668,-5.668,-5.668,-5.668,-5.668,-5.668,-5.668,-5.668,-5.668,-5.668,-5.668,-5.668,-5.668,-5.668,-5.668,-5.1698,-5.2419,-5.3101,0.0,0.0,-5.4901,-5.4901,0.0,0.0,0.0,0.0,0.0,0.0,0.0,0.0,0.0,0.0,0.0,0.0,0.0,0.0,0.0,0.0,0.0,0.0,0.0,0.0,0.0,0.0,0.0,-5.2498,-5.2498,-5.2498,-5.2498,-5.2498,-5.2498,-5.2498,-5.2498,-5.2498,-5.2498,-5.2498,-5.2498,-5.2498,-5.2498,-5.2498,-5.2498,-5.2498,-5.2951,-5.3748,-5.4291,-5.5088,-5.6047,-5.6591,-5.6953,-5.7188,-5.7188,-5.7188,-5.7188,-5.7188,-5.7188,-5.7188,-5.7188,-5.7188,-5.7188,-5.7188,-5.7569,-5.8003,-5.8003,-5.8583,-5.9198,-5.9198,-5.9221,-5.9186,-5.8688,-5.8245,-5.7504,-5.6188,-5.6245,-5.6351,-5.5511,-5.4918,-5.4527,-5.4527,-5.4924,-5.5256,-5.5256,-5.5653,-5.5951,-5.5951,-5.6183,-5.6332,-5.6332,-5.6547,-5.668,-5.668,-5.668,-5.668,-5.668,-5.668,-5.668,-5.668,-5.668,-5.668,-5.668,-5.668,-5.668,-5.668,-5.668,-5.668,-5.668,-5.668,-5.668,0.0,0.0,0.0,-5.3726,0.0,0.0,-5.4901,0.0,0.0,0.0,0.0,0.0,0.0,0.0,0.0,0.0,0.0,0.0,0.0,0.0,0.0,0.0,0.0,0.0,0.0,0.0,0.0,0.0,0.0,-5.2498,-5.2498,-5.2498,-5.2498,-5.2498,-5.2498,-5.2498,-5.2498,-5.2498,-5.2498,-5.2498,-5.2498,-5.2498,-5.2498,-5.2498,-5.2498,-5.2498,-5.2498,-5.2933,-5.3675,-5.3693,-5.4581,-5.5939,-5.5975,-5.6482,-5.717,-5.7188,-5.7188,-5.7188,-5.7188,-5.7188,-5.7188,-5.7188,-5.7188,-5.7188,-5.7188,-5.7188,-5.7188,-5.7188,-5.775,-5.8365,-5.8365,-5.8484,-5.8577,-5.8352,-5.7222,-5.5949,-5.4937,-5.5433,-5.5757,-5.4868,-5.4608,-5.446,-5.446,-5.4477,-5.4494,-5.4494,-5.451,-5.4527,-5.4527,-5.514,-5.5603,-5.5603,-5.6216,-5.663,-5.6663,-5.6663,-5.6663,-5.668,-5.668,-5.668,-5.668,-5.668,-5.668,-5.668,-5.668,-5.668,-5.668,-5.668,-5.668,-5.668,-5.668,-5.668,-5.2684,0.0,0.0,0.0,0.0,0.0,-5.4901,-5.4901,0.0,0.0,0.0,0.0,0.0,0.0,0.0,0.0,0.0,0.0,0.0,0.0,0.0,0.0,0.0,0.0,0.0,0.0,0.0,0.0,-5.2498,-5.2498,-5.2498,-5.2498,-5.2498,-5.2498,-5.2498,-5.2498,-5.2498,-5.2498,-5.2498,-5.2498,-5.2498,-5.2498,-5.2498,-5.2498,-5.2498,-5.2498,-5.2498,-5.2625,-5.2878,-5.3458,-5.3947,-5.4454,-5.5558,-5.6138,-5.6391,-5.6989,-5.7188,-5.7188,-5.7188,-5.7188,-5.7188,-5.7188,-5.7188,-5.7188,-5.7188,-5.7188,-5.7188,-5.7188,-5.7351,-5.7532,-5.7532,-5.7244,-5.6843,-5.6369,-5.5445,-5.4475,-5.3771,-5.3599,-5.3472,-5.3097,-5.3042,-5.297,-5.297,-5.3384,-5.3715,-5.3715,-5.4179,-5.4527,-5.4527,-5.4692,-5.4825,-5.4825,-5.5007,-5.5338,-5.5868,-5.5918,-5.6133,-5.6663,-5.668,-5.668,-5.668,-5.668,-5.668,-5.668,-5.668,-5.668,-5.668,-5.668,-5.668,-5.668,-5.668,-5.668,-5.3442,-5.3954,-5.4314,-5.4787,0.0,0.0,-5.4901,-5.4901,-5.4901,0.0,0.0,0.0,0.0,0.0,0.0,0.0,0.0,0.0,0.0,0.0,0.0,0.0,0.0,0.0,0.0,0.0,0.0,-5.2498,-5.2498,-5.2498,-5.2498,-5.2498,-5.2498,-5.2498,-5.2498,-5.2498,-5.2498,-5.2498,-5.2498,-5.2498,-5.2498,-5.2498,-5.2498,-5.2498,-5.2498,-5.2498,-5.2498,-5.2498,-5.2534,-5.3005,-5.3403,-5.3784,-5.4689,-5.5432,-5.6047,-5.6518,-5.6899,-5.7188,-5.7188,-5.7188,-5.7188,-5.7188,-5.7188,-5.7188,-5.7188,-5.7188,-5.7188,-5.7188,-5.7188,-5.7138,-5.6863,-5.6348,-5.5698,-5.4991,-5.4183,-5.3516,-5.3025,-5.2711,-5.2499,-5.2499,-5.2445,-5.2373,-5.2373,-5.2721,-5.2986,-5.2986,-5.3351,-5.3632,-5.3632,-5.3881,-5.4063,-5.4063,-5.4345,-5.4692,-5.5123,-5.5173,-5.5471,-5.62,-5.6249,-5.6382,-5.668,-5.668,-5.668,-5.668,-5.668,-5.668,-5.668,-5.668,-5.668,-5.668,-5.668,-5.668,-5.3821,-5.4371,-5.4901,-5.4901,-5.4901,0.0,-5.4901,-5.4901,-5.4901,0.0,0.0,0.0,0.0,0.0,0.0,0.0,0.0,0.0,0.0,0.0,0.0,0.0,0.0,0.0,0.0,-5.2498,-5.2498,-5.2498,-5.2498,-5.2498,-5.2498,-5.2498,-5.2498,-5.2498,-5.2498,-5.2498,-5.2498,-5.2498,-5.2498,-5.2498,-5.2498,-5.2498,-5.2498,-5.2498,-5.2498,-5.2498,-5.2498,-5.2498,-5.2498,-5.2498,-5.2915,-5.3585,-5.3675,-5.4544,-5.5758,-5.5939,-5.6446,-5.708,-5.717,-5.7188,-5.7188,-5.7188,-5.7188,-5.7188,-5.7188,-5.7188,-5.7188,-5.7188,-5.7188,-5.7087,-5.6474,-5.5812,-5.5077,-5.4293,-5.3449,-5.2834,-5.2624,-5.2499,-5.2445,-5.257,-5.2516,-5.2373,-5.2373,-5.2373,-5.2373,-5.2373,-5.2373,-5.2373,-5.2373,-5.292,-5.3301,-5.3301,-5.3897,-5.4311,-5.4394,-5.4394,-5.4709,-5.5454,-5.557,-5.5901,-5.6547,-5.6647,-5.668,-5.668,-5.668,-5.668,-5.668,-5.668,-5.668,-5.668,-5.668,-5.668,-5.4484,-5.4787,-5.4901,-5.4901,0.0,0.0,-5.4901,-5.4901,-5.4901,0.0,0.0,0.0,0.0,0.0,0.0,0.0,0.0,0.0,0.0,0.0,0.0,0.0,0.0,0.0,0.0,-5.2498,-5.2498,-5.2498,-5.2498,-5.2498,-5.2498,-5.2498,-5.2498,-5.2498,-5.2498,-5.2498,-5.2498,-5.2498,-5.2498,-5.2498,-5.2498,-5.2498,-5.2498,-5.2498,-5.2498,-5.2498,-5.2498,-5.2498,-5.2498,-5.2498,-5.2589,-5.2788,-5.344,-5.3874,-5.4291,-5.554,-5.6084,-5.6319,-5.6971,-5.7188,-5.7188,-5.7188,-5.7188,-5.7188,-5.7188,-5.7188,-5.7188,-5.7188,-5.7188,-5.7087,-5.6474,-5.5716,-5.4974,-5.4293,-5.3382,-5.2624,-5.264,-5.2499,-5.2373,-5.2445,-5.2445,-5.2373,-5.2373,-5.2373,-5.2373,-5.2373,-5.2373,-5.2373,-5.2373,-5.2489,-5.2589,-5.2589,-5.2705,-5.3019,-5.3583,-5.3632,-5.3947,-5.4692,-5.5289,-5.5686,-5.5819,-5.6382,-5.668,-5.668,-5.668,-5.668,-5.668,-5.668,-5.668,-5.668,-5.668,-5.668,0.0,0.0,0.0,-5.4901,0.0,0.0,0.0,-5.4901,-5.4901,0.0,0.0,0.0,0.0,0.0,0.0,0.0,0.0,0.0,0.0,0.0,0.0,0.0,0.0,0.0,0.0,-5.2498,-5.2498,-5.2498,-5.2498,-5.2498,-5.2498,-5.2498,-5.2498,-5.2498,-5.2498,-5.2498,-5.2498,-5.2498,-5.2498,-5.2498,-5.2498,-5.2498,-5.2498,-5.2498,-5.2498,-5.2498,-5.2498,-5.2498,-5.2498,-5.2498,-5.2498,-5.2534,-5.2933,-5.3349,-5.3784,-5.4562,-5.5341,-5.6047,-5.6446,-5.6862,-5.7188,-5.7188,-5.7188,-5.7188,-5.7188,-5.6984,-5.6758,-5.6758,-5.6528,-5.6184,-5.5525,-5.4991,-5.4437,-5.383,-5.3145,-5.2624,-5.2624,-5.2499,-5.2373,-5.2373,-5.2373,-5.2373,-5.2373,-5.2373,-5.2373,-5.2373,-5.2373,-5.2373,-5.2373,-5.2373,-5.2373,-5.2373,-5.2373,-5.2523,-5.287,-5.2904,-5.3202,-5.393,-5.4659,-5.5239,-5.5603,-5.6316,-5.668,-5.668,-5.668,-5.668,-5.668,-5.668,-5.668,-5.668,-5.668,-5.668,0.0,0.0,0.0,0.0,0.0,-5.4901,0.0,0.0,0.0,0.0,0.0,0.0,0.0,0.0,0.0,0.0,0.0,0.0,0.0,0.0,0.0,0.0,0.0,0.0,0.0,-5.2498,-5.2498,-5.2498,-5.2498,-5.2498,-5.2498,-5.2498,-5.2498,-5.2498,-5.2498,-5.2498,-5.2498,-5.2498,-5.2498,-5.2498,-5.2498,-5.2498,-5.2498,-5.2498,-5.2498,-5.2498,-5.2498,-5.2498,-5.2498,-5.2498,-5.2498,-5.2498,-5.2498,-5.2896,-5.3494,-5.3639,-5.449,-5.5577,-5.5721,-5.6301,-5.6971,-5.6971,-5.7062,-5.7188,-5.7087,-5.6706,-5.6257,-5.6146,-5.5808,-5.5266,-5.4579,-5.4247,-5.3878,-5.3298,-5.2834,-5.257,-5.257,-5.2516,-5.2373,-5.2373,-5.2373,-5.2373,-5.2373,-5.2373,-5.2373,-5.2373,-5.2373,-5.2373,-5.2373,-5.2373,-5.2373,-5.2373,-5.2373,-5.2373,-5.2373,-5.2373,-5.2622,-5.3185,-5.403,-5.4792,-5.5388,-5.6233,-5.668,-5.668,-5.668,-5.668,-5.668,-5.668,-5.668,-5.668,-5.668,-5.668,0.0,0.0,0.0,0.0,-5.4901,0.0,0.0,0.0,-5.4901,-5.4901,0.0,0.0,0.0,0.0,0.0,0.0,0.0,0.0,0.0,0.0,0.0,0.0,0.0,0.0,0.0,0.0,-5.2498,-5.2498,-5.2498,-5.2498,-5.2498,-5.2498,-5.2498,-5.2498,-5.2498,-5.2498,-5.2498,-5.2498,-5.2498,-5.2498,-5.2498,-5.2498,-5.2498,-5.2498,-5.2498,-5.2498,-5.2498,-5.2498,-5.2498,-5.2498,-5.2498,-5.2498,-5.2498,-5.2552,-5.2715,-5.344,-5.3802,-5.4055,-5.478,-5.5504,-5.6138,-5.6138,-5.6609,-5.7087,-5.6582,-5.6366,-5.6201,-5.5618,-5.5443,-5.5266,-5.4579,-5.4136,-5.3781,-5.3093,-5.264,-5.2445,-5.2445,-5.2373,-5.2373,-5.2373,-5.2373,-5.2373,-5.2373,-5.2373,-5.2373,-5.2373,-5.2373,-5.2373,-5.2373,-5.2373,-5.2373,-5.2373,-5.2373,-5.2373,-5.2373,-5.2373,-5.2407,-5.2489,-5.3765,-5.456,-5.4643,-5.5968,-5.668,-5.668,-5.668,-5.668,-5.668,-5.668,-5.668,-5.668,-5.668,-5.668,0.0,0.0,0.0,0.0,0.0,0.0,-5.4841,0.0,-5.4901,0.0,0.0,0.0,0.0,0.0,0.0,0.0,-5.2875,0.0,0.0,0.0,0.0,0.0,0.0,0.0,0.0,0.0,0.0,0.0,0.0,-5.2498,-5.2498,-5.2498,-5.2498,-5.2498,-5.2498,-5.2498,-5.2498,-5.2498,-5.2498,-5.2498,-5.2498,-5.2498,-5.2498,-5.2498,-5.2498,-5.2498,-5.2498,-5.2498,-5.2498,-5.2498,-5.2498,-5.2498,-5.2498,-5.2498,-5.2534,-5.2878,-5.3295,-5.3748,-5.4092,-5.4707,-5.5432,-5.5848,-5.6228,-5.6472,-5.6331,-5.609,-5.5618,-5.5009,-5.4551,-5.4205,-5.3963,-5.3617,-5.3213,-5.2972,-5.264,-5.2373,-5.2373,-5.2373,-5.2373,-5.2373,-5.2373,-5.2373,-5.2373,-5.2373,-5.2373,-5.2373,-5.2373,-5.2373,-5.2373,-5.2373,-5.2373,-5.2373,-5.2373,-5.2373,-5.2373,-5.2373,-5.2373,-5.2373,-5.3732,-5.4709,-5.514,-5.6133,-5.668,-5.668,-5.668,-5.668,-5.668,-5.668,-5.668,-5.668,-5.668,-5.668,-5.4226,0.0,0.0,0.0,0.0,0.0,0.0,0.0,0.0,0.0,0.0,0.0,0.0,0.0,-5.3096,-5.3096,0.0,-5.2498,0.0,0.0,0.0,0.0,0.0,0.0,0.0,0.0,0.0,-5.2498,-5.2498,-5.2498,-5.2498,-5.2498,-5.2498,-5.2498,-5.2498,-5.2498,-5.2498,-5.2498,-5.2498,-5.2498,-5.2498,-5.2498,-5.2498,-5.2498,-5.2498,-5.2498,-5.2498,-5.2498,-5.2498,-5.2498,-5.2498,-5.2498,-5.2498,-5.2498,-5.2498,-5.2498,-5.286,-5.3367,-5.3367,-5.3779,-5.4458,-5.5216,-5.5476,-5.547,-5.5502,-5.5326,-5.5026,-5.4362,-5.3832,-5.3501,-5.3416,-5.3127,-5.2903,-5.2834,-5.257,-5.2373,-5.2373,-5.2373,-5.2373,-5.2373,-5.2373,-5.2373,-5.2373,-5.2373,-5.2373,-5.2373,-5.2373,-5.2373,-5.2373,-5.2373,-5.2373,-5.2373,-5.2373,-5.2373,-5.2373,-5.2373,-5.2456,-5.2655,-5.3831,-5.4858,-5.5603,-5.6316,-5.668,-5.668,-5.668,-5.668,-5.668,-5.668,-5.6603,-5.6336,-5.6603,-5.668,0.0,0.0,0.0,-5.4228,0.0,0.0,0.0,0.0,-5.4901,0.0,0.0,0.0,0.0,-5.3624,-5.3096,-5.3096,-5.2761,0.0,0.0,0.0,0.0,0.0,0.0,0.0,0.0,0.0,0.0,-5.2498,-5.2498,-5.2498,-5.2498,-5.2498,-5.2498,-5.2498,-5.2498,-5.2498,-5.2498,-5.2498,-5.2498,-5.2498,-5.2498,-5.2498,-5.2498,-5.2498,-5.2498,-5.2498,-5.2498,-5.2498,-5.2498,-5.2498,-5.2498,-5.2498,-5.2498,-5.2498,-5.2498,-5.2498,-5.2516,-5.2534,-5.2534,-5.2672,-5.3008,-5.3776,-5.4151,-5.4133,-5.3593,-5.3884,-5.4281,-5.3668,-5.3501,-5.3433,-5.3264,-5.3041,-5.2834,-5.264,-5.2499,-5.2373,-5.2373,-5.2373,-5.2373,-5.2373,-5.2373,-5.2373,-5.2373,-5.2373,-5.2373,-5.2373,-5.2373,-5.2373,-5.2373,-5.2373,-5.2373,-5.2373,-5.2373,-5.2373,-5.2373,-5.2373,-5.2672,-5.3334,-5.4096,-5.4858,-5.5603,-5.6316,-5.668,-5.668,-5.668,-5.668,-5.668,-5.668,-5.6241,-5.5393,-5.6257,-5.668,0.0,0.0,-5.2745,-5.3665,0.0,0.0,0.0,0.0,0.0,0.0,0.0,0.0,0.0,-5.3054,-5.2717,-5.2717,-5.2572,-5.2498,0.0,0.0,0.0,0.0,0.0,0.0,0.0,0.0,0.0,-5.2498,-5.2498,-5.2498,0.0,-5.2498,-5.2498,-5.2498,-5.2498,-5.2498,-5.2498,-5.2498,-5.2498,-5.2498,-5.2498,-5.2498,-5.2498,-5.2498,-5.2498,-5.2498,-5.2498,-5.2498,-5.2498,-5.2498,-5.2498,-5.2498,-5.2498,-5.2498,-5.2498,-5.2498,-5.2498,-5.2434,-5.2048,-5.1678,-5.1564,-5.2342,-5.2657,-5.2678,-5.2597,-5.2762,-5.2888,-5.2751,-5.2706,-5.2824,-5.3281,-5.3127,-5.2903,-5.2834,-5.257,-5.2373,-5.2373,-5.2373,-5.2373,-5.2373,-5.2373,-5.2373,-5.2373,-5.2373,-5.2373,-5.2373,-5.2373,-5.2373,-5.2373,-5.2373,-5.2373,-5.2373,-5.2373,-5.2373,-5.2373,-5.2373,-5.2489,-5.2721,-5.3864,-5.4626,-5.4875,-5.6051,-5.668,-5.668,-5.668,-5.668,-5.668,-5.668,-5.6241,-5.5296,-5.5652,-5.5732,-5.1074,-5.1444,0.0,-5.2816,-5.3105,0.0,-5.3925,0.0,0.0,0.0,0.0,0.0,0.0,-5.2761,-5.2498,-5.2498,-5.2498,-5.2498,0.0,-5.2498,0.0,0.0,0.0,0.0,0.0,0.0,-5.2498,-5.2498,-5.2498,-5.2498,0.0,0.0,-5.2498,-5.2498,-5.2498,-5.2498,-5.2498,-5.2498,-5.2498,-5.2498,-5.2498,-5.2498,-5.2498,-5.2498,-5.2498,-5.2498,-5.2498,-5.2498,-5.2498,-5.2498,-5.2498,-5.2498,-5.2498,-5.2498,-5.2498,-5.2498,-5.2369,-5.2114,-5.1719,-5.1052,-5.053,-5.1018,-5.1198,-5.128,-5.1399,-5.1638,-5.1942,-5.2567,-5.2267,-5.2032,-5.3011,-5.2857,-5.238,-5.231,-5.2387,-5.2373,-5.2373,-5.2373,-5.2373,-5.2373,-5.2373,-5.2373,-5.2373,-5.2373,-5.2373,-5.2373,-5.2373,-5.2373,-5.2373,-5.2373,-5.2373,-5.2373,-5.2373,-5.2373,-5.2373,-5.2373,-5.2373,-5.2373,-5.3732,-5.4527,-5.4527,-5.5918,-5.668,-5.668,-5.668,-5.668,-5.668,-5.668,-5.6241,-5.5296,-5.5296,-5.5133]}]]